<?xml version="1.0" encoding="UTF-8" standalone="no" ?>
<gpx xmlns="http://www.topografix.com/GPX/1/1" xmlns:xsi="http://www.w3.org/2001/XMLSchema-instance" xsi:schemaLocation="http://www.topografix.com/GPX/1/1 http://www.topografix.com/GPX/1/1/gpx.xsd" version="1.1" creator="VisuGPX - https://www.visugpx.com">
  <metadata>
    <name>Combe Lavaux Gevrey-Chambertin</name>
    <desc><![CDATA[Randonnée pédestre effectuée le 21 novembre 2019]]></desc>
  </metadata>
  <trk>
    <name><![CDATA[21 nov. 2019 à 09:20:47]]></name>
    <trkseg>
      <trkpt lat="47.22234" lon="4.9497">
        <ele>336</ele>
        <time>2019-11-21T08:20:48Z</time>
      </trkpt>
      <trkpt lat="47.22239" lon="4.9496">
        <ele>343</ele>
        <time>2019-11-21T08:21:02Z</time>
      </trkpt>
      <trkpt lat="47.22244" lon="4.94957">
        <ele>341</ele>
        <time>2019-11-21T08:21:05Z</time>
      </trkpt>
      <trkpt lat="47.22246" lon="4.94947">
        <ele>333</ele>
        <time>2019-11-21T08:21:37Z</time>
      </trkpt>
      <trkpt lat="47.22253" lon="4.94944">
        <ele>332</ele>
        <time>2019-11-21T08:21:47Z</time>
      </trkpt>
      <trkpt lat="47.22247" lon="4.94929">
        <ele>325</ele>
        <time>2019-11-21T08:22:07Z</time>
      </trkpt>
      <trkpt lat="47.22241" lon="4.94917">
        <ele>319</ele>
        <time>2019-11-21T08:22:33Z</time>
      </trkpt>
      <trkpt lat="47.22234" lon="4.94888">
        <ele>316</ele>
        <time>2019-11-21T08:22:52Z</time>
      </trkpt>
      <trkpt lat="47.22223" lon="4.94867">
        <ele>315</ele>
        <time>2019-11-21T08:23:07Z</time>
      </trkpt>
      <trkpt lat="47.22218" lon="4.94857">
        <ele>315</ele>
        <time>2019-11-21T08:23:21Z</time>
      </trkpt>
      <trkpt lat="47.22212" lon="4.94855">
        <ele>315</ele>
        <time>2019-11-21T08:23:26Z</time>
      </trkpt>
      <trkpt lat="47.22206" lon="4.94854">
        <ele>318</ele>
        <time>2019-11-21T08:23:34Z</time>
      </trkpt>
      <trkpt lat="47.22198" lon="4.9485">
        <ele>316</ele>
        <time>2019-11-21T08:23:46Z</time>
      </trkpt>
      <trkpt lat="47.22193" lon="4.94847">
        <ele>318</ele>
        <time>2019-11-21T08:23:58Z</time>
      </trkpt>
      <trkpt lat="47.2219" lon="4.94839">
        <ele>318</ele>
        <time>2019-11-21T08:24:10Z</time>
      </trkpt>
      <trkpt lat="47.22179" lon="4.94828">
        <ele>315</ele>
        <time>2019-11-21T08:24:25Z</time>
      </trkpt>
      <trkpt lat="47.22165" lon="4.9481">
        <ele>319</ele>
        <time>2019-11-21T08:24:47Z</time>
      </trkpt>
      <trkpt lat="47.2216" lon="4.94802">
        <ele>318</ele>
        <time>2019-11-21T08:24:54Z</time>
      </trkpt>
      <trkpt lat="47.2215" lon="4.94789">
        <ele>316</ele>
        <time>2019-11-21T08:25:09Z</time>
      </trkpt>
      <trkpt lat="47.22146" lon="4.94783">
        <ele>316</ele>
        <time>2019-11-21T08:25:14Z</time>
      </trkpt>
      <trkpt lat="47.22142" lon="4.94778">
        <ele>316</ele>
        <time>2019-11-21T08:25:19Z</time>
      </trkpt>
      <trkpt lat="47.22138" lon="4.94774">
        <ele>319</ele>
        <time>2019-11-21T08:25:28Z</time>
      </trkpt>
      <trkpt lat="47.2213" lon="4.9476">
        <ele>319</ele>
        <time>2019-11-21T08:25:45Z</time>
      </trkpt>
      <trkpt lat="47.22127" lon="4.94754">
        <ele>319</ele>
        <time>2019-11-21T08:25:49Z</time>
      </trkpt>
      <trkpt lat="47.22118" lon="4.9474">
        <ele>322</ele>
        <time>2019-11-21T08:26:07Z</time>
      </trkpt>
      <trkpt lat="47.22116" lon="4.94733">
        <ele>324</ele>
        <time>2019-11-21T08:26:17Z</time>
      </trkpt>
      <trkpt lat="47.22099" lon="4.9471">
        <ele>330</ele>
        <time>2019-11-21T08:26:50Z</time>
      </trkpt>
      <trkpt lat="47.2209" lon="4.94693">
        <ele>331</ele>
        <time>2019-11-21T08:27:09Z</time>
      </trkpt>
      <trkpt lat="47.22085" lon="4.94688">
        <ele>333</ele>
        <time>2019-11-21T08:27:17Z</time>
      </trkpt>
      <trkpt lat="47.22079" lon="4.94682">
        <ele>332</ele>
        <time>2019-11-21T08:27:28Z</time>
      </trkpt>
      <trkpt lat="47.22069" lon="4.94668">
        <ele>335</ele>
        <time>2019-11-21T08:27:45Z</time>
      </trkpt>
      <trkpt lat="47.22065" lon="4.94664">
        <ele>334</ele>
        <time>2019-11-21T08:27:53Z</time>
      </trkpt>
      <trkpt lat="47.22061" lon="4.94658">
        <ele>334</ele>
        <time>2019-11-21T08:28:01Z</time>
      </trkpt>
      <trkpt lat="47.22055" lon="4.94645">
        <ele>336</ele>
        <time>2019-11-21T08:28:13Z</time>
      </trkpt>
      <trkpt lat="47.22053" lon="4.94637">
        <ele>337</ele>
        <time>2019-11-21T08:28:21Z</time>
      </trkpt>
      <trkpt lat="47.2205" lon="4.94632">
        <ele>337</ele>
        <time>2019-11-21T08:28:27Z</time>
      </trkpt>
      <trkpt lat="47.22047" lon="4.94624">
        <ele>338</ele>
        <time>2019-11-21T08:28:39Z</time>
      </trkpt>
      <trkpt lat="47.22045" lon="4.94618">
        <ele>338</ele>
        <time>2019-11-21T08:28:45Z</time>
      </trkpt>
      <trkpt lat="47.2204" lon="4.94609">
        <ele>339</ele>
        <time>2019-11-21T08:28:57Z</time>
      </trkpt>
      <trkpt lat="47.22037" lon="4.94603">
        <ele>340</ele>
        <time>2019-11-21T08:29:04Z</time>
      </trkpt>
      <trkpt lat="47.22035" lon="4.94584">
        <ele>344</ele>
        <time>2019-11-21T08:29:19Z</time>
      </trkpt>
      <trkpt lat="47.22034" lon="4.94573">
        <ele>346</ele>
        <time>2019-11-21T08:29:27Z</time>
      </trkpt>
      <trkpt lat="47.22031" lon="4.94568">
        <ele>347</ele>
        <time>2019-11-21T08:29:41Z</time>
      </trkpt>
      <trkpt lat="47.22027" lon="4.94563">
        <ele>346</ele>
        <time>2019-11-21T08:29:45Z</time>
      </trkpt>
      <trkpt lat="47.22022" lon="4.94557">
        <ele>348</ele>
        <time>2019-11-21T08:29:59Z</time>
      </trkpt>
      <trkpt lat="47.22021" lon="4.94564">
        <ele>353</ele>
        <time>2019-11-21T08:30:17Z</time>
      </trkpt>
      <trkpt lat="47.22023" lon="4.94571">
        <ele>357</ele>
        <time>2019-11-21T08:30:28Z</time>
      </trkpt>
      <trkpt lat="47.22022" lon="4.94579">
        <ele>361</ele>
        <time>2019-11-21T08:30:40Z</time>
      </trkpt>
      <trkpt lat="47.22021" lon="4.94579">
        <ele>364</ele>
        <time>2019-11-21T08:31:16Z</time>
      </trkpt>
      <trkpt lat="47.22015" lon="4.94575">
        <ele>367</ele>
        <time>2019-11-21T08:31:40Z</time>
      </trkpt>
      <trkpt lat="47.22007" lon="4.94571">
        <ele>375</ele>
        <time>2019-11-21T08:32:52Z</time>
      </trkpt>
      <trkpt lat="47.22008" lon="4.94573">
        <ele>381</ele>
        <time>2019-11-21T08:34:05Z</time>
      </trkpt>
      <trkpt lat="47.22017" lon="4.94577">
        <ele>394</ele>
        <time>2019-11-21T08:35:36Z</time>
      </trkpt>
      <trkpt lat="47.22043" lon="4.9458">
        <ele>398</ele>
        <time>2019-11-21T08:37:41Z</time>
      </trkpt>
      <trkpt lat="47.22032" lon="4.94571">
        <ele>400</ele>
        <time>2019-11-21T08:39:15Z</time>
      </trkpt>
      <trkpt lat="47.22017" lon="4.94572">
        <ele>393</ele>
        <time>2019-11-21T08:39:39Z</time>
      </trkpt>
      <trkpt lat="47.22018" lon="4.94579">
        <ele>378</ele>
        <time>2019-11-21T08:42:57Z</time>
      </trkpt>
      <trkpt lat="47.22025" lon="4.94584">
        <ele>379</ele>
        <time>2019-11-21T08:47:26Z</time>
      </trkpt>
      <trkpt lat="47.22028" lon="4.94582">
        <ele>373</ele>
        <time>2019-11-21T08:47:56Z</time>
      </trkpt>
      <trkpt lat="47.22031" lon="4.94572">
        <ele>372</ele>
        <time>2019-11-21T08:48:08Z</time>
      </trkpt>
      <trkpt lat="47.22031" lon="4.94564">
        <ele>371</ele>
        <time>2019-11-21T08:48:20Z</time>
      </trkpt>
      <trkpt lat="47.22034" lon="4.94558">
        <ele>372</ele>
        <time>2019-11-21T08:48:38Z</time>
      </trkpt>
      <trkpt lat="47.2203" lon="4.94551">
        <ele>371</ele>
        <time>2019-11-21T08:49:14Z</time>
      </trkpt>
      <trkpt lat="47.22031" lon="4.94543">
        <ele>374</ele>
        <time>2019-11-21T08:49:22Z</time>
      </trkpt>
      <trkpt lat="47.22031" lon="4.94537">
        <ele>374</ele>
        <time>2019-11-21T08:49:27Z</time>
      </trkpt>
      <trkpt lat="47.22029" lon="4.9453">
        <ele>375</ele>
        <time>2019-11-21T08:49:35Z</time>
      </trkpt>
      <trkpt lat="47.22025" lon="4.94526">
        <ele>370</ele>
        <time>2019-11-21T08:49:40Z</time>
      </trkpt>
      <trkpt lat="47.22019" lon="4.94515">
        <ele>372</ele>
        <time>2019-11-21T08:49:49Z</time>
      </trkpt>
      <trkpt lat="47.22018" lon="4.94507">
        <ele>371</ele>
        <time>2019-11-21T08:49:57Z</time>
      </trkpt>
      <trkpt lat="47.22015" lon="4.94497">
        <ele>373</ele>
        <time>2019-11-21T08:50:09Z</time>
      </trkpt>
      <trkpt lat="47.22011" lon="4.94493">
        <ele>373</ele>
        <time>2019-11-21T08:50:21Z</time>
      </trkpt>
      <trkpt lat="47.22005" lon="4.94496">
        <ele>373</ele>
        <time>2019-11-21T08:50:33Z</time>
      </trkpt>
      <trkpt lat="47.22005" lon="4.94507">
        <ele>375</ele>
        <time>2019-11-21T08:50:45Z</time>
      </trkpt>
      <trkpt lat="47.22004" lon="4.94515">
        <ele>377</ele>
        <time>2019-11-21T08:50:57Z</time>
      </trkpt>
      <trkpt lat="47.22003" lon="4.94523">
        <ele>380</ele>
        <time>2019-11-21T08:51:09Z</time>
      </trkpt>
      <trkpt lat="47.21996" lon="4.94519">
        <ele>381</ele>
        <time>2019-11-21T08:51:27Z</time>
      </trkpt>
      <trkpt lat="47.21995" lon="4.9453">
        <ele>385</ele>
        <time>2019-11-21T08:51:45Z</time>
      </trkpt>
      <trkpt lat="47.21993" lon="4.94536">
        <ele>386</ele>
        <time>2019-11-21T08:51:56Z</time>
      </trkpt>
      <trkpt lat="47.2199" lon="4.94528">
        <ele>389</ele>
        <time>2019-11-21T08:52:14Z</time>
      </trkpt>
      <trkpt lat="47.21987" lon="4.94535">
        <ele>392</ele>
        <time>2019-11-21T08:52:38Z</time>
      </trkpt>
      <trkpt lat="47.21986" lon="4.94543">
        <ele>394</ele>
        <time>2019-11-21T08:52:50Z</time>
      </trkpt>
      <trkpt lat="47.21988" lon="4.94553">
        <ele>396</ele>
        <time>2019-11-21T08:53:02Z</time>
      </trkpt>
      <trkpt lat="47.21982" lon="4.94553">
        <ele>396</ele>
        <time>2019-11-21T08:53:14Z</time>
      </trkpt>
      <trkpt lat="47.21977" lon="4.94546">
        <ele>400</ele>
        <time>2019-11-21T08:53:26Z</time>
      </trkpt>
      <trkpt lat="47.21974" lon="4.94556">
        <ele>405</ele>
        <time>2019-11-21T08:53:56Z</time>
      </trkpt>
      <trkpt lat="47.21978" lon="4.94572">
        <ele>409</ele>
        <time>2019-11-21T08:54:20Z</time>
      </trkpt>
      <trkpt lat="47.21971" lon="4.94573">
        <ele>409</ele>
        <time>2019-11-21T08:54:32Z</time>
      </trkpt>
      <trkpt lat="47.21967" lon="4.94567">
        <ele>412</ele>
        <time>2019-11-21T08:55:08Z</time>
      </trkpt>
      <trkpt lat="47.21963" lon="4.9456">
        <ele>412</ele>
        <time>2019-11-21T08:55:20Z</time>
      </trkpt>
      <trkpt lat="47.21963" lon="4.94549">
        <ele>413</ele>
        <time>2019-11-21T08:55:32Z</time>
      </trkpt>
      <trkpt lat="47.21963" lon="4.94542">
        <ele>413</ele>
        <time>2019-11-21T08:55:38Z</time>
      </trkpt>
      <trkpt lat="47.21967" lon="4.94533">
        <ele>414</ele>
        <time>2019-11-21T08:55:50Z</time>
      </trkpt>
      <trkpt lat="47.21971" lon="4.94526">
        <ele>414</ele>
        <time>2019-11-21T08:56:02Z</time>
      </trkpt>
      <trkpt lat="47.21977" lon="4.94521">
        <ele>411</ele>
        <time>2019-11-21T08:56:14Z</time>
      </trkpt>
      <trkpt lat="47.21974" lon="4.94509">
        <ele>409</ele>
        <time>2019-11-21T08:57:57Z</time>
      </trkpt>
      <trkpt lat="47.21973" lon="4.94496">
        <ele>407</ele>
        <time>2019-11-21T08:58:09Z</time>
      </trkpt>
      <trkpt lat="47.21973" lon="4.94488">
        <ele>407</ele>
        <time>2019-11-21T08:58:14Z</time>
      </trkpt>
      <trkpt lat="47.21973" lon="4.94479">
        <ele>407</ele>
        <time>2019-11-21T08:58:22Z</time>
      </trkpt>
      <trkpt lat="47.21974" lon="4.94471">
        <ele>407</ele>
        <time>2019-11-21T08:58:28Z</time>
      </trkpt>
      <trkpt lat="47.21973" lon="4.94464">
        <ele>408</ele>
        <time>2019-11-21T08:58:33Z</time>
      </trkpt>
      <trkpt lat="47.21971" lon="4.94457">
        <ele>408</ele>
        <time>2019-11-21T08:58:38Z</time>
      </trkpt>
      <trkpt lat="47.21971" lon="4.9445">
        <ele>408</ele>
        <time>2019-11-21T08:58:43Z</time>
      </trkpt>
      <trkpt lat="47.21969" lon="4.94444">
        <ele>409</ele>
        <time>2019-11-21T08:58:48Z</time>
      </trkpt>
      <trkpt lat="47.21965" lon="4.94436">
        <ele>409</ele>
        <time>2019-11-21T08:58:55Z</time>
      </trkpt>
      <trkpt lat="47.21963" lon="4.94429">
        <ele>408</ele>
        <time>2019-11-21T08:59:01Z</time>
      </trkpt>
      <trkpt lat="47.21961" lon="4.9442">
        <ele>412</ele>
        <time>2019-11-21T08:59:19Z</time>
      </trkpt>
      <trkpt lat="47.2196" lon="4.94413">
        <ele>411</ele>
        <time>2019-11-21T08:59:31Z</time>
      </trkpt>
      <trkpt lat="47.21955" lon="4.94402">
        <ele>410</ele>
        <time>2019-11-21T08:59:41Z</time>
      </trkpt>
      <trkpt lat="47.21952" lon="4.94395">
        <ele>412</ele>
        <time>2019-11-21T08:59:46Z</time>
      </trkpt>
      <trkpt lat="47.21942" lon="4.94377">
        <ele>414</ele>
        <time>2019-11-21T09:00:04Z</time>
      </trkpt>
      <trkpt lat="47.21937" lon="4.94367">
        <ele>414</ele>
        <time>2019-11-21T09:00:15Z</time>
      </trkpt>
      <trkpt lat="47.21934" lon="4.94358">
        <ele>416</ele>
        <time>2019-11-21T09:00:22Z</time>
      </trkpt>
      <trkpt lat="47.21934" lon="4.9435">
        <ele>417</ele>
        <time>2019-11-21T09:00:30Z</time>
      </trkpt>
      <trkpt lat="47.21932" lon="4.94344">
        <ele>416</ele>
        <time>2019-11-21T09:00:34Z</time>
      </trkpt>
      <trkpt lat="47.21933" lon="4.94334">
        <ele>416</ele>
        <time>2019-11-21T09:00:40Z</time>
      </trkpt>
      <trkpt lat="47.21928" lon="4.94328">
        <ele>416</ele>
        <time>2019-11-21T09:00:47Z</time>
      </trkpt>
      <trkpt lat="47.21919" lon="4.94319">
        <ele>419</ele>
        <time>2019-11-21T09:01:00Z</time>
      </trkpt>
      <trkpt lat="47.21914" lon="4.94312">
        <ele>420</ele>
        <time>2019-11-21T09:01:12Z</time>
      </trkpt>
      <trkpt lat="47.2191" lon="4.943">
        <ele>420</ele>
        <time>2019-11-21T09:01:24Z</time>
      </trkpt>
      <trkpt lat="47.21903" lon="4.94274">
        <ele>422</ele>
        <time>2019-11-21T09:01:53Z</time>
      </trkpt>
      <trkpt lat="47.21902" lon="4.94266">
        <ele>421</ele>
        <time>2019-11-21T09:01:59Z</time>
      </trkpt>
      <trkpt lat="47.219" lon="4.94255">
        <ele>422</ele>
        <time>2019-11-21T09:02:08Z</time>
      </trkpt>
      <trkpt lat="47.21899" lon="4.94248">
        <ele>423</ele>
        <time>2019-11-21T09:02:12Z</time>
      </trkpt>
      <trkpt lat="47.21897" lon="4.94242">
        <ele>423</ele>
        <time>2019-11-21T09:02:16Z</time>
      </trkpt>
      <trkpt lat="47.21895" lon="4.94235">
        <ele>423</ele>
        <time>2019-11-21T09:02:21Z</time>
      </trkpt>
      <trkpt lat="47.21889" lon="4.94207">
        <ele>419</ele>
        <time>2019-11-21T09:02:42Z</time>
      </trkpt>
      <trkpt lat="47.21886" lon="4.94201">
        <ele>419</ele>
        <time>2019-11-21T09:02:47Z</time>
      </trkpt>
      <trkpt lat="47.21887" lon="4.94194">
        <ele>418</ele>
        <time>2019-11-21T09:03:19Z</time>
      </trkpt>
      <trkpt lat="47.21889" lon="4.94188">
        <ele>420</ele>
        <time>2019-11-21T09:03:43Z</time>
      </trkpt>
      <trkpt lat="47.21885" lon="4.94186">
        <ele>417</ele>
        <time>2019-11-21T09:05:32Z</time>
      </trkpt>
      <trkpt lat="47.2188" lon="4.94179">
        <ele>416</ele>
        <time>2019-11-21T09:05:43Z</time>
      </trkpt>
      <trkpt lat="47.21875" lon="4.9417">
        <ele>418</ele>
        <time>2019-11-21T09:05:52Z</time>
      </trkpt>
      <trkpt lat="47.21874" lon="4.94163">
        <ele>418</ele>
        <time>2019-11-21T09:05:57Z</time>
      </trkpt>
      <trkpt lat="47.21872" lon="4.94151">
        <ele>421</ele>
        <time>2019-11-21T09:06:06Z</time>
      </trkpt>
      <trkpt lat="47.21868" lon="4.94136">
        <ele>422</ele>
        <time>2019-11-21T09:06:18Z</time>
      </trkpt>
      <trkpt lat="47.21866" lon="4.94129">
        <ele>421</ele>
        <time>2019-11-21T09:06:24Z</time>
      </trkpt>
      <trkpt lat="47.21864" lon="4.94122">
        <ele>421</ele>
        <time>2019-11-21T09:06:31Z</time>
      </trkpt>
      <trkpt lat="47.2186" lon="4.94117">
        <ele>422</ele>
        <time>2019-11-21T09:06:36Z</time>
      </trkpt>
      <trkpt lat="47.21849" lon="4.94101">
        <ele>420</ele>
        <time>2019-11-21T09:06:51Z</time>
      </trkpt>
      <trkpt lat="47.21843" lon="4.94099">
        <ele>421</ele>
        <time>2019-11-21T09:06:59Z</time>
      </trkpt>
      <trkpt lat="47.21839" lon="4.94095">
        <ele>421</ele>
        <time>2019-11-21T09:07:04Z</time>
      </trkpt>
      <trkpt lat="47.21835" lon="4.94091">
        <ele>421</ele>
        <time>2019-11-21T09:07:09Z</time>
      </trkpt>
      <trkpt lat="47.21832" lon="4.94086">
        <ele>419</ele>
        <time>2019-11-21T09:07:17Z</time>
      </trkpt>
      <trkpt lat="47.21822" lon="4.94068">
        <ele>417</ele>
        <time>2019-11-21T09:07:32Z</time>
      </trkpt>
      <trkpt lat="47.21815" lon="4.94062">
        <ele>417</ele>
        <time>2019-11-21T09:07:40Z</time>
      </trkpt>
      <trkpt lat="47.2181" lon="4.9406">
        <ele>416</ele>
        <time>2019-11-21T09:07:45Z</time>
      </trkpt>
      <trkpt lat="47.21806" lon="4.94056">
        <ele>417</ele>
        <time>2019-11-21T09:07:50Z</time>
      </trkpt>
      <trkpt lat="47.21803" lon="4.94049">
        <ele>417</ele>
        <time>2019-11-21T09:07:58Z</time>
      </trkpt>
      <trkpt lat="47.21799" lon="4.94044">
        <ele>417</ele>
        <time>2019-11-21T09:08:05Z</time>
      </trkpt>
      <trkpt lat="47.21791" lon="4.94037">
        <ele>417</ele>
        <time>2019-11-21T09:08:14Z</time>
      </trkpt>
      <trkpt lat="47.21785" lon="4.94035">
        <ele>420</ele>
        <time>2019-11-21T09:08:22Z</time>
      </trkpt>
      <trkpt lat="47.2178" lon="4.94033">
        <ele>419</ele>
        <time>2019-11-21T09:08:27Z</time>
      </trkpt>
      <trkpt lat="47.21776" lon="4.94032">
        <ele>420</ele>
        <time>2019-11-21T09:08:32Z</time>
      </trkpt>
      <trkpt lat="47.21769" lon="4.94032">
        <ele>422</ele>
        <time>2019-11-21T09:08:40Z</time>
      </trkpt>
      <trkpt lat="47.21757" lon="4.94026">
        <ele>424</ele>
        <time>2019-11-21T09:08:56Z</time>
      </trkpt>
      <trkpt lat="47.21753" lon="4.94023">
        <ele>424</ele>
        <time>2019-11-21T09:09:01Z</time>
      </trkpt>
      <trkpt lat="47.21749" lon="4.94018">
        <ele>424</ele>
        <time>2019-11-21T09:09:06Z</time>
      </trkpt>
      <trkpt lat="47.21742" lon="4.94013">
        <ele>426</ele>
        <time>2019-11-21T09:09:15Z</time>
      </trkpt>
      <trkpt lat="47.21737" lon="4.94014">
        <ele>425</ele>
        <time>2019-11-21T09:09:30Z</time>
      </trkpt>
      <trkpt lat="47.21731" lon="4.94006">
        <ele>427</ele>
        <time>2019-11-21T09:10:12Z</time>
      </trkpt>
      <trkpt lat="47.2173" lon="4.93995">
        <ele>427</ele>
        <time>2019-11-21T09:10:20Z</time>
      </trkpt>
      <trkpt lat="47.21728" lon="4.93988">
        <ele>428</ele>
        <time>2019-11-21T09:10:25Z</time>
      </trkpt>
      <trkpt lat="47.21727" lon="4.9398">
        <ele>428</ele>
        <time>2019-11-21T09:10:29Z</time>
      </trkpt>
      <trkpt lat="47.21724" lon="4.93975">
        <ele>429</ele>
        <time>2019-11-21T09:10:34Z</time>
      </trkpt>
      <trkpt lat="47.21721" lon="4.93968">
        <ele>429</ele>
        <time>2019-11-21T09:10:39Z</time>
      </trkpt>
      <trkpt lat="47.2172" lon="4.93958">
        <ele>428</ele>
        <time>2019-11-21T09:10:47Z</time>
      </trkpt>
      <trkpt lat="47.21715" lon="4.93946">
        <ele>429</ele>
        <time>2019-11-21T09:10:57Z</time>
      </trkpt>
      <trkpt lat="47.2171" lon="4.93937">
        <ele>429</ele>
        <time>2019-11-21T09:11:04Z</time>
      </trkpt>
      <trkpt lat="47.21707" lon="4.93931">
        <ele>429</ele>
        <time>2019-11-21T09:11:09Z</time>
      </trkpt>
      <trkpt lat="47.21702" lon="4.93919">
        <ele>427</ele>
        <time>2019-11-21T09:11:17Z</time>
      </trkpt>
      <trkpt lat="47.21699" lon="4.93913">
        <ele>426</ele>
        <time>2019-11-21T09:11:21Z</time>
      </trkpt>
      <trkpt lat="47.21696" lon="4.93907">
        <ele>428</ele>
        <time>2019-11-21T09:11:25Z</time>
      </trkpt>
      <trkpt lat="47.21692" lon="4.93901">
        <ele>428</ele>
        <time>2019-11-21T09:11:29Z</time>
      </trkpt>
      <trkpt lat="47.21689" lon="4.93895">
        <ele>428</ele>
        <time>2019-11-21T09:11:34Z</time>
      </trkpt>
      <trkpt lat="47.21685" lon="4.93888">
        <ele>429</ele>
        <time>2019-11-21T09:11:38Z</time>
      </trkpt>
      <trkpt lat="47.21683" lon="4.93882">
        <ele>427</ele>
        <time>2019-11-21T09:11:42Z</time>
      </trkpt>
      <trkpt lat="47.21682" lon="4.93874">
        <ele>426</ele>
        <time>2019-11-21T09:11:47Z</time>
      </trkpt>
      <trkpt lat="47.21681" lon="4.93865">
        <ele>426</ele>
        <time>2019-11-21T09:11:51Z</time>
      </trkpt>
      <trkpt lat="47.21681" lon="4.93858">
        <ele>427</ele>
        <time>2019-11-21T09:11:55Z</time>
      </trkpt>
      <trkpt lat="47.2168" lon="4.9385">
        <ele>428</ele>
        <time>2019-11-21T09:12:00Z</time>
      </trkpt>
      <trkpt lat="47.21679" lon="4.93843">
        <ele>429</ele>
        <time>2019-11-21T09:12:04Z</time>
      </trkpt>
      <trkpt lat="47.21675" lon="4.93837">
        <ele>430</ele>
        <time>2019-11-21T09:12:08Z</time>
      </trkpt>
      <trkpt lat="47.21673" lon="4.9383">
        <ele>430</ele>
        <time>2019-11-21T09:12:12Z</time>
      </trkpt>
      <trkpt lat="47.2167" lon="4.93823">
        <ele>430</ele>
        <time>2019-11-21T09:12:17Z</time>
      </trkpt>
      <trkpt lat="47.2167" lon="4.93817">
        <ele>430</ele>
        <time>2019-11-21T09:12:21Z</time>
      </trkpt>
      <trkpt lat="47.21665" lon="4.93803">
        <ele>431</ele>
        <time>2019-11-21T09:12:31Z</time>
      </trkpt>
      <trkpt lat="47.21666" lon="4.93787">
        <ele>434</ele>
        <time>2019-11-21T09:12:42Z</time>
      </trkpt>
      <trkpt lat="47.21667" lon="4.9378">
        <ele>434</ele>
        <time>2019-11-21T09:12:47Z</time>
      </trkpt>
      <trkpt lat="47.21667" lon="4.93773">
        <ele>434</ele>
        <time>2019-11-21T09:12:52Z</time>
      </trkpt>
      <trkpt lat="47.21671" lon="4.93761">
        <ele>433</ele>
        <time>2019-11-21T09:13:02Z</time>
      </trkpt>
      <trkpt lat="47.21678" lon="4.93759">
        <ele>435</ele>
        <time>2019-11-21T09:13:14Z</time>
      </trkpt>
      <trkpt lat="47.21686" lon="4.93768">
        <ele>438</ele>
        <time>2019-11-21T09:13:26Z</time>
      </trkpt>
      <trkpt lat="47.2169" lon="4.93772">
        <ele>436</ele>
        <time>2019-11-21T09:13:34Z</time>
      </trkpt>
      <trkpt lat="47.21695" lon="4.9378">
        <ele>436</ele>
        <time>2019-11-21T09:13:46Z</time>
      </trkpt>
      <trkpt lat="47.21703" lon="4.9379">
        <ele>434</ele>
        <time>2019-11-21T09:13:56Z</time>
      </trkpt>
      <trkpt lat="47.21707" lon="4.93795">
        <ele>434</ele>
        <time>2019-11-21T09:14:01Z</time>
      </trkpt>
      <trkpt lat="47.2171" lon="4.93801">
        <ele>435</ele>
        <time>2019-11-21T09:14:06Z</time>
      </trkpt>
      <trkpt lat="47.21724" lon="4.9381">
        <ele>438</ele>
        <time>2019-11-21T09:14:24Z</time>
      </trkpt>
      <trkpt lat="47.21733" lon="4.93816">
        <ele>436</ele>
        <time>2019-11-21T09:14:35Z</time>
      </trkpt>
      <trkpt lat="47.21737" lon="4.93819">
        <ele>435</ele>
        <time>2019-11-21T09:14:40Z</time>
      </trkpt>
      <trkpt lat="47.21744" lon="4.93823">
        <ele>436</ele>
        <time>2019-11-21T09:14:48Z</time>
      </trkpt>
      <trkpt lat="47.21748" lon="4.93825">
        <ele>436</ele>
        <time>2019-11-21T09:14:53Z</time>
      </trkpt>
      <trkpt lat="47.21753" lon="4.93828">
        <ele>436</ele>
        <time>2019-11-21T09:14:58Z</time>
      </trkpt>
      <trkpt lat="47.21761" lon="4.93833">
        <ele>436</ele>
        <time>2019-11-21T09:15:08Z</time>
      </trkpt>
      <trkpt lat="47.21765" lon="4.93835">
        <ele>435</ele>
        <time>2019-11-21T09:15:13Z</time>
      </trkpt>
      <trkpt lat="47.2177" lon="4.93837">
        <ele>434</ele>
        <time>2019-11-21T09:15:21Z</time>
      </trkpt>
      <trkpt lat="47.2178" lon="4.93838">
        <ele>436</ele>
        <time>2019-11-21T09:15:34Z</time>
      </trkpt>
      <trkpt lat="47.21785" lon="4.93839">
        <ele>435</ele>
        <time>2019-11-21T09:15:39Z</time>
      </trkpt>
      <trkpt lat="47.21794" lon="4.93837">
        <ele>433</ele>
        <time>2019-11-21T09:15:47Z</time>
      </trkpt>
      <trkpt lat="47.21804" lon="4.93839">
        <ele>431</ele>
        <time>2019-11-21T09:15:55Z</time>
      </trkpt>
      <trkpt lat="47.21809" lon="4.93839">
        <ele>432</ele>
        <time>2019-11-21T09:15:59Z</time>
      </trkpt>
      <trkpt lat="47.21814" lon="4.9384">
        <ele>432</ele>
        <time>2019-11-21T09:16:04Z</time>
      </trkpt>
      <trkpt lat="47.21819" lon="4.93842">
        <ele>432</ele>
        <time>2019-11-21T09:16:09Z</time>
      </trkpt>
      <trkpt lat="47.21825" lon="4.93842">
        <ele>432</ele>
        <time>2019-11-21T09:16:17Z</time>
      </trkpt>
      <trkpt lat="47.21832" lon="4.93838">
        <ele>434</ele>
        <time>2019-11-21T09:16:29Z</time>
      </trkpt>
      <trkpt lat="47.21833" lon="4.93832">
        <ele>437</ele>
        <time>2019-11-21T09:16:41Z</time>
      </trkpt>
      <trkpt lat="47.21839" lon="4.93822">
        <ele>440</ele>
        <time>2019-11-21T09:16:54Z</time>
      </trkpt>
      <trkpt lat="47.21841" lon="4.93809">
        <ele>441</ele>
        <time>2019-11-21T09:17:07Z</time>
      </trkpt>
      <trkpt lat="47.21844" lon="4.93801">
        <ele>443</ele>
        <time>2019-11-21T09:17:15Z</time>
      </trkpt>
      <trkpt lat="47.21845" lon="4.93794">
        <ele>444</ele>
        <time>2019-11-21T09:17:21Z</time>
      </trkpt>
      <trkpt lat="47.21846" lon="4.93787">
        <ele>444</ele>
        <time>2019-11-21T09:17:27Z</time>
      </trkpt>
      <trkpt lat="47.21855" lon="4.93767">
        <ele>447</ele>
        <time>2019-11-21T09:17:43Z</time>
      </trkpt>
      <trkpt lat="47.21857" lon="4.93759">
        <ele>447</ele>
        <time>2019-11-21T09:17:50Z</time>
      </trkpt>
      <trkpt lat="47.21858" lon="4.93747">
        <ele>449</ele>
        <time>2019-11-21T09:18:00Z</time>
      </trkpt>
      <trkpt lat="47.21858" lon="4.9374">
        <ele>450</ele>
        <time>2019-11-21T09:18:06Z</time>
      </trkpt>
      <trkpt lat="47.21861" lon="4.93733">
        <ele>450</ele>
        <time>2019-11-21T09:18:11Z</time>
      </trkpt>
      <trkpt lat="47.21863" lon="4.93726">
        <ele>451</ele>
        <time>2019-11-21T09:18:16Z</time>
      </trkpt>
      <trkpt lat="47.21865" lon="4.93719">
        <ele>450</ele>
        <time>2019-11-21T09:18:22Z</time>
      </trkpt>
      <trkpt lat="47.2187" lon="4.93711">
        <ele>452</ele>
        <time>2019-11-21T09:18:29Z</time>
      </trkpt>
      <trkpt lat="47.21874" lon="4.937">
        <ele>453</ele>
        <time>2019-11-21T09:18:39Z</time>
      </trkpt>
      <trkpt lat="47.21876" lon="4.93693">
        <ele>453</ele>
        <time>2019-11-21T09:18:44Z</time>
      </trkpt>
      <trkpt lat="47.21878" lon="4.9368">
        <ele>453</ele>
        <time>2019-11-21T09:18:55Z</time>
      </trkpt>
      <trkpt lat="47.2188" lon="4.93674">
        <ele>453</ele>
        <time>2019-11-21T09:19:01Z</time>
      </trkpt>
      <trkpt lat="47.21883" lon="4.93667">
        <ele>453</ele>
        <time>2019-11-21T09:19:06Z</time>
      </trkpt>
      <trkpt lat="47.21886" lon="4.93661">
        <ele>453</ele>
        <time>2019-11-21T09:19:14Z</time>
      </trkpt>
      <trkpt lat="47.2189" lon="4.93657">
        <ele>453</ele>
        <time>2019-11-21T09:19:19Z</time>
      </trkpt>
      <trkpt lat="47.21894" lon="4.93651">
        <ele>453</ele>
        <time>2019-11-21T09:19:27Z</time>
      </trkpt>
      <trkpt lat="47.21902" lon="4.93633">
        <ele>452</ele>
        <time>2019-11-21T09:19:45Z</time>
      </trkpt>
      <trkpt lat="47.21904" lon="4.93628">
        <ele>453</ele>
        <time>2019-11-21T09:19:51Z</time>
      </trkpt>
      <trkpt lat="47.2191" lon="4.93617">
        <ele>453</ele>
        <time>2019-11-21T09:20:03Z</time>
      </trkpt>
      <trkpt lat="47.21913" lon="4.93611">
        <ele>453</ele>
        <time>2019-11-21T09:20:08Z</time>
      </trkpt>
      <trkpt lat="47.21921" lon="4.936">
        <ele>453</ele>
        <time>2019-11-21T09:20:22Z</time>
      </trkpt>
      <trkpt lat="47.21928" lon="4.93597">
        <ele>452</ele>
        <time>2019-11-21T09:20:27Z</time>
      </trkpt>
      <trkpt lat="47.21931" lon="4.93593">
        <ele>453</ele>
        <time>2019-11-21T09:20:31Z</time>
      </trkpt>
      <trkpt lat="47.21934" lon="4.93588">
        <ele>453</ele>
        <time>2019-11-21T09:20:36Z</time>
      </trkpt>
      <trkpt lat="47.21942" lon="4.93578">
        <ele>453</ele>
        <time>2019-11-21T09:20:45Z</time>
      </trkpt>
      <trkpt lat="47.21947" lon="4.9357">
        <ele>452</ele>
        <time>2019-11-21T09:20:53Z</time>
      </trkpt>
      <trkpt lat="47.21959" lon="4.93567">
        <ele>453</ele>
        <time>2019-11-21T09:21:06Z</time>
      </trkpt>
      <trkpt lat="47.21967" lon="4.9356">
        <ele>450</ele>
        <time>2019-11-21T09:21:16Z</time>
      </trkpt>
      <trkpt lat="47.21972" lon="4.93552">
        <ele>449</ele>
        <time>2019-11-21T09:21:25Z</time>
      </trkpt>
      <trkpt lat="47.21976" lon="4.93547">
        <ele>449</ele>
        <time>2019-11-21T09:21:29Z</time>
      </trkpt>
      <trkpt lat="47.21978" lon="4.93541">
        <ele>448</ele>
        <time>2019-11-21T09:21:34Z</time>
      </trkpt>
      <trkpt lat="47.21982" lon="4.93534">
        <ele>449</ele>
        <time>2019-11-21T09:21:40Z</time>
      </trkpt>
      <trkpt lat="47.21986" lon="4.93529">
        <ele>448</ele>
        <time>2019-11-21T09:21:45Z</time>
      </trkpt>
      <trkpt lat="47.2199" lon="4.93521">
        <ele>447</ele>
        <time>2019-11-21T09:21:52Z</time>
      </trkpt>
      <trkpt lat="47.21993" lon="4.93516">
        <ele>447</ele>
        <time>2019-11-21T09:21:57Z</time>
      </trkpt>
      <trkpt lat="47.21998" lon="4.93513">
        <ele>447</ele>
        <time>2019-11-21T09:22:01Z</time>
      </trkpt>
      <trkpt lat="47.22004" lon="4.93507">
        <ele>446</ele>
        <time>2019-11-21T09:22:11Z</time>
      </trkpt>
      <trkpt lat="47.22009" lon="4.93503">
        <ele>447</ele>
        <time>2019-11-21T09:22:17Z</time>
      </trkpt>
      <trkpt lat="47.22017" lon="4.93499">
        <ele>446</ele>
        <time>2019-11-21T09:22:28Z</time>
      </trkpt>
      <trkpt lat="47.22022" lon="4.93497">
        <ele>446</ele>
        <time>2019-11-21T09:22:32Z</time>
      </trkpt>
      <trkpt lat="47.22025" lon="4.93492">
        <ele>446</ele>
        <time>2019-11-21T09:22:37Z</time>
      </trkpt>
      <trkpt lat="47.2203" lon="4.93486">
        <ele>447</ele>
        <time>2019-11-21T09:22:44Z</time>
      </trkpt>
      <trkpt lat="47.22034" lon="4.93481">
        <ele>446</ele>
        <time>2019-11-21T09:22:48Z</time>
      </trkpt>
      <trkpt lat="47.22038" lon="4.9348">
        <ele>445</ele>
        <time>2019-11-21T09:22:51Z</time>
      </trkpt>
      <trkpt lat="47.22044" lon="4.93475">
        <ele>444</ele>
        <time>2019-11-21T09:22:58Z</time>
      </trkpt>
      <trkpt lat="47.22048" lon="4.93468">
        <ele>446</ele>
        <time>2019-11-21T09:23:05Z</time>
      </trkpt>
      <trkpt lat="47.22051" lon="4.93462">
        <ele>445</ele>
        <time>2019-11-21T09:23:10Z</time>
      </trkpt>
      <trkpt lat="47.22055" lon="4.93456">
        <ele>445</ele>
        <time>2019-11-21T09:23:15Z</time>
      </trkpt>
      <trkpt lat="47.22059" lon="4.93452">
        <ele>445</ele>
        <time>2019-11-21T09:23:19Z</time>
      </trkpt>
      <trkpt lat="47.22061" lon="4.93447">
        <ele>445</ele>
        <time>2019-11-21T09:23:24Z</time>
      </trkpt>
      <trkpt lat="47.22063" lon="4.9344">
        <ele>445</ele>
        <time>2019-11-21T09:23:29Z</time>
      </trkpt>
      <trkpt lat="47.22067" lon="4.9343">
        <ele>446</ele>
        <time>2019-11-21T09:23:39Z</time>
      </trkpt>
      <trkpt lat="47.2207" lon="4.93421">
        <ele>446</ele>
        <time>2019-11-21T09:23:47Z</time>
      </trkpt>
      <trkpt lat="47.22077" lon="4.93409">
        <ele>448</ele>
        <time>2019-11-21T09:23:59Z</time>
      </trkpt>
      <trkpt lat="47.22083" lon="4.93402">
        <ele>450</ele>
        <time>2019-11-21T09:24:10Z</time>
      </trkpt>
      <trkpt lat="47.22089" lon="4.93396">
        <ele>450</ele>
        <time>2019-11-21T09:24:22Z</time>
      </trkpt>
      <trkpt lat="47.22093" lon="4.93394">
        <ele>451</ele>
        <time>2019-11-21T09:24:28Z</time>
      </trkpt>
      <trkpt lat="47.22098" lon="4.93393">
        <ele>451</ele>
        <time>2019-11-21T09:24:34Z</time>
      </trkpt>
      <trkpt lat="47.22107" lon="4.93378">
        <ele>452</ele>
        <time>2019-11-21T09:24:53Z</time>
      </trkpt>
      <trkpt lat="47.22111" lon="4.93376">
        <ele>452</ele>
        <time>2019-11-21T09:24:58Z</time>
      </trkpt>
      <trkpt lat="47.22117" lon="4.93371">
        <ele>451</ele>
        <time>2019-11-21T09:25:03Z</time>
      </trkpt>
      <trkpt lat="47.2212" lon="4.93367">
        <ele>450</ele>
        <time>2019-11-21T09:25:07Z</time>
      </trkpt>
      <trkpt lat="47.22126" lon="4.9336">
        <ele>449</ele>
        <time>2019-11-21T09:25:18Z</time>
      </trkpt>
      <trkpt lat="47.2213" lon="4.93357">
        <ele>449</ele>
        <time>2019-11-21T09:25:22Z</time>
      </trkpt>
      <trkpt lat="47.22141" lon="4.93355">
        <ele>447</ele>
        <time>2019-11-21T09:25:36Z</time>
      </trkpt>
      <trkpt lat="47.2215" lon="4.93346">
        <ele>447</ele>
        <time>2019-11-21T09:25:49Z</time>
      </trkpt>
      <trkpt lat="47.22154" lon="4.93342">
        <ele>446</ele>
        <time>2019-11-21T09:25:53Z</time>
      </trkpt>
      <trkpt lat="47.22158" lon="4.93338">
        <ele>447</ele>
        <time>2019-11-21T09:25:57Z</time>
      </trkpt>
      <trkpt lat="47.22168" lon="4.93323">
        <ele>445</ele>
        <time>2019-11-21T09:26:13Z</time>
      </trkpt>
      <trkpt lat="47.22169" lon="4.9331">
        <ele>445</ele>
        <time>2019-11-21T09:26:27Z</time>
      </trkpt>
      <trkpt lat="47.22171" lon="4.93303">
        <ele>445</ele>
        <time>2019-11-21T09:26:33Z</time>
      </trkpt>
      <trkpt lat="47.22179" lon="4.93291">
        <ele>445</ele>
        <time>2019-11-21T09:26:44Z</time>
      </trkpt>
      <trkpt lat="47.22184" lon="4.93281">
        <ele>444</ele>
        <time>2019-11-21T09:26:54Z</time>
      </trkpt>
      <trkpt lat="47.22188" lon="4.93272">
        <ele>443</ele>
        <time>2019-11-21T09:27:02Z</time>
      </trkpt>
      <trkpt lat="47.2219" lon="4.93258">
        <ele>445</ele>
        <time>2019-11-21T09:27:16Z</time>
      </trkpt>
      <trkpt lat="47.22193" lon="4.93246">
        <ele>445</ele>
        <time>2019-11-21T09:27:27Z</time>
      </trkpt>
      <trkpt lat="47.22194" lon="4.93235">
        <ele>445</ele>
        <time>2019-11-21T09:27:35Z</time>
      </trkpt>
      <trkpt lat="47.22193" lon="4.93228">
        <ele>444</ele>
        <time>2019-11-21T09:27:40Z</time>
      </trkpt>
      <trkpt lat="47.22195" lon="4.93222">
        <ele>446</ele>
        <time>2019-11-21T09:27:45Z</time>
      </trkpt>
      <trkpt lat="47.22198" lon="4.93215">
        <ele>447</ele>
        <time>2019-11-21T09:27:50Z</time>
      </trkpt>
      <trkpt lat="47.222" lon="4.93209">
        <ele>445</ele>
        <time>2019-11-21T09:27:55Z</time>
      </trkpt>
      <trkpt lat="47.22202" lon="4.93202">
        <ele>446</ele>
        <time>2019-11-21T09:27:59Z</time>
      </trkpt>
      <trkpt lat="47.222" lon="4.93175">
        <ele>445</ele>
        <time>2019-11-21T09:28:19Z</time>
      </trkpt>
      <trkpt lat="47.22201" lon="4.93168">
        <ele>446</ele>
        <time>2019-11-21T09:28:24Z</time>
      </trkpt>
      <trkpt lat="47.22201" lon="4.9316">
        <ele>446</ele>
        <time>2019-11-21T09:28:29Z</time>
      </trkpt>
      <trkpt lat="47.22201" lon="4.93146">
        <ele>446</ele>
        <time>2019-11-21T09:28:38Z</time>
      </trkpt>
      <trkpt lat="47.222" lon="4.93132">
        <ele>447</ele>
        <time>2019-11-21T09:28:47Z</time>
      </trkpt>
      <trkpt lat="47.22205" lon="4.93113">
        <ele>444</ele>
        <time>2019-11-21T09:29:19Z</time>
      </trkpt>
      <trkpt lat="47.22207" lon="4.93104">
        <ele>443</ele>
        <time>2019-11-21T09:29:31Z</time>
      </trkpt>
      <trkpt lat="47.22212" lon="4.93096">
        <ele>442</ele>
        <time>2019-11-21T09:29:43Z</time>
      </trkpt>
      <trkpt lat="47.22213" lon="4.93088">
        <ele>441</ele>
        <time>2019-11-21T09:29:55Z</time>
      </trkpt>
      <trkpt lat="47.22217" lon="4.9308">
        <ele>439</ele>
        <time>2019-11-21T09:30:07Z</time>
      </trkpt>
      <trkpt lat="47.22218" lon="4.93069">
        <ele>437</ele>
        <time>2019-11-21T09:30:19Z</time>
      </trkpt>
      <trkpt lat="47.22213" lon="4.93058">
        <ele>436</ele>
        <time>2019-11-21T09:30:31Z</time>
      </trkpt>
      <trkpt lat="47.2221" lon="4.93048">
        <ele>434</ele>
        <time>2019-11-21T09:30:43Z</time>
      </trkpt>
      <trkpt lat="47.22204" lon="4.93033">
        <ele>433</ele>
        <time>2019-11-21T09:30:57Z</time>
      </trkpt>
      <trkpt lat="47.22203" lon="4.93025">
        <ele>433</ele>
        <time>2019-11-21T09:31:02Z</time>
      </trkpt>
      <trkpt lat="47.22206" lon="4.93018">
        <ele>432</ele>
        <time>2019-11-21T09:31:07Z</time>
      </trkpt>
      <trkpt lat="47.22209" lon="4.93013">
        <ele>433</ele>
        <time>2019-11-21T09:31:12Z</time>
      </trkpt>
      <trkpt lat="47.22225" lon="4.92996">
        <ele>428</ele>
        <time>2019-11-21T09:31:34Z</time>
      </trkpt>
      <trkpt lat="47.22226" lon="4.9299">
        <ele>428</ele>
        <time>2019-11-21T09:31:39Z</time>
      </trkpt>
      <trkpt lat="47.22232" lon="4.92985">
        <ele>429</ele>
        <time>2019-11-21T09:31:46Z</time>
      </trkpt>
      <trkpt lat="47.22237" lon="4.92981">
        <ele>429</ele>
        <time>2019-11-21T09:31:51Z</time>
      </trkpt>
      <trkpt lat="47.22244" lon="4.92974">
        <ele>429</ele>
        <time>2019-11-21T09:32:02Z</time>
      </trkpt>
      <trkpt lat="47.22251" lon="4.92967">
        <ele>429</ele>
        <time>2019-11-21T09:32:14Z</time>
      </trkpt>
      <trkpt lat="47.22255" lon="4.92961">
        <ele>428</ele>
        <time>2019-11-21T09:32:20Z</time>
      </trkpt>
      <trkpt lat="47.22259" lon="4.92952">
        <ele>427</ele>
        <time>2019-11-21T09:32:33Z</time>
      </trkpt>
      <trkpt lat="47.22262" lon="4.92937">
        <ele>426</ele>
        <time>2019-11-21T09:32:46Z</time>
      </trkpt>
      <trkpt lat="47.22265" lon="4.92928">
        <ele>427</ele>
        <time>2019-11-21T09:32:53Z</time>
      </trkpt>
      <trkpt lat="47.22266" lon="4.92917">
        <ele>427</ele>
        <time>2019-11-21T09:33:03Z</time>
      </trkpt>
      <trkpt lat="47.22267" lon="4.9291">
        <ele>428</ele>
        <time>2019-11-21T09:33:09Z</time>
      </trkpt>
      <trkpt lat="47.22268" lon="4.92903">
        <ele>427</ele>
        <time>2019-11-21T09:33:15Z</time>
      </trkpt>
      <trkpt lat="47.22271" lon="4.92898">
        <ele>427</ele>
        <time>2019-11-21T09:33:20Z</time>
      </trkpt>
      <trkpt lat="47.22271" lon="4.92889">
        <ele>426</ele>
        <time>2019-11-21T09:33:28Z</time>
      </trkpt>
      <trkpt lat="47.22272" lon="4.92875">
        <ele>427</ele>
        <time>2019-11-21T09:33:40Z</time>
      </trkpt>
      <trkpt lat="47.22273" lon="4.92868">
        <ele>427</ele>
        <time>2019-11-21T09:33:45Z</time>
      </trkpt>
      <trkpt lat="47.22274" lon="4.92857">
        <ele>426</ele>
        <time>2019-11-21T09:33:54Z</time>
      </trkpt>
      <trkpt lat="47.22273" lon="4.92842">
        <ele>428</ele>
        <time>2019-11-21T09:34:07Z</time>
      </trkpt>
      <trkpt lat="47.22271" lon="4.92834">
        <ele>428</ele>
        <time>2019-11-21T09:34:15Z</time>
      </trkpt>
      <trkpt lat="47.22274" lon="4.92827">
        <ele>428</ele>
        <time>2019-11-21T09:34:20Z</time>
      </trkpt>
      <trkpt lat="47.22276" lon="4.92822">
        <ele>428</ele>
        <time>2019-11-21T09:34:24Z</time>
      </trkpt>
      <trkpt lat="47.22279" lon="4.92813">
        <ele>429</ele>
        <time>2019-11-21T09:34:31Z</time>
      </trkpt>
      <trkpt lat="47.2228" lon="4.928">
        <ele>428</ele>
        <time>2019-11-21T09:34:42Z</time>
      </trkpt>
      <trkpt lat="47.22282" lon="4.92794">
        <ele>429</ele>
        <time>2019-11-21T09:34:47Z</time>
      </trkpt>
      <trkpt lat="47.22285" lon="4.92784">
        <ele>429</ele>
        <time>2019-11-21T09:34:54Z</time>
      </trkpt>
      <trkpt lat="47.22286" lon="4.92777">
        <ele>428</ele>
        <time>2019-11-21T09:35:08Z</time>
      </trkpt>
      <trkpt lat="47.22288" lon="4.92768">
        <ele>429</ele>
        <time>2019-11-21T09:35:26Z</time>
      </trkpt>
      <trkpt lat="47.22289" lon="4.92762">
        <ele>427</ele>
        <time>2019-11-21T09:35:44Z</time>
      </trkpt>
      <trkpt lat="47.22289" lon="4.9275">
        <ele>425</ele>
        <time>2019-11-21T09:36:02Z</time>
      </trkpt>
      <trkpt lat="47.22292" lon="4.92744">
        <ele>426</ele>
        <time>2019-11-21T09:36:07Z</time>
      </trkpt>
      <trkpt lat="47.22296" lon="4.92738">
        <ele>425</ele>
        <time>2019-11-21T09:36:11Z</time>
      </trkpt>
      <trkpt lat="47.22298" lon="4.92731">
        <ele>426</ele>
        <time>2019-11-21T09:37:07Z</time>
      </trkpt>
      <trkpt lat="47.22301" lon="4.92725">
        <ele>426</ele>
        <time>2019-11-21T09:37:12Z</time>
      </trkpt>
      <trkpt lat="47.22304" lon="4.92716">
        <ele>428</ele>
        <time>2019-11-21T09:37:20Z</time>
      </trkpt>
      <trkpt lat="47.2231" lon="4.92704">
        <ele>432</ele>
        <time>2019-11-21T09:37:28Z</time>
      </trkpt>
      <trkpt lat="47.22312" lon="4.92698">
        <ele>432</ele>
        <time>2019-11-21T09:37:33Z</time>
      </trkpt>
      <trkpt lat="47.22315" lon="4.92692">
        <ele>431</ele>
        <time>2019-11-21T09:37:38Z</time>
      </trkpt>
      <trkpt lat="47.22325" lon="4.92671">
        <ele>428</ele>
        <time>2019-11-21T09:37:56Z</time>
      </trkpt>
      <trkpt lat="47.22329" lon="4.92668">
        <ele>427</ele>
        <time>2019-11-21T09:37:59Z</time>
      </trkpt>
      <trkpt lat="47.22333" lon="4.92663">
        <ele>426</ele>
        <time>2019-11-21T09:38:03Z</time>
      </trkpt>
      <trkpt lat="47.22334" lon="4.92653">
        <ele>425</ele>
        <time>2019-11-21T09:38:12Z</time>
      </trkpt>
      <trkpt lat="47.2234" lon="4.92648">
        <ele>426</ele>
        <time>2019-11-21T09:38:22Z</time>
      </trkpt>
      <trkpt lat="47.22357" lon="4.92642">
        <ele>422</ele>
        <time>2019-11-21T09:38:44Z</time>
      </trkpt>
      <trkpt lat="47.2236" lon="4.92639">
        <ele>422</ele>
        <time>2019-11-21T09:38:49Z</time>
      </trkpt>
      <trkpt lat="47.22365" lon="4.92635">
        <ele>420</ele>
        <time>2019-11-21T09:38:58Z</time>
      </trkpt>
      <trkpt lat="47.22368" lon="4.92642">
        <ele>418</ele>
        <time>2019-11-21T09:39:10Z</time>
      </trkpt>
      <trkpt lat="47.22377" lon="4.92639">
        <ele>416</ele>
        <time>2019-11-21T09:39:40Z</time>
      </trkpt>
      <trkpt lat="47.2238" lon="4.92633">
        <ele>415</ele>
        <time>2019-11-21T09:39:45Z</time>
      </trkpt>
      <trkpt lat="47.22387" lon="4.92616">
        <ele>418</ele>
        <time>2019-11-21T09:40:26Z</time>
      </trkpt>
      <trkpt lat="47.22394" lon="4.92617">
        <ele>416</ele>
        <time>2019-11-21T09:42:07Z</time>
      </trkpt>
      <trkpt lat="47.22397" lon="4.92612">
        <ele>418</ele>
        <time>2019-11-21T09:42:16Z</time>
      </trkpt>
      <trkpt lat="47.22425" lon="4.92606">
        <ele>425</ele>
        <time>2019-11-21T09:52:28Z</time>
      </trkpt>
      <trkpt lat="47.22425" lon="4.92606">
        <ele>425</ele>
        <time>2019-11-21T09:52:28Z</time>
      </trkpt>
      <trkpt lat="47.22431" lon="4.92604">
        <ele>424</ele>
        <time>2019-11-21T09:52:33Z</time>
      </trkpt>
      <trkpt lat="47.22435" lon="4.92601">
        <ele>425</ele>
        <time>2019-11-21T09:52:37Z</time>
      </trkpt>
      <trkpt lat="47.22444" lon="4.92595">
        <ele>424</ele>
        <time>2019-11-21T09:52:46Z</time>
      </trkpt>
      <trkpt lat="47.22449" lon="4.92593">
        <ele>425</ele>
        <time>2019-11-21T09:52:51Z</time>
      </trkpt>
      <trkpt lat="47.22455" lon="4.92592">
        <ele>424</ele>
        <time>2019-11-21T09:52:58Z</time>
      </trkpt>
      <trkpt lat="47.22465" lon="4.92588">
        <ele>425</ele>
        <time>2019-11-21T09:53:07Z</time>
      </trkpt>
      <trkpt lat="47.22487" lon="4.92565">
        <ele>431</ele>
        <time>2019-11-21T09:53:33Z</time>
      </trkpt>
      <trkpt lat="47.22491" lon="4.92559">
        <ele>433</ele>
        <time>2019-11-21T09:53:38Z</time>
      </trkpt>
      <trkpt lat="47.22495" lon="4.92556">
        <ele>434</ele>
        <time>2019-11-21T09:53:42Z</time>
      </trkpt>
      <trkpt lat="47.22499" lon="4.92551">
        <ele>434</ele>
        <time>2019-11-21T09:53:46Z</time>
      </trkpt>
      <trkpt lat="47.22502" lon="4.92546">
        <ele>435</ele>
        <time>2019-11-21T09:53:50Z</time>
      </trkpt>
      <trkpt lat="47.22506" lon="4.92542">
        <ele>436</ele>
        <time>2019-11-21T09:53:53Z</time>
      </trkpt>
      <trkpt lat="47.22509" lon="4.92537">
        <ele>436</ele>
        <time>2019-11-21T09:53:57Z</time>
      </trkpt>
      <trkpt lat="47.22512" lon="4.92532">
        <ele>438</ele>
        <time>2019-11-21T09:54:02Z</time>
      </trkpt>
      <trkpt lat="47.22523" lon="4.92523">
        <ele>439</ele>
        <time>2019-11-21T09:54:15Z</time>
      </trkpt>
      <trkpt lat="47.2253" lon="4.92512">
        <ele>440</ele>
        <time>2019-11-21T09:54:24Z</time>
      </trkpt>
      <trkpt lat="47.2254" lon="4.92507">
        <ele>442</ele>
        <time>2019-11-21T09:54:32Z</time>
      </trkpt>
      <trkpt lat="47.22556" lon="4.925">
        <ele>441</ele>
        <time>2019-11-21T09:54:49Z</time>
      </trkpt>
      <trkpt lat="47.22565" lon="4.92497">
        <ele>440</ele>
        <time>2019-11-21T09:54:57Z</time>
      </trkpt>
      <trkpt lat="47.22574" lon="4.92493">
        <ele>441</ele>
        <time>2019-11-21T09:55:06Z</time>
      </trkpt>
      <trkpt lat="47.22584" lon="4.9249">
        <ele>440</ele>
        <time>2019-11-21T09:55:14Z</time>
      </trkpt>
      <trkpt lat="47.2262" lon="4.92486">
        <ele>445</ele>
        <time>2019-11-21T09:55:51Z</time>
      </trkpt>
      <trkpt lat="47.22631" lon="4.92486">
        <ele>446</ele>
        <time>2019-11-21T09:56:00Z</time>
      </trkpt>
      <trkpt lat="47.22642" lon="4.9249">
        <ele>446</ele>
        <time>2019-11-21T09:56:14Z</time>
      </trkpt>
      <trkpt lat="47.22652" lon="4.92489">
        <ele>445</ele>
        <time>2019-11-21T09:56:23Z</time>
      </trkpt>
      <trkpt lat="47.22661" lon="4.92491">
        <ele>445</ele>
        <time>2019-11-21T09:56:29Z</time>
      </trkpt>
      <trkpt lat="47.22679" lon="4.92492">
        <ele>447</ele>
        <time>2019-11-21T09:56:47Z</time>
      </trkpt>
      <trkpt lat="47.22687" lon="4.92495">
        <ele>447</ele>
        <time>2019-11-21T09:56:53Z</time>
      </trkpt>
      <trkpt lat="47.22696" lon="4.92497">
        <ele>446</ele>
        <time>2019-11-21T09:57:00Z</time>
      </trkpt>
      <trkpt lat="47.22706" lon="4.92495">
        <ele>446</ele>
        <time>2019-11-21T09:57:08Z</time>
      </trkpt>
      <trkpt lat="47.22715" lon="4.92494">
        <ele>446</ele>
        <time>2019-11-21T09:57:16Z</time>
      </trkpt>
      <trkpt lat="47.22724" lon="4.92488">
        <ele>445</ele>
        <time>2019-11-21T09:57:24Z</time>
      </trkpt>
      <trkpt lat="47.22734" lon="4.92483">
        <ele>445</ele>
        <time>2019-11-21T09:57:31Z</time>
      </trkpt>
      <trkpt lat="47.22753" lon="4.92477">
        <ele>449</ele>
        <time>2019-11-21T09:57:49Z</time>
      </trkpt>
      <trkpt lat="47.22763" lon="4.92474">
        <ele>447</ele>
        <time>2019-11-21T09:57:56Z</time>
      </trkpt>
      <trkpt lat="47.22773" lon="4.9247">
        <ele>446</ele>
        <time>2019-11-21T09:58:02Z</time>
      </trkpt>
      <trkpt lat="47.22782" lon="4.92465">
        <ele>447</ele>
        <time>2019-11-21T09:58:08Z</time>
      </trkpt>
      <trkpt lat="47.2279" lon="4.92459">
        <ele>448</ele>
        <time>2019-11-21T09:58:16Z</time>
      </trkpt>
      <trkpt lat="47.22799" lon="4.92452">
        <ele>448</ele>
        <time>2019-11-21T09:58:24Z</time>
      </trkpt>
      <trkpt lat="47.22802" lon="4.9244">
        <ele>449</ele>
        <time>2019-11-21T09:58:33Z</time>
      </trkpt>
      <trkpt lat="47.22821" lon="4.9241">
        <ele>451</ele>
        <time>2019-11-21T09:58:56Z</time>
      </trkpt>
      <trkpt lat="47.2283" lon="4.92402">
        <ele>453</ele>
        <time>2019-11-21T09:59:06Z</time>
      </trkpt>
      <trkpt lat="47.22837" lon="4.92392">
        <ele>455</ele>
        <time>2019-11-21T09:59:16Z</time>
      </trkpt>
      <trkpt lat="47.22846" lon="4.92388">
        <ele>455</ele>
        <time>2019-11-21T09:59:24Z</time>
      </trkpt>
      <trkpt lat="47.22854" lon="4.92379">
        <ele>456</ele>
        <time>2019-11-21T09:59:32Z</time>
      </trkpt>
      <trkpt lat="47.22882" lon="4.92369">
        <ele>455</ele>
        <time>2019-11-21T09:59:53Z</time>
      </trkpt>
      <trkpt lat="47.22891" lon="4.92366">
        <ele>457</ele>
        <time>2019-11-21T10:00:02Z</time>
      </trkpt>
      <trkpt lat="47.229" lon="4.92362">
        <ele>456</ele>
        <time>2019-11-21T10:00:10Z</time>
      </trkpt>
      <trkpt lat="47.22911" lon="4.92359">
        <ele>455</ele>
        <time>2019-11-21T10:00:18Z</time>
      </trkpt>
      <trkpt lat="47.2292" lon="4.92356">
        <ele>456</ele>
        <time>2019-11-21T10:00:25Z</time>
      </trkpt>
      <trkpt lat="47.22928" lon="4.9235">
        <ele>455</ele>
        <time>2019-11-21T10:00:34Z</time>
      </trkpt>
      <trkpt lat="47.2294" lon="4.92349">
        <ele>454</ele>
        <time>2019-11-21T10:00:47Z</time>
      </trkpt>
      <trkpt lat="47.22956" lon="4.92339">
        <ele>454</ele>
        <time>2019-11-21T10:01:05Z</time>
      </trkpt>
      <trkpt lat="47.22965" lon="4.9233">
        <ele>455</ele>
        <time>2019-11-21T10:01:13Z</time>
      </trkpt>
      <trkpt lat="47.22996" lon="4.92313">
        <ele>459</ele>
        <time>2019-11-21T10:01:41Z</time>
      </trkpt>
      <trkpt lat="47.23003" lon="4.92302">
        <ele>459</ele>
        <time>2019-11-21T10:01:49Z</time>
      </trkpt>
      <trkpt lat="47.23011" lon="4.92294">
        <ele>462</ele>
        <time>2019-11-21T10:01:57Z</time>
      </trkpt>
      <trkpt lat="47.23029" lon="4.92287">
        <ele>462</ele>
        <time>2019-11-21T10:02:14Z</time>
      </trkpt>
      <trkpt lat="47.23049" lon="4.9228">
        <ele>466</ele>
        <time>2019-11-21T10:02:33Z</time>
      </trkpt>
      <trkpt lat="47.23057" lon="4.92283">
        <ele>468</ele>
        <time>2019-11-21T10:02:41Z</time>
      </trkpt>
      <trkpt lat="47.23069" lon="4.92278">
        <ele>468</ele>
        <time>2019-11-21T10:02:51Z</time>
      </trkpt>
      <trkpt lat="47.23077" lon="4.9227">
        <ele>467</ele>
        <time>2019-11-21T10:02:58Z</time>
      </trkpt>
      <trkpt lat="47.231" lon="4.92249">
        <ele>468</ele>
        <time>2019-11-21T10:03:19Z</time>
      </trkpt>
      <trkpt lat="47.23109" lon="4.92238">
        <ele>471</ele>
        <time>2019-11-21T10:03:30Z</time>
      </trkpt>
      <trkpt lat="47.23119" lon="4.92225">
        <ele>471</ele>
        <time>2019-11-21T10:03:42Z</time>
      </trkpt>
      <trkpt lat="47.23129" lon="4.92219">
        <ele>471</ele>
        <time>2019-11-21T10:03:48Z</time>
      </trkpt>
      <trkpt lat="47.23146" lon="4.92208">
        <ele>473</ele>
        <time>2019-11-21T10:04:02Z</time>
      </trkpt>
      <trkpt lat="47.23154" lon="4.92199">
        <ele>476</ele>
        <time>2019-11-21T10:04:11Z</time>
      </trkpt>
      <trkpt lat="47.23162" lon="4.92193">
        <ele>476</ele>
        <time>2019-11-21T10:04:19Z</time>
      </trkpt>
      <trkpt lat="47.23189" lon="4.92187">
        <ele>477</ele>
        <time>2019-11-21T10:04:45Z</time>
      </trkpt>
      <trkpt lat="47.23198" lon="4.92184">
        <ele>476</ele>
        <time>2019-11-21T10:04:55Z</time>
      </trkpt>
      <trkpt lat="47.2321" lon="4.92184">
        <ele>475</ele>
        <time>2019-11-21T10:05:09Z</time>
      </trkpt>
      <trkpt lat="47.2322" lon="4.92185">
        <ele>475</ele>
        <time>2019-11-21T10:05:17Z</time>
      </trkpt>
      <trkpt lat="47.23229" lon="4.92187">
        <ele>475</ele>
        <time>2019-11-21T10:05:25Z</time>
      </trkpt>
      <trkpt lat="47.23238" lon="4.92187">
        <ele>474</ele>
        <time>2019-11-21T10:05:30Z</time>
      </trkpt>
      <trkpt lat="47.23248" lon="4.92187">
        <ele>476</ele>
        <time>2019-11-21T10:05:36Z</time>
      </trkpt>
      <trkpt lat="47.23258" lon="4.92189">
        <ele>476</ele>
        <time>2019-11-21T10:05:45Z</time>
      </trkpt>
      <trkpt lat="47.23267" lon="4.92191">
        <ele>476</ele>
        <time>2019-11-21T10:05:50Z</time>
      </trkpt>
      <trkpt lat="47.23286" lon="4.92187">
        <ele>474</ele>
        <time>2019-11-21T10:06:06Z</time>
      </trkpt>
      <trkpt lat="47.23295" lon="4.92187">
        <ele>475</ele>
        <time>2019-11-21T10:06:12Z</time>
      </trkpt>
      <trkpt lat="47.23304" lon="4.92182">
        <ele>477</ele>
        <time>2019-11-21T10:06:20Z</time>
      </trkpt>
      <trkpt lat="47.23314" lon="4.92179">
        <ele>477</ele>
        <time>2019-11-21T10:06:27Z</time>
      </trkpt>
      <trkpt lat="47.23323" lon="4.92174">
        <ele>478</ele>
        <time>2019-11-21T10:06:36Z</time>
      </trkpt>
      <trkpt lat="47.23338" lon="4.92157">
        <ele>478</ele>
        <time>2019-11-21T10:06:52Z</time>
      </trkpt>
      <trkpt lat="47.23345" lon="4.92146">
        <ele>478</ele>
        <time>2019-11-21T10:07:00Z</time>
      </trkpt>
      <trkpt lat="47.23351" lon="4.92133">
        <ele>480</ele>
        <time>2019-11-21T10:07:08Z</time>
      </trkpt>
      <trkpt lat="47.23357" lon="4.92124">
        <ele>479</ele>
        <time>2019-11-21T10:07:15Z</time>
      </trkpt>
      <trkpt lat="47.23363" lon="4.92114">
        <ele>480</ele>
        <time>2019-11-21T10:07:23Z</time>
      </trkpt>
      <trkpt lat="47.23393" lon="4.92077">
        <ele>482</ele>
        <time>2019-11-21T10:07:59Z</time>
      </trkpt>
      <trkpt lat="47.23401" lon="4.92068">
        <ele>481</ele>
        <time>2019-11-21T10:08:07Z</time>
      </trkpt>
      <trkpt lat="47.23407" lon="4.92056">
        <ele>480</ele>
        <time>2019-11-21T10:08:18Z</time>
      </trkpt>
      <trkpt lat="47.23412" lon="4.92061">
        <ele>472</ele>
        <time>2019-11-21T10:10:31Z</time>
      </trkpt>
      <trkpt lat="47.23419" lon="4.92066">
        <ele>471</ele>
        <time>2019-11-21T10:10:37Z</time>
      </trkpt>
      <trkpt lat="47.23426" lon="4.92068">
        <ele>473</ele>
        <time>2019-11-21T10:10:44Z</time>
      </trkpt>
      <trkpt lat="47.23431" lon="4.9207">
        <ele>472</ele>
        <time>2019-11-21T10:10:48Z</time>
      </trkpt>
      <trkpt lat="47.23437" lon="4.92073">
        <ele>474</ele>
        <time>2019-11-21T10:10:55Z</time>
      </trkpt>
      <trkpt lat="47.23442" lon="4.92075">
        <ele>473</ele>
        <time>2019-11-21T10:10:58Z</time>
      </trkpt>
      <trkpt lat="47.23448" lon="4.92079">
        <ele>476</ele>
        <time>2019-11-21T10:11:06Z</time>
      </trkpt>
      <trkpt lat="47.23455" lon="4.92086">
        <ele>476</ele>
        <time>2019-11-21T10:11:15Z</time>
      </trkpt>
      <trkpt lat="47.23459" lon="4.92089">
        <ele>477</ele>
        <time>2019-11-21T10:11:20Z</time>
      </trkpt>
      <trkpt lat="47.23464" lon="4.92091">
        <ele>477</ele>
        <time>2019-11-21T10:11:23Z</time>
      </trkpt>
      <trkpt lat="47.2347" lon="4.92095">
        <ele>478</ele>
        <time>2019-11-21T10:11:30Z</time>
      </trkpt>
      <trkpt lat="47.23474" lon="4.92099">
        <ele>479</ele>
        <time>2019-11-21T10:11:34Z</time>
      </trkpt>
      <trkpt lat="47.23478" lon="4.92104">
        <ele>479</ele>
        <time>2019-11-21T10:11:39Z</time>
      </trkpt>
      <trkpt lat="47.23481" lon="4.92108">
        <ele>481</ele>
        <time>2019-11-21T10:11:44Z</time>
      </trkpt>
      <trkpt lat="47.23486" lon="4.9211">
        <ele>481</ele>
        <time>2019-11-21T10:11:49Z</time>
      </trkpt>
      <trkpt lat="47.23489" lon="4.92115">
        <ele>482</ele>
        <time>2019-11-21T10:11:54Z</time>
      </trkpt>
      <trkpt lat="47.23493" lon="4.92119">
        <ele>482</ele>
        <time>2019-11-21T10:11:59Z</time>
      </trkpt>
      <trkpt lat="47.23508" lon="4.92126">
        <ele>485</ele>
        <time>2019-11-21T10:12:15Z</time>
      </trkpt>
      <trkpt lat="47.23514" lon="4.92127">
        <ele>486</ele>
        <time>2019-11-21T10:12:23Z</time>
      </trkpt>
      <trkpt lat="47.23519" lon="4.92129">
        <ele>487</ele>
        <time>2019-11-21T10:12:27Z</time>
      </trkpt>
      <trkpt lat="47.23525" lon="4.9213">
        <ele>487</ele>
        <time>2019-11-21T10:12:32Z</time>
      </trkpt>
      <trkpt lat="47.2353" lon="4.92132">
        <ele>487</ele>
        <time>2019-11-21T10:12:36Z</time>
      </trkpt>
      <trkpt lat="47.23541" lon="4.92139">
        <ele>491</ele>
        <time>2019-11-21T10:12:50Z</time>
      </trkpt>
      <trkpt lat="47.23545" lon="4.92142">
        <ele>491</ele>
        <time>2019-11-21T10:12:55Z</time>
      </trkpt>
      <trkpt lat="47.2355" lon="4.92144">
        <ele>492</ele>
        <time>2019-11-21T10:13:00Z</time>
      </trkpt>
      <trkpt lat="47.23555" lon="4.92146">
        <ele>492</ele>
        <time>2019-11-21T10:13:04Z</time>
      </trkpt>
      <trkpt lat="47.23561" lon="4.92148">
        <ele>493</ele>
        <time>2019-11-21T10:13:11Z</time>
      </trkpt>
      <trkpt lat="47.23569" lon="4.92149">
        <ele>493</ele>
        <time>2019-11-21T10:13:19Z</time>
      </trkpt>
      <trkpt lat="47.23574" lon="4.9215">
        <ele>494</ele>
        <time>2019-11-21T10:13:23Z</time>
      </trkpt>
      <trkpt lat="47.23584" lon="4.92155">
        <ele>496</ele>
        <time>2019-11-21T10:13:31Z</time>
      </trkpt>
      <trkpt lat="47.23588" lon="4.92155">
        <ele>496</ele>
        <time>2019-11-21T10:13:36Z</time>
      </trkpt>
      <trkpt lat="47.23595" lon="4.92156">
        <ele>496</ele>
        <time>2019-11-21T10:13:44Z</time>
      </trkpt>
      <trkpt lat="47.23605" lon="4.92158">
        <ele>498</ele>
        <time>2019-11-21T10:13:52Z</time>
      </trkpt>
      <trkpt lat="47.23609" lon="4.9216">
        <ele>498</ele>
        <time>2019-11-21T10:13:56Z</time>
      </trkpt>
      <trkpt lat="47.23622" lon="4.92171">
        <ele>500</ele>
        <time>2019-11-21T10:14:10Z</time>
      </trkpt>
      <trkpt lat="47.23626" lon="4.9218">
        <ele>501</ele>
        <time>2019-11-21T10:14:18Z</time>
      </trkpt>
      <trkpt lat="47.23636" lon="4.9219">
        <ele>502</ele>
        <time>2019-11-21T10:14:34Z</time>
      </trkpt>
      <trkpt lat="47.23642" lon="4.92192">
        <ele>504</ele>
        <time>2019-11-21T10:14:41Z</time>
      </trkpt>
      <trkpt lat="47.23648" lon="4.92193">
        <ele>504</ele>
        <time>2019-11-21T10:14:45Z</time>
      </trkpt>
      <trkpt lat="47.23653" lon="4.92194">
        <ele>503</ele>
        <time>2019-11-21T10:14:49Z</time>
      </trkpt>
      <trkpt lat="47.23657" lon="4.92193">
        <ele>504</ele>
        <time>2019-11-21T10:14:53Z</time>
      </trkpt>
      <trkpt lat="47.23663" lon="4.92191">
        <ele>504</ele>
        <time>2019-11-21T10:15:01Z</time>
      </trkpt>
      <trkpt lat="47.23668" lon="4.92194">
        <ele>504</ele>
        <time>2019-11-21T10:15:08Z</time>
      </trkpt>
      <trkpt lat="47.23674" lon="4.92203">
        <ele>504</ele>
        <time>2019-11-21T10:15:19Z</time>
      </trkpt>
      <trkpt lat="47.23678" lon="4.9221">
        <ele>505</ele>
        <time>2019-11-21T10:15:26Z</time>
      </trkpt>
      <trkpt lat="47.23687" lon="4.92216">
        <ele>504</ele>
        <time>2019-11-21T10:15:35Z</time>
      </trkpt>
      <trkpt lat="47.23691" lon="4.92214">
        <ele>505</ele>
        <time>2019-11-21T10:15:39Z</time>
      </trkpt>
      <trkpt lat="47.23694" lon="4.92208">
        <ele>506</ele>
        <time>2019-11-21T10:15:43Z</time>
      </trkpt>
      <trkpt lat="47.23697" lon="4.92202">
        <ele>505</ele>
        <time>2019-11-21T10:15:48Z</time>
      </trkpt>
      <trkpt lat="47.23699" lon="4.92197">
        <ele>506</ele>
        <time>2019-11-21T10:15:52Z</time>
      </trkpt>
      <trkpt lat="47.23705" lon="4.92186">
        <ele>506</ele>
        <time>2019-11-21T10:16:02Z</time>
      </trkpt>
      <trkpt lat="47.23709" lon="4.92184">
        <ele>507</ele>
        <time>2019-11-21T10:16:06Z</time>
      </trkpt>
      <trkpt lat="47.23714" lon="4.92182">
        <ele>507</ele>
        <time>2019-11-21T10:16:10Z</time>
      </trkpt>
      <trkpt lat="47.23719" lon="4.9218">
        <ele>507</ele>
        <time>2019-11-21T10:16:15Z</time>
      </trkpt>
      <trkpt lat="47.23725" lon="4.92178">
        <ele>508</ele>
        <time>2019-11-21T10:16:24Z</time>
      </trkpt>
      <trkpt lat="47.2373" lon="4.92176">
        <ele>506</ele>
        <time>2019-11-21T10:16:29Z</time>
      </trkpt>
      <trkpt lat="47.23735" lon="4.92175">
        <ele>506</ele>
        <time>2019-11-21T10:16:33Z</time>
      </trkpt>
      <trkpt lat="47.2374" lon="4.92173">
        <ele>507</ele>
        <time>2019-11-21T10:16:37Z</time>
      </trkpt>
      <trkpt lat="47.2375" lon="4.92167">
        <ele>508</ele>
        <time>2019-11-21T10:16:50Z</time>
      </trkpt>
      <trkpt lat="47.23756" lon="4.92166">
        <ele>509</ele>
        <time>2019-11-21T10:16:54Z</time>
      </trkpt>
      <trkpt lat="47.23765" lon="4.92167">
        <ele>511</ele>
        <time>2019-11-21T10:17:01Z</time>
      </trkpt>
      <trkpt lat="47.23773" lon="4.92165">
        <ele>511</ele>
        <time>2019-11-21T10:17:12Z</time>
      </trkpt>
      <trkpt lat="47.23779" lon="4.92161">
        <ele>511</ele>
        <time>2019-11-21T10:17:17Z</time>
      </trkpt>
      <trkpt lat="47.23783" lon="4.92158">
        <ele>511</ele>
        <time>2019-11-21T10:17:21Z</time>
      </trkpt>
      <trkpt lat="47.23787" lon="4.92154">
        <ele>511</ele>
        <time>2019-11-21T10:17:25Z</time>
      </trkpt>
      <trkpt lat="47.23793" lon="4.92152">
        <ele>511</ele>
        <time>2019-11-21T10:17:29Z</time>
      </trkpt>
      <trkpt lat="47.23796" lon="4.92148">
        <ele>511</ele>
        <time>2019-11-21T10:17:34Z</time>
      </trkpt>
      <trkpt lat="47.23807" lon="4.92144">
        <ele>510</ele>
        <time>2019-11-21T10:17:43Z</time>
      </trkpt>
      <trkpt lat="47.23811" lon="4.9214">
        <ele>510</ele>
        <time>2019-11-21T10:17:46Z</time>
      </trkpt>
      <trkpt lat="47.23815" lon="4.92132">
        <ele>513</ele>
        <time>2019-11-21T10:17:53Z</time>
      </trkpt>
      <trkpt lat="47.23819" lon="4.92131">
        <ele>513</ele>
        <time>2019-11-21T10:17:57Z</time>
      </trkpt>
      <trkpt lat="47.23824" lon="4.92131">
        <ele>514</ele>
        <time>2019-11-21T10:18:02Z</time>
      </trkpt>
      <trkpt lat="47.2383" lon="4.92133">
        <ele>515</ele>
        <time>2019-11-21T10:18:51Z</time>
      </trkpt>
      <trkpt lat="47.23837" lon="4.92138">
        <ele>514</ele>
        <time>2019-11-21T10:20:04Z</time>
      </trkpt>
      <trkpt lat="47.23846" lon="4.92144">
        <ele>515</ele>
        <time>2019-11-21T10:20:12Z</time>
      </trkpt>
      <trkpt lat="47.23851" lon="4.92147">
        <ele>515</ele>
        <time>2019-11-21T10:20:17Z</time>
      </trkpt>
      <trkpt lat="47.23855" lon="4.9215">
        <ele>515</ele>
        <time>2019-11-21T10:20:21Z</time>
      </trkpt>
      <trkpt lat="47.23859" lon="4.92153">
        <ele>515</ele>
        <time>2019-11-21T10:20:26Z</time>
      </trkpt>
      <trkpt lat="47.23868" lon="4.9216">
        <ele>515</ele>
        <time>2019-11-21T10:20:35Z</time>
      </trkpt>
      <trkpt lat="47.23888" lon="4.92182">
        <ele>515</ele>
        <time>2019-11-21T10:20:55Z</time>
      </trkpt>
      <trkpt lat="47.23902" lon="4.92203">
        <ele>516</ele>
        <time>2019-11-21T10:21:11Z</time>
      </trkpt>
      <trkpt lat="47.23905" lon="4.92208">
        <ele>515</ele>
        <time>2019-11-21T10:21:15Z</time>
      </trkpt>
      <trkpt lat="47.23908" lon="4.92213">
        <ele>516</ele>
        <time>2019-11-21T10:21:19Z</time>
      </trkpt>
      <trkpt lat="47.23914" lon="4.92224">
        <ele>516</ele>
        <time>2019-11-21T10:21:27Z</time>
      </trkpt>
      <trkpt lat="47.2392" lon="4.92232">
        <ele>517</ele>
        <time>2019-11-21T10:21:34Z</time>
      </trkpt>
      <trkpt lat="47.23923" lon="4.92238">
        <ele>516</ele>
        <time>2019-11-21T10:21:38Z</time>
      </trkpt>
      <trkpt lat="47.23936" lon="4.92261">
        <ele>517</ele>
        <time>2019-11-21T10:21:55Z</time>
      </trkpt>
      <trkpt lat="47.23943" lon="4.92272">
        <ele>517</ele>
        <time>2019-11-21T10:22:03Z</time>
      </trkpt>
      <trkpt lat="47.23954" lon="4.92289">
        <ele>518</ele>
        <time>2019-11-21T10:22:15Z</time>
      </trkpt>
      <trkpt lat="47.23958" lon="4.92294">
        <ele>517</ele>
        <time>2019-11-21T10:22:20Z</time>
      </trkpt>
      <trkpt lat="47.23964" lon="4.92305">
        <ele>516</ele>
        <time>2019-11-21T10:22:29Z</time>
      </trkpt>
      <trkpt lat="47.23971" lon="4.92317">
        <ele>518</ele>
        <time>2019-11-21T10:22:37Z</time>
      </trkpt>
      <trkpt lat="47.23991" lon="4.92353">
        <ele>519</ele>
        <time>2019-11-21T10:23:05Z</time>
      </trkpt>
      <trkpt lat="47.23994" lon="4.92359">
        <ele>520</ele>
        <time>2019-11-21T10:23:09Z</time>
      </trkpt>
      <trkpt lat="47.23997" lon="4.92366">
        <ele>520</ele>
        <time>2019-11-21T10:23:13Z</time>
      </trkpt>
      <trkpt lat="47.24" lon="4.92373">
        <ele>520</ele>
        <time>2019-11-21T10:23:17Z</time>
      </trkpt>
      <trkpt lat="47.24002" lon="4.92379">
        <ele>519</ele>
        <time>2019-11-21T10:23:21Z</time>
      </trkpt>
      <trkpt lat="47.24004" lon="4.9239">
        <ele>518</ele>
        <time>2019-11-21T10:25:41Z</time>
      </trkpt>
      <trkpt lat="47.24005" lon="4.92398">
        <ele>519</ele>
        <time>2019-11-21T10:25:46Z</time>
      </trkpt>
      <trkpt lat="47.24008" lon="4.92404">
        <ele>518</ele>
        <time>2019-11-21T10:25:51Z</time>
      </trkpt>
      <trkpt lat="47.24011" lon="4.92411">
        <ele>519</ele>
        <time>2019-11-21T10:25:56Z</time>
      </trkpt>
      <trkpt lat="47.24012" lon="4.92418">
        <ele>520</ele>
        <time>2019-11-21T10:26:00Z</time>
      </trkpt>
      <trkpt lat="47.24013" lon="4.9244">
        <ele>521</ele>
        <time>2019-11-21T10:26:13Z</time>
      </trkpt>
      <trkpt lat="47.24012" lon="4.92447">
        <ele>521</ele>
        <time>2019-11-21T10:26:17Z</time>
      </trkpt>
      <trkpt lat="47.2401" lon="4.92461">
        <ele>521</ele>
        <time>2019-11-21T10:26:25Z</time>
      </trkpt>
      <trkpt lat="47.24007" lon="4.92467">
        <ele>521</ele>
        <time>2019-11-21T10:26:29Z</time>
      </trkpt>
      <trkpt lat="47.24004" lon="4.92473">
        <ele>520</ele>
        <time>2019-11-21T10:26:34Z</time>
      </trkpt>
      <trkpt lat="47.23995" lon="4.92482">
        <ele>520</ele>
        <time>2019-11-21T10:26:42Z</time>
      </trkpt>
      <trkpt lat="47.23985" lon="4.92487">
        <ele>519</ele>
        <time>2019-11-21T10:26:50Z</time>
      </trkpt>
      <trkpt lat="47.23976" lon="4.92491">
        <ele>520</ele>
        <time>2019-11-21T10:26:58Z</time>
      </trkpt>
      <trkpt lat="47.23966" lon="4.92498">
        <ele>520</ele>
        <time>2019-11-21T10:27:10Z</time>
      </trkpt>
      <trkpt lat="47.23961" lon="4.92499">
        <ele>520</ele>
        <time>2019-11-21T10:27:15Z</time>
      </trkpt>
      <trkpt lat="47.23947" lon="4.92509">
        <ele>519</ele>
        <time>2019-11-21T10:27:25Z</time>
      </trkpt>
      <trkpt lat="47.23932" lon="4.92518">
        <ele>520</ele>
        <time>2019-11-21T10:27:37Z</time>
      </trkpt>
      <trkpt lat="47.23928" lon="4.92522">
        <ele>520</ele>
        <time>2019-11-21T10:27:41Z</time>
      </trkpt>
      <trkpt lat="47.23923" lon="4.92525">
        <ele>520</ele>
        <time>2019-11-21T10:27:45Z</time>
      </trkpt>
      <trkpt lat="47.23914" lon="4.92532">
        <ele>520</ele>
        <time>2019-11-21T10:27:53Z</time>
      </trkpt>
      <trkpt lat="47.2391" lon="4.92538">
        <ele>520</ele>
        <time>2019-11-21T10:27:58Z</time>
      </trkpt>
      <trkpt lat="47.23905" lon="4.92541">
        <ele>521</ele>
        <time>2019-11-21T10:28:02Z</time>
      </trkpt>
      <trkpt lat="47.23896" lon="4.92548">
        <ele>521</ele>
        <time>2019-11-21T10:28:10Z</time>
      </trkpt>
      <trkpt lat="47.23889" lon="4.92553">
        <ele>522</ele>
        <time>2019-11-21T10:28:21Z</time>
      </trkpt>
      <trkpt lat="47.23883" lon="4.92555">
        <ele>522</ele>
        <time>2019-11-21T10:28:26Z</time>
      </trkpt>
      <trkpt lat="47.23879" lon="4.92556">
        <ele>522</ele>
        <time>2019-11-21T10:28:29Z</time>
      </trkpt>
      <trkpt lat="47.23873" lon="4.92558">
        <ele>522</ele>
        <time>2019-11-21T10:28:34Z</time>
      </trkpt>
      <trkpt lat="47.23861" lon="4.92561">
        <ele>521</ele>
        <time>2019-11-21T10:28:42Z</time>
      </trkpt>
      <trkpt lat="47.23851" lon="4.92561">
        <ele>521</ele>
        <time>2019-11-21T10:28:50Z</time>
      </trkpt>
      <trkpt lat="47.23846" lon="4.92559">
        <ele>521</ele>
        <time>2019-11-21T10:28:55Z</time>
      </trkpt>
      <trkpt lat="47.23835" lon="4.92559">
        <ele>519</ele>
        <time>2019-11-21T10:29:04Z</time>
      </trkpt>
      <trkpt lat="47.2382" lon="4.92557">
        <ele>519</ele>
        <time>2019-11-21T10:29:17Z</time>
      </trkpt>
      <trkpt lat="47.23805" lon="4.9256">
        <ele>520</ele>
        <time>2019-11-21T10:29:30Z</time>
      </trkpt>
      <trkpt lat="47.23784" lon="4.92556">
        <ele>520</ele>
        <time>2019-11-21T10:29:45Z</time>
      </trkpt>
      <trkpt lat="47.23777" lon="4.92556">
        <ele>521</ele>
        <time>2019-11-21T10:29:52Z</time>
      </trkpt>
      <trkpt lat="47.23767" lon="4.92555">
        <ele>520</ele>
        <time>2019-11-21T10:30:00Z</time>
      </trkpt>
      <trkpt lat="47.23764" lon="4.92566">
        <ele>518</ele>
        <time>2019-11-21T10:30:10Z</time>
      </trkpt>
      <trkpt lat="47.23764" lon="4.92573">
        <ele>517</ele>
        <time>2019-11-21T10:30:14Z</time>
      </trkpt>
      <trkpt lat="47.23766" lon="4.92582">
        <ele>516</ele>
        <time>2019-11-21T10:30:21Z</time>
      </trkpt>
      <trkpt lat="47.23768" lon="4.92588">
        <ele>517</ele>
        <time>2019-11-21T10:30:25Z</time>
      </trkpt>
      <trkpt lat="47.23769" lon="4.92595">
        <ele>517</ele>
        <time>2019-11-21T10:30:30Z</time>
      </trkpt>
      <trkpt lat="47.23768" lon="4.92602">
        <ele>517</ele>
        <time>2019-11-21T10:30:34Z</time>
      </trkpt>
      <trkpt lat="47.23769" lon="4.92609">
        <ele>518</ele>
        <time>2019-11-21T10:30:39Z</time>
      </trkpt>
      <trkpt lat="47.23773" lon="4.92628">
        <ele>516</ele>
        <time>2019-11-21T10:30:52Z</time>
      </trkpt>
      <trkpt lat="47.23777" lon="4.92634">
        <ele>516</ele>
        <time>2019-11-21T10:30:57Z</time>
      </trkpt>
      <trkpt lat="47.23779" lon="4.92641">
        <ele>515</ele>
        <time>2019-11-21T10:31:02Z</time>
      </trkpt>
      <trkpt lat="47.23782" lon="4.92646">
        <ele>515</ele>
        <time>2019-11-21T10:31:06Z</time>
      </trkpt>
      <trkpt lat="47.23787" lon="4.92671">
        <ele>515</ele>
        <time>2019-11-21T10:31:21Z</time>
      </trkpt>
      <trkpt lat="47.23787" lon="4.92678">
        <ele>515</ele>
        <time>2019-11-21T10:31:26Z</time>
      </trkpt>
      <trkpt lat="47.2379" lon="4.92698">
        <ele>514</ele>
        <time>2019-11-21T10:31:38Z</time>
      </trkpt>
      <trkpt lat="47.23791" lon="4.92708">
        <ele>514</ele>
        <time>2019-11-21T10:31:42Z</time>
      </trkpt>
      <trkpt lat="47.23794" lon="4.92715">
        <ele>514</ele>
        <time>2019-11-21T10:31:45Z</time>
      </trkpt>
      <trkpt lat="47.23797" lon="4.92721">
        <ele>514</ele>
        <time>2019-11-21T10:31:48Z</time>
      </trkpt>
      <trkpt lat="47.23799" lon="4.92736">
        <ele>514</ele>
        <time>2019-11-21T10:31:56Z</time>
      </trkpt>
      <trkpt lat="47.23798" lon="4.92744">
        <ele>514</ele>
        <time>2019-11-21T10:32:00Z</time>
      </trkpt>
      <trkpt lat="47.23799" lon="4.92751">
        <ele>513</ele>
        <time>2019-11-21T10:32:04Z</time>
      </trkpt>
      <trkpt lat="47.23799" lon="4.92762">
        <ele>513</ele>
        <time>2019-11-21T10:32:11Z</time>
      </trkpt>
      <trkpt lat="47.23799" lon="4.92769">
        <ele>513</ele>
        <time>2019-11-21T10:32:15Z</time>
      </trkpt>
      <trkpt lat="47.23799" lon="4.92776">
        <ele>514</ele>
        <time>2019-11-21T10:32:18Z</time>
      </trkpt>
      <trkpt lat="47.23805" lon="4.92787">
        <ele>515</ele>
        <time>2019-11-21T10:32:26Z</time>
      </trkpt>
      <trkpt lat="47.23809" lon="4.92801">
        <ele>515</ele>
        <time>2019-11-21T10:32:34Z</time>
      </trkpt>
      <trkpt lat="47.23816" lon="4.9281">
        <ele>515</ele>
        <time>2019-11-21T10:32:40Z</time>
      </trkpt>
      <trkpt lat="47.23821" lon="4.92818">
        <ele>514</ele>
        <time>2019-11-21T10:32:46Z</time>
      </trkpt>
      <trkpt lat="47.23824" lon="4.92825">
        <ele>514</ele>
        <time>2019-11-21T10:32:50Z</time>
      </trkpt>
      <trkpt lat="47.23829" lon="4.92832">
        <ele>514</ele>
        <time>2019-11-21T10:32:58Z</time>
      </trkpt>
      <trkpt lat="47.23832" lon="4.92837">
        <ele>513</ele>
        <time>2019-11-21T10:33:03Z</time>
      </trkpt>
      <trkpt lat="47.23832" lon="4.92845">
        <ele>512</ele>
        <time>2019-11-21T10:33:08Z</time>
      </trkpt>
      <trkpt lat="47.23831" lon="4.92852">
        <ele>512</ele>
        <time>2019-11-21T10:33:13Z</time>
      </trkpt>
      <trkpt lat="47.23835" lon="4.92858">
        <ele>511</ele>
        <time>2019-11-21T10:33:18Z</time>
      </trkpt>
      <trkpt lat="47.23837" lon="4.92865">
        <ele>511</ele>
        <time>2019-11-21T10:33:23Z</time>
      </trkpt>
      <trkpt lat="47.23839" lon="4.92872">
        <ele>511</ele>
        <time>2019-11-21T10:33:28Z</time>
      </trkpt>
      <trkpt lat="47.23838" lon="4.92888">
        <ele>511</ele>
        <time>2019-11-21T10:33:36Z</time>
      </trkpt>
      <trkpt lat="47.2384" lon="4.92909">
        <ele>508</ele>
        <time>2019-11-21T10:33:48Z</time>
      </trkpt>
      <trkpt lat="47.23839" lon="4.92916">
        <ele>508</ele>
        <time>2019-11-21T10:33:53Z</time>
      </trkpt>
      <trkpt lat="47.23841" lon="4.92923">
        <ele>507</ele>
        <time>2019-11-21T10:33:57Z</time>
      </trkpt>
      <trkpt lat="47.23841" lon="4.9293">
        <ele>507</ele>
        <time>2019-11-21T10:34:02Z</time>
      </trkpt>
      <trkpt lat="47.23839" lon="4.92937">
        <ele>507</ele>
        <time>2019-11-21T10:34:06Z</time>
      </trkpt>
      <trkpt lat="47.23838" lon="4.92944">
        <ele>506</ele>
        <time>2019-11-21T10:34:10Z</time>
      </trkpt>
      <trkpt lat="47.2384" lon="4.92951">
        <ele>507</ele>
        <time>2019-11-21T10:34:15Z</time>
      </trkpt>
      <trkpt lat="47.23839" lon="4.92959">
        <ele>506</ele>
        <time>2019-11-21T10:34:19Z</time>
      </trkpt>
      <trkpt lat="47.23838" lon="4.92965">
        <ele>506</ele>
        <time>2019-11-21T10:34:23Z</time>
      </trkpt>
      <trkpt lat="47.23841" lon="4.9298">
        <ele>506</ele>
        <time>2019-11-21T10:34:32Z</time>
      </trkpt>
      <trkpt lat="47.23841" lon="4.92987">
        <ele>505</ele>
        <time>2019-11-21T10:34:37Z</time>
      </trkpt>
      <trkpt lat="47.23842" lon="4.92994">
        <ele>505</ele>
        <time>2019-11-21T10:34:42Z</time>
      </trkpt>
      <trkpt lat="47.23841" lon="4.93001">
        <ele>506</ele>
        <time>2019-11-21T10:34:46Z</time>
      </trkpt>
      <trkpt lat="47.23841" lon="4.93008">
        <ele>506</ele>
        <time>2019-11-21T10:34:50Z</time>
      </trkpt>
      <trkpt lat="47.23842" lon="4.9302">
        <ele>507</ele>
        <time>2019-11-21T10:34:59Z</time>
      </trkpt>
      <trkpt lat="47.23843" lon="4.93028">
        <ele>506</ele>
        <time>2019-11-21T10:35:04Z</time>
      </trkpt>
      <trkpt lat="47.2384" lon="4.93042">
        <ele>506</ele>
        <time>2019-11-21T10:35:12Z</time>
      </trkpt>
      <trkpt lat="47.23841" lon="4.93048">
        <ele>506</ele>
        <time>2019-11-21T10:35:17Z</time>
      </trkpt>
      <trkpt lat="47.23837" lon="4.93063">
        <ele>507</ele>
        <time>2019-11-21T10:35:27Z</time>
      </trkpt>
      <trkpt lat="47.23835" lon="4.9307">
        <ele>507</ele>
        <time>2019-11-21T10:35:31Z</time>
      </trkpt>
      <trkpt lat="47.23833" lon="4.93077">
        <ele>507</ele>
        <time>2019-11-21T10:35:36Z</time>
      </trkpt>
      <trkpt lat="47.23827" lon="4.93091">
        <ele>507</ele>
        <time>2019-11-21T10:35:42Z</time>
      </trkpt>
      <trkpt lat="47.23825" lon="4.93097">
        <ele>507</ele>
        <time>2019-11-21T10:35:45Z</time>
      </trkpt>
      <trkpt lat="47.23822" lon="4.93102">
        <ele>507</ele>
        <time>2019-11-21T10:35:48Z</time>
      </trkpt>
      <trkpt lat="47.23822" lon="4.9311">
        <ele>508</ele>
        <time>2019-11-21T10:35:53Z</time>
      </trkpt>
      <trkpt lat="47.23823" lon="4.93118">
        <ele>507</ele>
        <time>2019-11-21T10:35:58Z</time>
      </trkpt>
      <trkpt lat="47.23822" lon="4.93125">
        <ele>508</ele>
        <time>2019-11-21T10:36:03Z</time>
      </trkpt>
      <trkpt lat="47.2382" lon="4.93132">
        <ele>508</ele>
        <time>2019-11-21T10:36:07Z</time>
      </trkpt>
      <trkpt lat="47.23819" lon="4.93138">
        <ele>508</ele>
        <time>2019-11-21T10:36:11Z</time>
      </trkpt>
      <trkpt lat="47.23816" lon="4.93156">
        <ele>508</ele>
        <time>2019-11-21T10:36:21Z</time>
      </trkpt>
      <trkpt lat="47.23812" lon="4.93183">
        <ele>510</ele>
        <time>2019-11-21T10:36:39Z</time>
      </trkpt>
      <trkpt lat="47.23809" lon="4.93198">
        <ele>509</ele>
        <time>2019-11-21T10:36:47Z</time>
      </trkpt>
      <trkpt lat="47.23802" lon="4.93208">
        <ele>510</ele>
        <time>2019-11-21T10:36:53Z</time>
      </trkpt>
      <trkpt lat="47.23801" lon="4.93222">
        <ele>510</ele>
        <time>2019-11-21T10:37:00Z</time>
      </trkpt>
      <trkpt lat="47.23802" lon="4.93236">
        <ele>510</ele>
        <time>2019-11-21T10:37:08Z</time>
      </trkpt>
      <trkpt lat="47.238" lon="4.93272">
        <ele>509</ele>
        <time>2019-11-21T10:37:35Z</time>
      </trkpt>
      <trkpt lat="47.23798" lon="4.9328">
        <ele>509</ele>
        <time>2019-11-21T10:37:39Z</time>
      </trkpt>
      <trkpt lat="47.23794" lon="4.93293">
        <ele>511</ele>
        <time>2019-11-21T10:37:47Z</time>
      </trkpt>
      <trkpt lat="47.23791" lon="4.93301">
        <ele>510</ele>
        <time>2019-11-21T10:37:51Z</time>
      </trkpt>
      <trkpt lat="47.23789" lon="4.93309">
        <ele>510</ele>
        <time>2019-11-21T10:37:55Z</time>
      </trkpt>
      <trkpt lat="47.23786" lon="4.93322">
        <ele>510</ele>
        <time>2019-11-21T10:38:04Z</time>
      </trkpt>
      <trkpt lat="47.23784" lon="4.93327">
        <ele>510</ele>
        <time>2019-11-21T10:38:07Z</time>
      </trkpt>
      <trkpt lat="47.23781" lon="4.93334">
        <ele>510</ele>
        <time>2019-11-21T10:38:11Z</time>
      </trkpt>
      <trkpt lat="47.23777" lon="4.93341">
        <ele>510</ele>
        <time>2019-11-21T10:38:15Z</time>
      </trkpt>
      <trkpt lat="47.23775" lon="4.93347">
        <ele>510</ele>
        <time>2019-11-21T10:38:19Z</time>
      </trkpt>
      <trkpt lat="47.23773" lon="4.93354">
        <ele>510</ele>
        <time>2019-11-21T10:38:24Z</time>
      </trkpt>
      <trkpt lat="47.23771" lon="4.93361">
        <ele>511</ele>
        <time>2019-11-21T10:38:29Z</time>
      </trkpt>
      <trkpt lat="47.23768" lon="4.93373">
        <ele>510</ele>
        <time>2019-11-21T10:38:36Z</time>
      </trkpt>
      <trkpt lat="47.23766" lon="4.93383">
        <ele>511</ele>
        <time>2019-11-21T10:38:43Z</time>
      </trkpt>
      <trkpt lat="47.23764" lon="4.9339">
        <ele>511</ele>
        <time>2019-11-21T10:38:47Z</time>
      </trkpt>
      <trkpt lat="47.23761" lon="4.93397">
        <ele>511</ele>
        <time>2019-11-21T10:38:50Z</time>
      </trkpt>
      <trkpt lat="47.23755" lon="4.9341">
        <ele>511</ele>
        <time>2019-11-21T10:38:57Z</time>
      </trkpt>
      <trkpt lat="47.23755" lon="4.93424">
        <ele>510</ele>
        <time>2019-11-21T10:39:05Z</time>
      </trkpt>
      <trkpt lat="47.2375" lon="4.93437">
        <ele>509</ele>
        <time>2019-11-21T10:39:14Z</time>
      </trkpt>
      <trkpt lat="47.23746" lon="4.93448">
        <ele>509</ele>
        <time>2019-11-21T10:39:20Z</time>
      </trkpt>
      <trkpt lat="47.23744" lon="4.93464">
        <ele>508</ele>
        <time>2019-11-21T10:39:30Z</time>
      </trkpt>
      <trkpt lat="47.23741" lon="4.93471">
        <ele>507</ele>
        <time>2019-11-21T10:39:34Z</time>
      </trkpt>
      <trkpt lat="47.23739" lon="4.93478">
        <ele>507</ele>
        <time>2019-11-21T10:39:38Z</time>
      </trkpt>
      <trkpt lat="47.23731" lon="4.93497">
        <ele>505</ele>
        <time>2019-11-21T10:39:52Z</time>
      </trkpt>
      <trkpt lat="47.23732" lon="4.93505">
        <ele>505</ele>
        <time>2019-11-21T10:39:57Z</time>
      </trkpt>
      <trkpt lat="47.23733" lon="4.93513">
        <ele>505</ele>
        <time>2019-11-21T10:40:02Z</time>
      </trkpt>
      <trkpt lat="47.23732" lon="4.93531">
        <ele>505</ele>
        <time>2019-11-21T10:40:13Z</time>
      </trkpt>
      <trkpt lat="47.23729" lon="4.93537">
        <ele>504</ele>
        <time>2019-11-21T10:40:17Z</time>
      </trkpt>
      <trkpt lat="47.23727" lon="4.93545">
        <ele>504</ele>
        <time>2019-11-21T10:40:22Z</time>
      </trkpt>
      <trkpt lat="47.23728" lon="4.93553">
        <ele>503</ele>
        <time>2019-11-21T10:40:27Z</time>
      </trkpt>
      <trkpt lat="47.23724" lon="4.93573">
        <ele>503</ele>
        <time>2019-11-21T10:40:40Z</time>
      </trkpt>
      <trkpt lat="47.23722" lon="4.93579">
        <ele>502</ele>
        <time>2019-11-21T10:40:44Z</time>
      </trkpt>
      <trkpt lat="47.23718" lon="4.93594">
        <ele>501</ele>
        <time>2019-11-21T10:40:53Z</time>
      </trkpt>
      <trkpt lat="47.23716" lon="4.93601">
        <ele>501</ele>
        <time>2019-11-21T10:40:58Z</time>
      </trkpt>
      <trkpt lat="47.23715" lon="4.93609">
        <ele>501</ele>
        <time>2019-11-21T10:41:03Z</time>
      </trkpt>
      <trkpt lat="47.23713" lon="4.93615">
        <ele>501</ele>
        <time>2019-11-21T10:41:07Z</time>
      </trkpt>
      <trkpt lat="47.23709" lon="4.93629">
        <ele>501</ele>
        <time>2019-11-21T10:41:16Z</time>
      </trkpt>
      <trkpt lat="47.23707" lon="4.93644">
        <ele>501</ele>
        <time>2019-11-21T10:41:24Z</time>
      </trkpt>
      <trkpt lat="47.23707" lon="4.93652">
        <ele>500</ele>
        <time>2019-11-21T10:41:28Z</time>
      </trkpt>
      <trkpt lat="47.23707" lon="4.93659">
        <ele>499</ele>
        <time>2019-11-21T10:41:32Z</time>
      </trkpt>
      <trkpt lat="47.23708" lon="4.93667">
        <ele>498</ele>
        <time>2019-11-21T10:41:37Z</time>
      </trkpt>
      <trkpt lat="47.23708" lon="4.93682">
        <ele>498</ele>
        <time>2019-11-21T10:41:46Z</time>
      </trkpt>
      <trkpt lat="47.23707" lon="4.93689">
        <ele>498</ele>
        <time>2019-11-21T10:41:50Z</time>
      </trkpt>
      <trkpt lat="47.23707" lon="4.93696">
        <ele>497</ele>
        <time>2019-11-21T10:41:54Z</time>
      </trkpt>
      <trkpt lat="47.23706" lon="4.93718">
        <ele>496</ele>
        <time>2019-11-21T10:42:07Z</time>
      </trkpt>
      <trkpt lat="47.23706" lon="4.93725">
        <ele>495</ele>
        <time>2019-11-21T10:42:11Z</time>
      </trkpt>
      <trkpt lat="47.23705" lon="4.93732">
        <ele>495</ele>
        <time>2019-11-21T10:42:15Z</time>
      </trkpt>
      <trkpt lat="47.23705" lon="4.93739">
        <ele>495</ele>
        <time>2019-11-21T10:42:19Z</time>
      </trkpt>
      <trkpt lat="47.23702" lon="4.93753">
        <ele>494</ele>
        <time>2019-11-21T10:42:27Z</time>
      </trkpt>
      <trkpt lat="47.23702" lon="4.93761">
        <ele>494</ele>
        <time>2019-11-21T10:42:32Z</time>
      </trkpt>
      <trkpt lat="47.23701" lon="4.93768">
        <ele>495</ele>
        <time>2019-11-21T10:42:36Z</time>
      </trkpt>
      <trkpt lat="47.23699" lon="4.93776">
        <ele>495</ele>
        <time>2019-11-21T10:42:40Z</time>
      </trkpt>
      <trkpt lat="47.23698" lon="4.93791">
        <ele>494</ele>
        <time>2019-11-21T10:42:48Z</time>
      </trkpt>
      <trkpt lat="47.23699" lon="4.93799">
        <ele>493</ele>
        <time>2019-11-21T10:42:53Z</time>
      </trkpt>
      <trkpt lat="47.23699" lon="4.93813">
        <ele>492</ele>
        <time>2019-11-21T10:43:01Z</time>
      </trkpt>
      <trkpt lat="47.23699" lon="4.9382">
        <ele>493</ele>
        <time>2019-11-21T10:43:05Z</time>
      </trkpt>
      <trkpt lat="47.23699" lon="4.93834">
        <ele>491</ele>
        <time>2019-11-21T10:43:13Z</time>
      </trkpt>
      <trkpt lat="47.23699" lon="4.93841">
        <ele>492</ele>
        <time>2019-11-21T10:43:17Z</time>
      </trkpt>
      <trkpt lat="47.23699" lon="4.93857">
        <ele>490</ele>
        <time>2019-11-21T10:43:27Z</time>
      </trkpt>
      <trkpt lat="47.237" lon="4.93864">
        <ele>490</ele>
        <time>2019-11-21T10:43:32Z</time>
      </trkpt>
      <trkpt lat="47.23705" lon="4.93877">
        <ele>490</ele>
        <time>2019-11-21T10:43:41Z</time>
      </trkpt>
      <trkpt lat="47.23707" lon="4.93885">
        <ele>490</ele>
        <time>2019-11-21T10:43:46Z</time>
      </trkpt>
      <trkpt lat="47.23707" lon="4.93892">
        <ele>490</ele>
        <time>2019-11-21T10:43:50Z</time>
      </trkpt>
      <trkpt lat="47.2371" lon="4.939">
        <ele>491</ele>
        <time>2019-11-21T10:43:55Z</time>
      </trkpt>
      <trkpt lat="47.2372" lon="4.93905">
        <ele>492</ele>
        <time>2019-11-21T10:44:05Z</time>
      </trkpt>
      <trkpt lat="47.23739" lon="4.93912">
        <ele>492</ele>
        <time>2019-11-21T10:44:23Z</time>
      </trkpt>
      <trkpt lat="47.23737" lon="4.93916">
        <ele>493</ele>
        <time>2019-11-21T10:44:49Z</time>
      </trkpt>
      <trkpt lat="47.23734" lon="4.93921">
        <ele>493</ele>
        <time>2019-11-21T10:44:53Z</time>
      </trkpt>
      <trkpt lat="47.2374" lon="4.93925">
        <ele>492</ele>
        <time>2019-11-21T10:45:04Z</time>
      </trkpt>
      <trkpt lat="47.23745" lon="4.93918">
        <ele>493</ele>
        <time>2019-11-21T10:45:12Z</time>
      </trkpt>
      <trkpt lat="47.23749" lon="4.93914">
        <ele>493</ele>
        <time>2019-11-21T10:45:17Z</time>
      </trkpt>
      <trkpt lat="47.23754" lon="4.93916">
        <ele>493</ele>
        <time>2019-11-21T10:45:22Z</time>
      </trkpt>
      <trkpt lat="47.23764" lon="4.93922">
        <ele>493</ele>
        <time>2019-11-21T10:45:31Z</time>
      </trkpt>
      <trkpt lat="47.23776" lon="4.93926">
        <ele>493</ele>
        <time>2019-11-21T10:45:45Z</time>
      </trkpt>
      <trkpt lat="47.2378" lon="4.93929">
        <ele>493</ele>
        <time>2019-11-21T10:45:49Z</time>
      </trkpt>
      <trkpt lat="47.23785" lon="4.93931">
        <ele>494</ele>
        <time>2019-11-21T10:45:53Z</time>
      </trkpt>
      <trkpt lat="47.23821" lon="4.9395">
        <ele>494</ele>
        <time>2019-11-21T10:46:26Z</time>
      </trkpt>
      <trkpt lat="47.23826" lon="4.93952">
        <ele>495</ele>
        <time>2019-11-21T10:46:31Z</time>
      </trkpt>
      <trkpt lat="47.23831" lon="4.93955">
        <ele>494</ele>
        <time>2019-11-21T10:46:35Z</time>
      </trkpt>
      <trkpt lat="47.23835" lon="4.93955">
        <ele>495</ele>
        <time>2019-11-21T10:46:40Z</time>
      </trkpt>
      <trkpt lat="47.23844" lon="4.93959">
        <ele>495</ele>
        <time>2019-11-21T10:46:47Z</time>
      </trkpt>
      <trkpt lat="47.23849" lon="4.93962">
        <ele>495</ele>
        <time>2019-11-21T10:46:52Z</time>
      </trkpt>
      <trkpt lat="47.23854" lon="4.93965">
        <ele>495</ele>
        <time>2019-11-21T10:46:56Z</time>
      </trkpt>
      <trkpt lat="47.23859" lon="4.93968">
        <ele>495</ele>
        <time>2019-11-21T10:47:01Z</time>
      </trkpt>
      <trkpt lat="47.23881" lon="4.93983">
        <ele>495</ele>
        <time>2019-11-21T10:47:23Z</time>
      </trkpt>
      <trkpt lat="47.23886" lon="4.93986">
        <ele>494</ele>
        <time>2019-11-21T10:47:28Z</time>
      </trkpt>
      <trkpt lat="47.23891" lon="4.93991">
        <ele>495</ele>
        <time>2019-11-21T10:47:36Z</time>
      </trkpt>
      <trkpt lat="47.23894" lon="4.94">
        <ele>495</ele>
        <time>2019-11-21T10:47:54Z</time>
      </trkpt>
      <trkpt lat="47.23895" lon="4.94008">
        <ele>495</ele>
        <time>2019-11-21T10:47:59Z</time>
      </trkpt>
      <trkpt lat="47.23893" lon="4.94016">
        <ele>495</ele>
        <time>2019-11-21T10:48:04Z</time>
      </trkpt>
      <trkpt lat="47.23892" lon="4.94022">
        <ele>494</ele>
        <time>2019-11-21T10:48:08Z</time>
      </trkpt>
      <trkpt lat="47.23886" lon="4.94034">
        <ele>495</ele>
        <time>2019-11-21T10:48:17Z</time>
      </trkpt>
      <trkpt lat="47.23884" lon="4.9404">
        <ele>494</ele>
        <time>2019-11-21T10:48:22Z</time>
      </trkpt>
      <trkpt lat="47.23881" lon="4.94055">
        <ele>496</ele>
        <time>2019-11-21T10:48:31Z</time>
      </trkpt>
      <trkpt lat="47.23881" lon="4.9407">
        <ele>494</ele>
        <time>2019-11-21T10:48:41Z</time>
      </trkpt>
      <trkpt lat="47.23882" lon="4.94077">
        <ele>495</ele>
        <time>2019-11-21T10:48:46Z</time>
      </trkpt>
      <trkpt lat="47.23884" lon="4.94087">
        <ele>494</ele>
        <time>2019-11-21T10:48:53Z</time>
      </trkpt>
      <trkpt lat="47.23877" lon="4.94096">
        <ele>494</ele>
        <time>2019-11-21T10:49:00Z</time>
      </trkpt>
      <trkpt lat="47.23872" lon="4.94101">
        <ele>494</ele>
        <time>2019-11-21T10:49:04Z</time>
      </trkpt>
      <trkpt lat="47.23868" lon="4.94105">
        <ele>494</ele>
        <time>2019-11-21T10:49:08Z</time>
      </trkpt>
      <trkpt lat="47.23865" lon="4.9411">
        <ele>494</ele>
        <time>2019-11-21T10:49:12Z</time>
      </trkpt>
      <trkpt lat="47.23858" lon="4.94121">
        <ele>492</ele>
        <time>2019-11-21T10:49:20Z</time>
      </trkpt>
      <trkpt lat="47.23855" lon="4.94127">
        <ele>492</ele>
        <time>2019-11-21T10:49:24Z</time>
      </trkpt>
      <trkpt lat="47.23852" lon="4.94132">
        <ele>492</ele>
        <time>2019-11-21T10:49:28Z</time>
      </trkpt>
      <trkpt lat="47.23845" lon="4.94144">
        <ele>493</ele>
        <time>2019-11-21T10:49:36Z</time>
      </trkpt>
      <trkpt lat="47.23838" lon="4.94153">
        <ele>492</ele>
        <time>2019-11-21T10:49:44Z</time>
      </trkpt>
      <trkpt lat="47.23835" lon="4.94158">
        <ele>492</ele>
        <time>2019-11-21T10:49:48Z</time>
      </trkpt>
      <trkpt lat="47.23826" lon="4.94164">
        <ele>491</ele>
        <time>2019-11-21T10:49:56Z</time>
      </trkpt>
      <trkpt lat="47.23821" lon="4.94166">
        <ele>491</ele>
        <time>2019-11-21T10:50:00Z</time>
      </trkpt>
      <trkpt lat="47.2381" lon="4.94164">
        <ele>490</ele>
        <time>2019-11-21T10:50:08Z</time>
      </trkpt>
      <trkpt lat="47.23795" lon="4.94156">
        <ele>490</ele>
        <time>2019-11-21T10:50:21Z</time>
      </trkpt>
      <trkpt lat="47.23786" lon="4.94152">
        <ele>488</ele>
        <time>2019-11-21T10:50:30Z</time>
      </trkpt>
      <trkpt lat="47.23771" lon="4.94147">
        <ele>487</ele>
        <time>2019-11-21T10:50:43Z</time>
      </trkpt>
      <trkpt lat="47.23766" lon="4.94145">
        <ele>487</ele>
        <time>2019-11-21T10:50:47Z</time>
      </trkpt>
      <trkpt lat="47.23761" lon="4.94144">
        <ele>486</ele>
        <time>2019-11-21T10:50:51Z</time>
      </trkpt>
      <trkpt lat="47.23742" lon="4.94141">
        <ele>485</ele>
        <time>2019-11-21T10:51:08Z</time>
      </trkpt>
      <trkpt lat="47.23733" lon="4.94141">
        <ele>485</ele>
        <time>2019-11-21T10:51:16Z</time>
      </trkpt>
      <trkpt lat="47.23709" lon="4.94153">
        <ele>484</ele>
        <time>2019-11-21T10:51:36Z</time>
      </trkpt>
      <trkpt lat="47.23704" lon="4.94156">
        <ele>484</ele>
        <time>2019-11-21T10:51:42Z</time>
      </trkpt>
      <trkpt lat="47.23701" lon="4.94161">
        <ele>484</ele>
        <time>2019-11-21T10:51:46Z</time>
      </trkpt>
      <trkpt lat="47.23699" lon="4.94168">
        <ele>485</ele>
        <time>2019-11-21T10:51:50Z</time>
      </trkpt>
      <trkpt lat="47.23699" lon="4.94175">
        <ele>485</ele>
        <time>2019-11-21T10:51:55Z</time>
      </trkpt>
      <trkpt lat="47.23698" lon="4.9419">
        <ele>485</ele>
        <time>2019-11-21T10:52:04Z</time>
      </trkpt>
      <trkpt lat="47.23697" lon="4.94211">
        <ele>486</ele>
        <time>2019-11-21T10:52:16Z</time>
      </trkpt>
      <trkpt lat="47.23697" lon="4.94218">
        <ele>486</ele>
        <time>2019-11-21T10:52:20Z</time>
      </trkpt>
      <trkpt lat="47.23696" lon="4.94241">
        <ele>486</ele>
        <time>2019-11-21T10:52:33Z</time>
      </trkpt>
      <trkpt lat="47.23694" lon="4.94248">
        <ele>486</ele>
        <time>2019-11-21T10:52:37Z</time>
      </trkpt>
      <trkpt lat="47.23692" lon="4.94264">
        <ele>486</ele>
        <time>2019-11-21T10:52:45Z</time>
      </trkpt>
      <trkpt lat="47.23691" lon="4.94273">
        <ele>486</ele>
        <time>2019-11-21T10:52:49Z</time>
      </trkpt>
      <trkpt lat="47.2369" lon="4.9428">
        <ele>486</ele>
        <time>2019-11-21T10:52:52Z</time>
      </trkpt>
      <trkpt lat="47.23686" lon="4.94295">
        <ele>486</ele>
        <time>2019-11-21T10:53:00Z</time>
      </trkpt>
      <trkpt lat="47.23685" lon="4.94309">
        <ele>486</ele>
        <time>2019-11-21T10:53:08Z</time>
      </trkpt>
      <trkpt lat="47.23685" lon="4.94316">
        <ele>486</ele>
        <time>2019-11-21T10:53:12Z</time>
      </trkpt>
      <trkpt lat="47.23683" lon="4.94323">
        <ele>487</ele>
        <time>2019-11-21T10:53:16Z</time>
      </trkpt>
      <trkpt lat="47.23683" lon="4.94331">
        <ele>487</ele>
        <time>2019-11-21T10:53:20Z</time>
      </trkpt>
      <trkpt lat="47.23683" lon="4.94364">
        <ele>485</ele>
        <time>2019-11-21T10:53:38Z</time>
      </trkpt>
      <trkpt lat="47.23681" lon="4.9438">
        <ele>486</ele>
        <time>2019-11-21T10:53:48Z</time>
      </trkpt>
      <trkpt lat="47.2368" lon="4.94388">
        <ele>485</ele>
        <time>2019-11-21T10:53:52Z</time>
      </trkpt>
      <trkpt lat="47.2368" lon="4.94397">
        <ele>485</ele>
        <time>2019-11-21T10:53:56Z</time>
      </trkpt>
      <trkpt lat="47.2368" lon="4.94404">
        <ele>486</ele>
        <time>2019-11-21T10:53:59Z</time>
      </trkpt>
      <trkpt lat="47.23678" lon="4.94426">
        <ele>486</ele>
        <time>2019-11-21T10:54:11Z</time>
      </trkpt>
      <trkpt lat="47.23678" lon="4.94433">
        <ele>485</ele>
        <time>2019-11-21T10:54:15Z</time>
      </trkpt>
      <trkpt lat="47.23677" lon="4.94442">
        <ele>485</ele>
        <time>2019-11-21T10:54:19Z</time>
      </trkpt>
      <trkpt lat="47.23674" lon="4.94493">
        <ele>484</ele>
        <time>2019-11-21T10:54:47Z</time>
      </trkpt>
      <trkpt lat="47.23673" lon="4.94507">
        <ele>482</ele>
        <time>2019-11-21T10:54:56Z</time>
      </trkpt>
      <trkpt lat="47.23673" lon="4.9453">
        <ele>481</ele>
        <time>2019-11-21T10:55:08Z</time>
      </trkpt>
      <trkpt lat="47.23672" lon="4.94537">
        <ele>481</ele>
        <time>2019-11-21T10:55:12Z</time>
      </trkpt>
      <trkpt lat="47.23671" lon="4.94544">
        <ele>481</ele>
        <time>2019-11-21T10:55:16Z</time>
      </trkpt>
      <trkpt lat="47.2367" lon="4.94551">
        <ele>481</ele>
        <time>2019-11-21T10:55:20Z</time>
      </trkpt>
      <trkpt lat="47.2367" lon="4.94558">
        <ele>480</ele>
        <time>2019-11-21T10:55:24Z</time>
      </trkpt>
      <trkpt lat="47.23669" lon="4.9458">
        <ele>480</ele>
        <time>2019-11-21T10:55:36Z</time>
      </trkpt>
      <trkpt lat="47.23669" lon="4.94587">
        <ele>480</ele>
        <time>2019-11-21T10:55:41Z</time>
      </trkpt>
      <trkpt lat="47.23669" lon="4.94594">
        <ele>480</ele>
        <time>2019-11-21T10:55:46Z</time>
      </trkpt>
      <trkpt lat="47.2367" lon="4.946">
        <ele>479</ele>
        <time>2019-11-21T10:55:51Z</time>
      </trkpt>
      <trkpt lat="47.23673" lon="4.94617">
        <ele>479</ele>
        <time>2019-11-21T10:56:02Z</time>
      </trkpt>
      <trkpt lat="47.23673" lon="4.94625">
        <ele>479</ele>
        <time>2019-11-21T10:56:06Z</time>
      </trkpt>
      <trkpt lat="47.23673" lon="4.94632">
        <ele>479</ele>
        <time>2019-11-21T10:56:10Z</time>
      </trkpt>
      <trkpt lat="47.23673" lon="4.94641">
        <ele>479</ele>
        <time>2019-11-21T10:56:15Z</time>
      </trkpt>
      <trkpt lat="47.23674" lon="4.94648">
        <ele>479</ele>
        <time>2019-11-21T10:56:19Z</time>
      </trkpt>
      <trkpt lat="47.23675" lon="4.94654">
        <ele>479</ele>
        <time>2019-11-21T10:56:23Z</time>
      </trkpt>
      <trkpt lat="47.23676" lon="4.94661">
        <ele>478</ele>
        <time>2019-11-21T10:56:27Z</time>
      </trkpt>
      <trkpt lat="47.23674" lon="4.94676">
        <ele>478</ele>
        <time>2019-11-21T10:56:36Z</time>
      </trkpt>
      <trkpt lat="47.23675" lon="4.94684">
        <ele>478</ele>
        <time>2019-11-21T10:56:40Z</time>
      </trkpt>
      <trkpt lat="47.23675" lon="4.94699">
        <ele>477</ele>
        <time>2019-11-21T10:56:48Z</time>
      </trkpt>
      <trkpt lat="47.23678" lon="4.94737">
        <ele>477</ele>
        <time>2019-11-21T10:57:08Z</time>
      </trkpt>
      <trkpt lat="47.23679" lon="4.94744">
        <ele>477</ele>
        <time>2019-11-21T10:57:12Z</time>
      </trkpt>
      <trkpt lat="47.23679" lon="4.9476">
        <ele>477</ele>
        <time>2019-11-21T10:57:20Z</time>
      </trkpt>
      <trkpt lat="47.23678" lon="4.94768">
        <ele>478</ele>
        <time>2019-11-21T10:57:24Z</time>
      </trkpt>
      <trkpt lat="47.23678" lon="4.94776">
        <ele>477</ele>
        <time>2019-11-21T10:57:28Z</time>
      </trkpt>
      <trkpt lat="47.23678" lon="4.94784">
        <ele>477</ele>
        <time>2019-11-21T10:57:32Z</time>
      </trkpt>
      <trkpt lat="47.23679" lon="4.94791">
        <ele>477</ele>
        <time>2019-11-21T10:57:36Z</time>
      </trkpt>
      <trkpt lat="47.23679" lon="4.94814">
        <ele>477</ele>
        <time>2019-11-21T10:57:48Z</time>
      </trkpt>
      <trkpt lat="47.23679" lon="4.94821">
        <ele>477</ele>
        <time>2019-11-21T10:57:52Z</time>
      </trkpt>
      <trkpt lat="47.2368" lon="4.94845">
        <ele>477</ele>
        <time>2019-11-21T10:58:05Z</time>
      </trkpt>
      <trkpt lat="47.23682" lon="4.94866">
        <ele>478</ele>
        <time>2019-11-21T10:58:17Z</time>
      </trkpt>
      <trkpt lat="47.23683" lon="4.94874">
        <ele>477</ele>
        <time>2019-11-21T10:58:21Z</time>
      </trkpt>
      <trkpt lat="47.23684" lon="4.94882">
        <ele>478</ele>
        <time>2019-11-21T10:58:25Z</time>
      </trkpt>
      <trkpt lat="47.23686" lon="4.94898">
        <ele>477</ele>
        <time>2019-11-21T10:58:33Z</time>
      </trkpt>
      <trkpt lat="47.23686" lon="4.94906">
        <ele>478</ele>
        <time>2019-11-21T10:58:37Z</time>
      </trkpt>
      <trkpt lat="47.23687" lon="4.94913">
        <ele>478</ele>
        <time>2019-11-21T10:58:41Z</time>
      </trkpt>
      <trkpt lat="47.23689" lon="4.94927">
        <ele>478</ele>
        <time>2019-11-21T10:58:49Z</time>
      </trkpt>
      <trkpt lat="47.23691" lon="4.94942">
        <ele>476</ele>
        <time>2019-11-21T10:58:58Z</time>
      </trkpt>
      <trkpt lat="47.23692" lon="4.94949">
        <ele>476</ele>
        <time>2019-11-21T10:59:02Z</time>
      </trkpt>
      <trkpt lat="47.23693" lon="4.94966">
        <ele>475</ele>
        <time>2019-11-21T10:59:17Z</time>
      </trkpt>
      <trkpt lat="47.23693" lon="4.94975">
        <ele>475</ele>
        <time>2019-11-21T10:59:49Z</time>
      </trkpt>
      <trkpt lat="47.23692" lon="4.94983">
        <ele>473</ele>
        <time>2019-11-21T10:59:54Z</time>
      </trkpt>
      <trkpt lat="47.23691" lon="4.94989">
        <ele>472</ele>
        <time>2019-11-21T10:59:58Z</time>
      </trkpt>
      <trkpt lat="47.2369" lon="4.94996">
        <ele>473</ele>
        <time>2019-11-21T11:00:02Z</time>
      </trkpt>
      <trkpt lat="47.2369" lon="4.95003">
        <ele>472</ele>
        <time>2019-11-21T11:00:06Z</time>
      </trkpt>
      <trkpt lat="47.23687" lon="4.95017">
        <ele>471</ele>
        <time>2019-11-21T11:00:14Z</time>
      </trkpt>
      <trkpt lat="47.23684" lon="4.95028">
        <ele>471</ele>
        <time>2019-11-21T11:00:23Z</time>
      </trkpt>
      <trkpt lat="47.23682" lon="4.95035">
        <ele>470</ele>
        <time>2019-11-21T11:00:28Z</time>
      </trkpt>
      <trkpt lat="47.23677" lon="4.95046">
        <ele>469</ele>
        <time>2019-11-21T11:00:36Z</time>
      </trkpt>
      <trkpt lat="47.23675" lon="4.95052">
        <ele>469</ele>
        <time>2019-11-21T11:00:40Z</time>
      </trkpt>
      <trkpt lat="47.23672" lon="4.95059">
        <ele>469</ele>
        <time>2019-11-21T11:00:44Z</time>
      </trkpt>
      <trkpt lat="47.23669" lon="4.95065">
        <ele>468</ele>
        <time>2019-11-21T11:00:48Z</time>
      </trkpt>
      <trkpt lat="47.23666" lon="4.95072">
        <ele>469</ele>
        <time>2019-11-21T11:00:52Z</time>
      </trkpt>
      <trkpt lat="47.23661" lon="4.95085">
        <ele>468</ele>
        <time>2019-11-21T11:00:59Z</time>
      </trkpt>
      <trkpt lat="47.23658" lon="4.9509">
        <ele>468</ele>
        <time>2019-11-21T11:01:02Z</time>
      </trkpt>
      <trkpt lat="47.23654" lon="4.95096">
        <ele>468</ele>
        <time>2019-11-21T11:01:06Z</time>
      </trkpt>
      <trkpt lat="47.23627" lon="4.95142">
        <ele>465</ele>
        <time>2019-11-21T11:01:38Z</time>
      </trkpt>
      <trkpt lat="47.23612" lon="4.95184">
        <ele>465</ele>
        <time>2019-11-21T11:02:02Z</time>
      </trkpt>
      <trkpt lat="47.23604" lon="4.95211">
        <ele>462</ele>
        <time>2019-11-21T11:02:19Z</time>
      </trkpt>
      <trkpt lat="47.23598" lon="4.95225">
        <ele>461</ele>
        <time>2019-11-21T11:02:28Z</time>
      </trkpt>
      <trkpt lat="47.23593" lon="4.95237">
        <ele>461</ele>
        <time>2019-11-21T11:02:36Z</time>
      </trkpt>
      <trkpt lat="47.23586" lon="4.9525">
        <ele>461</ele>
        <time>2019-11-21T11:02:44Z</time>
      </trkpt>
      <trkpt lat="47.23584" lon="4.95257">
        <ele>460</ele>
        <time>2019-11-21T11:02:49Z</time>
      </trkpt>
      <trkpt lat="47.23581" lon="4.95263">
        <ele>460</ele>
        <time>2019-11-21T11:02:53Z</time>
      </trkpt>
      <trkpt lat="47.23576" lon="4.95275">
        <ele>459</ele>
        <time>2019-11-21T11:03:00Z</time>
      </trkpt>
      <trkpt lat="47.23571" lon="4.95287">
        <ele>459</ele>
        <time>2019-11-21T11:03:08Z</time>
      </trkpt>
      <trkpt lat="47.23568" lon="4.95294">
        <ele>459</ele>
        <time>2019-11-21T11:03:12Z</time>
      </trkpt>
      <trkpt lat="47.23562" lon="4.95307">
        <ele>459</ele>
        <time>2019-11-21T11:03:20Z</time>
      </trkpt>
      <trkpt lat="47.23558" lon="4.95313">
        <ele>458</ele>
        <time>2019-11-21T11:03:24Z</time>
      </trkpt>
      <trkpt lat="47.23556" lon="4.95319">
        <ele>458</ele>
        <time>2019-11-21T11:03:28Z</time>
      </trkpt>
      <trkpt lat="47.23554" lon="4.95325">
        <ele>458</ele>
        <time>2019-11-21T11:03:32Z</time>
      </trkpt>
      <trkpt lat="47.2355" lon="4.95332">
        <ele>459</ele>
        <time>2019-11-21T11:03:36Z</time>
      </trkpt>
      <trkpt lat="47.23544" lon="4.95345">
        <ele>457</ele>
        <time>2019-11-21T11:03:46Z</time>
      </trkpt>
      <trkpt lat="47.23528" lon="4.95393">
        <ele>456</ele>
        <time>2019-11-21T11:04:16Z</time>
      </trkpt>
      <trkpt lat="47.23525" lon="4.954">
        <ele>455</ele>
        <time>2019-11-21T11:04:20Z</time>
      </trkpt>
      <trkpt lat="47.23524" lon="4.95407">
        <ele>455</ele>
        <time>2019-11-21T11:04:24Z</time>
      </trkpt>
      <trkpt lat="47.23518" lon="4.95421">
        <ele>454</ele>
        <time>2019-11-21T11:04:33Z</time>
      </trkpt>
      <trkpt lat="47.23516" lon="4.95427">
        <ele>454</ele>
        <time>2019-11-21T11:04:37Z</time>
      </trkpt>
      <trkpt lat="47.23512" lon="4.95432">
        <ele>454</ele>
        <time>2019-11-21T11:04:41Z</time>
      </trkpt>
      <trkpt lat="47.235" lon="4.95443">
        <ele>453</ele>
        <time>2019-11-21T11:04:54Z</time>
      </trkpt>
      <trkpt lat="47.23496" lon="4.95447">
        <ele>453</ele>
        <time>2019-11-21T11:04:57Z</time>
      </trkpt>
      <trkpt lat="47.23487" lon="4.95454">
        <ele>453</ele>
        <time>2019-11-21T11:05:04Z</time>
      </trkpt>
      <trkpt lat="47.23485" lon="4.9546">
        <ele>452</ele>
        <time>2019-11-21T11:05:26Z</time>
      </trkpt>
      <trkpt lat="47.23475" lon="4.95455">
        <ele>449</ele>
        <time>2019-11-21T11:05:37Z</time>
      </trkpt>
      <trkpt lat="47.23472" lon="4.9545">
        <ele>448</ele>
        <time>2019-11-21T11:05:42Z</time>
      </trkpt>
      <trkpt lat="47.23468" lon="4.95446">
        <ele>449</ele>
        <time>2019-11-21T11:05:46Z</time>
      </trkpt>
      <trkpt lat="47.23464" lon="4.95443">
        <ele>449</ele>
        <time>2019-11-21T11:05:50Z</time>
      </trkpt>
      <trkpt lat="47.2346" lon="4.95432">
        <ele>449</ele>
        <time>2019-11-21T11:05:58Z</time>
      </trkpt>
      <trkpt lat="47.23459" lon="4.95425">
        <ele>449</ele>
        <time>2019-11-21T11:06:03Z</time>
      </trkpt>
      <trkpt lat="47.23455" lon="4.95411">
        <ele>448</ele>
        <time>2019-11-21T11:06:11Z</time>
      </trkpt>
      <trkpt lat="47.23452" lon="4.95404">
        <ele>449</ele>
        <time>2019-11-21T11:06:15Z</time>
      </trkpt>
      <trkpt lat="47.23448" lon="4.95387">
        <ele>448</ele>
        <time>2019-11-21T11:06:27Z</time>
      </trkpt>
      <trkpt lat="47.23447" lon="4.95377">
        <ele>448</ele>
        <time>2019-11-21T11:06:33Z</time>
      </trkpt>
      <trkpt lat="47.23446" lon="4.95371">
        <ele>449</ele>
        <time>2019-11-21T11:06:36Z</time>
      </trkpt>
      <trkpt lat="47.23446" lon="4.95363">
        <ele>448</ele>
        <time>2019-11-21T11:06:40Z</time>
      </trkpt>
      <trkpt lat="47.23443" lon="4.95349">
        <ele>449</ele>
        <time>2019-11-21T11:06:48Z</time>
      </trkpt>
      <trkpt lat="47.23439" lon="4.95343">
        <ele>449</ele>
        <time>2019-11-21T11:06:52Z</time>
      </trkpt>
      <trkpt lat="47.23433" lon="4.95332">
        <ele>450</ele>
        <time>2019-11-21T11:07:00Z</time>
      </trkpt>
      <trkpt lat="47.2343" lon="4.95327">
        <ele>450</ele>
        <time>2019-11-21T11:07:04Z</time>
      </trkpt>
      <trkpt lat="47.23426" lon="4.95317">
        <ele>450</ele>
        <time>2019-11-21T11:07:12Z</time>
      </trkpt>
      <trkpt lat="47.23422" lon="4.95312">
        <ele>450</ele>
        <time>2019-11-21T11:07:16Z</time>
      </trkpt>
      <trkpt lat="47.23419" lon="4.95306">
        <ele>450</ele>
        <time>2019-11-21T11:07:19Z</time>
      </trkpt>
      <trkpt lat="47.23416" lon="4.953">
        <ele>450</ele>
        <time>2019-11-21T11:07:23Z</time>
      </trkpt>
      <trkpt lat="47.23413" lon="4.95295">
        <ele>451</ele>
        <time>2019-11-21T11:07:26Z</time>
      </trkpt>
      <trkpt lat="47.2341" lon="4.95289">
        <ele>450</ele>
        <time>2019-11-21T11:07:30Z</time>
      </trkpt>
      <trkpt lat="47.23408" lon="4.95281">
        <ele>452</ele>
        <time>2019-11-21T11:07:35Z</time>
      </trkpt>
      <trkpt lat="47.23407" lon="4.95275">
        <ele>452</ele>
        <time>2019-11-21T11:07:39Z</time>
      </trkpt>
      <trkpt lat="47.23403" lon="4.95262">
        <ele>452</ele>
        <time>2019-11-21T11:07:46Z</time>
      </trkpt>
      <trkpt lat="47.23401" lon="4.95256">
        <ele>452</ele>
        <time>2019-11-21T11:07:50Z</time>
      </trkpt>
      <trkpt lat="47.23399" lon="4.95249">
        <ele>452</ele>
        <time>2019-11-21T11:07:54Z</time>
      </trkpt>
      <trkpt lat="47.23393" lon="4.95236">
        <ele>452</ele>
        <time>2019-11-21T11:08:01Z</time>
      </trkpt>
      <trkpt lat="47.2339" lon="4.9523">
        <ele>453</ele>
        <time>2019-11-21T11:08:04Z</time>
      </trkpt>
      <trkpt lat="47.23384" lon="4.9521">
        <ele>452</ele>
        <time>2019-11-21T11:08:16Z</time>
      </trkpt>
      <trkpt lat="47.23382" lon="4.95204">
        <ele>452</ele>
        <time>2019-11-21T11:08:20Z</time>
      </trkpt>
      <trkpt lat="47.2338" lon="4.95193">
        <ele>453</ele>
        <time>2019-11-21T11:08:26Z</time>
      </trkpt>
      <trkpt lat="47.23374" lon="4.95179">
        <ele>453</ele>
        <time>2019-11-21T11:08:34Z</time>
      </trkpt>
      <trkpt lat="47.2337" lon="4.95165">
        <ele>454</ele>
        <time>2019-11-21T11:08:43Z</time>
      </trkpt>
      <trkpt lat="47.23367" lon="4.9516">
        <ele>454</ele>
        <time>2019-11-21T11:08:47Z</time>
      </trkpt>
      <trkpt lat="47.23364" lon="4.95155">
        <ele>454</ele>
        <time>2019-11-21T11:08:51Z</time>
      </trkpt>
      <trkpt lat="47.23363" lon="4.95148">
        <ele>455</ele>
        <time>2019-11-21T11:08:55Z</time>
      </trkpt>
      <trkpt lat="47.23357" lon="4.95135">
        <ele>455</ele>
        <time>2019-11-21T11:09:02Z</time>
      </trkpt>
      <trkpt lat="47.2335" lon="4.95121">
        <ele>455</ele>
        <time>2019-11-21T11:09:14Z</time>
      </trkpt>
      <trkpt lat="47.23335" lon="4.95096">
        <ele>456</ele>
        <time>2019-11-21T11:09:38Z</time>
      </trkpt>
      <trkpt lat="47.23329" lon="4.95086">
        <ele>455</ele>
        <time>2019-11-21T11:09:45Z</time>
      </trkpt>
      <trkpt lat="47.23317" lon="4.95064">
        <ele>455</ele>
        <time>2019-11-21T11:10:00Z</time>
      </trkpt>
      <trkpt lat="47.23309" lon="4.95051">
        <ele>457</ele>
        <time>2019-11-21T11:10:11Z</time>
      </trkpt>
      <trkpt lat="47.23297" lon="4.95028">
        <ele>456</ele>
        <time>2019-11-21T11:10:26Z</time>
      </trkpt>
      <trkpt lat="47.23289" lon="4.95018">
        <ele>457</ele>
        <time>2019-11-21T11:10:32Z</time>
      </trkpt>
      <trkpt lat="47.23283" lon="4.95008">
        <ele>456</ele>
        <time>2019-11-21T11:10:38Z</time>
      </trkpt>
      <trkpt lat="47.23278" lon="4.94996">
        <ele>457</ele>
        <time>2019-11-21T11:10:46Z</time>
      </trkpt>
      <trkpt lat="47.2327" lon="4.9497">
        <ele>457</ele>
        <time>2019-11-21T11:11:01Z</time>
      </trkpt>
      <trkpt lat="47.23265" lon="4.9496">
        <ele>457</ele>
        <time>2019-11-21T11:11:08Z</time>
      </trkpt>
      <trkpt lat="47.23245" lon="4.94925">
        <ele>455</ele>
        <time>2019-11-21T11:11:32Z</time>
      </trkpt>
      <trkpt lat="47.23241" lon="4.9492">
        <ele>455</ele>
        <time>2019-11-21T11:11:35Z</time>
      </trkpt>
      <trkpt lat="47.23238" lon="4.94916">
        <ele>455</ele>
        <time>2019-11-21T11:11:38Z</time>
      </trkpt>
      <trkpt lat="47.23233" lon="4.94913">
        <ele>454</ele>
        <time>2019-11-21T11:11:42Z</time>
      </trkpt>
      <trkpt lat="47.2322" lon="4.949">
        <ele>455</ele>
        <time>2019-11-21T11:11:54Z</time>
      </trkpt>
      <trkpt lat="47.23216" lon="4.94895">
        <ele>456</ele>
        <time>2019-11-21T11:11:58Z</time>
      </trkpt>
      <trkpt lat="47.23213" lon="4.9489">
        <ele>455</ele>
        <time>2019-11-21T11:12:02Z</time>
      </trkpt>
      <trkpt lat="47.23211" lon="4.94884">
        <ele>455</ele>
        <time>2019-11-21T11:12:05Z</time>
      </trkpt>
      <trkpt lat="47.23205" lon="4.94877">
        <ele>454</ele>
        <time>2019-11-21T11:12:13Z</time>
      </trkpt>
      <trkpt lat="47.232" lon="4.94866">
        <ele>453</ele>
        <time>2019-11-21T11:12:24Z</time>
      </trkpt>
      <trkpt lat="47.23191" lon="4.94863">
        <ele>453</ele>
        <time>2019-11-21T11:12:47Z</time>
      </trkpt>
      <trkpt lat="47.23188" lon="4.94857">
        <ele>451</ele>
        <time>2019-11-21T11:12:52Z</time>
      </trkpt>
      <trkpt lat="47.23185" lon="4.9485">
        <ele>451</ele>
        <time>2019-11-21T11:12:57Z</time>
      </trkpt>
      <trkpt lat="47.23177" lon="4.94844">
        <ele>451</ele>
        <time>2019-11-21T11:13:09Z</time>
      </trkpt>
      <trkpt lat="47.23173" lon="4.94841">
        <ele>450</ele>
        <time>2019-11-21T11:13:15Z</time>
      </trkpt>
      <trkpt lat="47.23171" lon="4.94848">
        <ele>449</ele>
        <time>2019-11-21T11:13:29Z</time>
      </trkpt>
      <trkpt lat="47.23171" lon="4.94856">
        <ele>449</ele>
        <time>2019-11-21T11:13:34Z</time>
      </trkpt>
      <trkpt lat="47.23167" lon="4.94872">
        <ele>448</ele>
        <time>2019-11-21T11:13:45Z</time>
      </trkpt>
      <trkpt lat="47.23161" lon="4.94882">
        <ele>448</ele>
        <time>2019-11-21T11:13:53Z</time>
      </trkpt>
      <trkpt lat="47.23157" lon="4.94886">
        <ele>447</ele>
        <time>2019-11-21T11:13:57Z</time>
      </trkpt>
      <trkpt lat="47.23154" lon="4.94891">
        <ele>447</ele>
        <time>2019-11-21T11:14:02Z</time>
      </trkpt>
      <trkpt lat="47.2315" lon="4.94896">
        <ele>447</ele>
        <time>2019-11-21T11:14:07Z</time>
      </trkpt>
      <trkpt lat="47.23141" lon="4.94901">
        <ele>446</ele>
        <time>2019-11-21T11:14:16Z</time>
      </trkpt>
      <trkpt lat="47.23136" lon="4.94906">
        <ele>446</ele>
        <time>2019-11-21T11:14:21Z</time>
      </trkpt>
      <trkpt lat="47.2313" lon="4.94915">
        <ele>446</ele>
        <time>2019-11-21T11:14:32Z</time>
      </trkpt>
      <trkpt lat="47.23126" lon="4.94921">
        <ele>446</ele>
        <time>2019-11-21T11:14:37Z</time>
      </trkpt>
      <trkpt lat="47.23123" lon="4.94928">
        <ele>446</ele>
        <time>2019-11-21T11:14:41Z</time>
      </trkpt>
      <trkpt lat="47.23121" lon="4.94935">
        <ele>447</ele>
        <time>2019-11-21T11:14:45Z</time>
      </trkpt>
      <trkpt lat="47.23119" lon="4.94941">
        <ele>447</ele>
        <time>2019-11-21T11:14:49Z</time>
      </trkpt>
      <trkpt lat="47.23112" lon="4.94961">
        <ele>447</ele>
        <time>2019-11-21T11:15:01Z</time>
      </trkpt>
      <trkpt lat="47.23111" lon="4.94967">
        <ele>448</ele>
        <time>2019-11-21T11:15:05Z</time>
      </trkpt>
      <trkpt lat="47.23108" lon="4.94986">
        <ele>450</ele>
        <time>2019-11-21T11:15:18Z</time>
      </trkpt>
      <trkpt lat="47.23108" lon="4.94976">
        <ele>451</ele>
        <time>2019-11-21T11:15:45Z</time>
      </trkpt>
      <trkpt lat="47.23111" lon="4.94963">
        <ele>449</ele>
        <time>2019-11-21T11:15:55Z</time>
      </trkpt>
      <trkpt lat="47.23113" lon="4.94956">
        <ele>449</ele>
        <time>2019-11-21T11:15:59Z</time>
      </trkpt>
      <trkpt lat="47.23121" lon="4.94937">
        <ele>448</ele>
        <time>2019-11-21T11:16:11Z</time>
      </trkpt>
      <trkpt lat="47.23123" lon="4.94931">
        <ele>448</ele>
        <time>2019-11-21T11:16:15Z</time>
      </trkpt>
      <trkpt lat="47.23126" lon="4.94925">
        <ele>449</ele>
        <time>2019-11-21T11:16:19Z</time>
      </trkpt>
      <trkpt lat="47.23133" lon="4.94915">
        <ele>448</ele>
        <time>2019-11-21T11:16:27Z</time>
      </trkpt>
      <trkpt lat="47.23129" lon="4.94906">
        <ele>447</ele>
        <time>2019-11-21T11:16:36Z</time>
      </trkpt>
      <trkpt lat="47.23123" lon="4.94898">
        <ele>447</ele>
        <time>2019-11-21T11:16:45Z</time>
      </trkpt>
      <trkpt lat="47.23116" lon="4.94887">
        <ele>447</ele>
        <time>2019-11-21T11:16:52Z</time>
      </trkpt>
      <trkpt lat="47.23112" lon="4.94881">
        <ele>448</ele>
        <time>2019-11-21T11:17:06Z</time>
      </trkpt>
      <trkpt lat="47.23108" lon="4.94869">
        <ele>446</ele>
        <time>2019-11-21T11:22:38Z</time>
      </trkpt>
      <trkpt lat="47.23087" lon="4.94844">
        <ele>445</ele>
        <time>2019-11-21T11:26:45Z</time>
      </trkpt>
      <trkpt lat="47.23083" lon="4.94837">
        <ele>446</ele>
        <time>2019-11-21T11:26:52Z</time>
      </trkpt>
      <trkpt lat="47.23076" lon="4.94828">
        <ele>445</ele>
        <time>2019-11-21T11:27:03Z</time>
      </trkpt>
      <trkpt lat="47.23072" lon="4.94821">
        <ele>446</ele>
        <time>2019-11-21T11:27:08Z</time>
      </trkpt>
      <trkpt lat="47.23069" lon="4.94817">
        <ele>446</ele>
        <time>2019-11-21T11:27:12Z</time>
      </trkpt>
      <trkpt lat="47.23065" lon="4.94813">
        <ele>445</ele>
        <time>2019-11-21T11:27:26Z</time>
      </trkpt>
      <trkpt lat="47.23067" lon="4.94806">
        <ele>444</ele>
        <time>2019-11-21T11:27:32Z</time>
      </trkpt>
      <trkpt lat="47.23075" lon="4.94797">
        <ele>444</ele>
        <time>2019-11-21T11:27:43Z</time>
      </trkpt>
      <trkpt lat="47.23081" lon="4.94789">
        <ele>445</ele>
        <time>2019-11-21T11:27:52Z</time>
      </trkpt>
      <trkpt lat="47.23088" lon="4.94788">
        <ele>445</ele>
        <time>2019-11-21T11:28:00Z</time>
      </trkpt>
      <trkpt lat="47.23094" lon="4.94792">
        <ele>446</ele>
        <time>2019-11-21T11:28:08Z</time>
      </trkpt>
      <trkpt lat="47.23099" lon="4.94786">
        <ele>448</ele>
        <time>2019-11-21T11:28:20Z</time>
      </trkpt>
      <trkpt lat="47.23101" lon="4.94779">
        <ele>448</ele>
        <time>2019-11-21T11:28:26Z</time>
      </trkpt>
      <trkpt lat="47.23106" lon="4.94775">
        <ele>448</ele>
        <time>2019-11-21T11:28:32Z</time>
      </trkpt>
      <trkpt lat="47.23133" lon="4.94796">
        <ele>450</ele>
        <time>2019-11-21T11:29:32Z</time>
      </trkpt>
      <trkpt lat="47.23137" lon="4.94799">
        <ele>449</ele>
        <time>2019-11-21T11:29:35Z</time>
      </trkpt>
      <trkpt lat="47.23142" lon="4.94803">
        <ele>450</ele>
        <time>2019-11-21T11:29:40Z</time>
      </trkpt>
      <trkpt lat="47.23157" lon="4.94803">
        <ele>450</ele>
        <time>2019-11-21T11:29:53Z</time>
      </trkpt>
      <trkpt lat="47.23165" lon="4.94811">
        <ele>451</ele>
        <time>2019-11-21T11:30:03Z</time>
      </trkpt>
      <trkpt lat="47.2317" lon="4.94817">
        <ele>451</ele>
        <time>2019-11-21T11:30:10Z</time>
      </trkpt>
      <trkpt lat="47.23182" lon="4.94842">
        <ele>450</ele>
        <time>2019-11-21T11:30:38Z</time>
      </trkpt>
      <trkpt lat="47.23186" lon="4.94847">
        <ele>450</ele>
        <time>2019-11-21T11:30:43Z</time>
      </trkpt>
      <trkpt lat="47.23188" lon="4.94854">
        <ele>451</ele>
        <time>2019-11-21T11:30:48Z</time>
      </trkpt>
      <trkpt lat="47.23193" lon="4.94858">
        <ele>451</ele>
        <time>2019-11-21T11:30:56Z</time>
      </trkpt>
      <trkpt lat="47.23194" lon="4.94843">
        <ele>450</ele>
        <time>2019-11-21T11:31:18Z</time>
      </trkpt>
      <trkpt lat="47.23194" lon="4.94829">
        <ele>451</ele>
        <time>2019-11-21T11:31:26Z</time>
      </trkpt>
      <trkpt lat="47.23196" lon="4.94815">
        <ele>449</ele>
        <time>2019-11-21T11:31:35Z</time>
      </trkpt>
      <trkpt lat="47.23198" lon="4.94802">
        <ele>448</ele>
        <time>2019-11-21T11:31:44Z</time>
      </trkpt>
      <trkpt lat="47.23199" lon="4.94788">
        <ele>449</ele>
        <time>2019-11-21T11:31:54Z</time>
      </trkpt>
      <trkpt lat="47.23202" lon="4.94775">
        <ele>451</ele>
        <time>2019-11-21T11:32:02Z</time>
      </trkpt>
      <trkpt lat="47.23209" lon="4.94717">
        <ele>454</ele>
        <time>2019-11-21T11:32:36Z</time>
      </trkpt>
      <trkpt lat="47.23215" lon="4.9468">
        <ele>455</ele>
        <time>2019-11-21T11:32:58Z</time>
      </trkpt>
      <trkpt lat="47.23219" lon="4.94668">
        <ele>456</ele>
        <time>2019-11-21T11:33:06Z</time>
      </trkpt>
      <trkpt lat="47.2322" lon="4.94661">
        <ele>456</ele>
        <time>2019-11-21T11:33:10Z</time>
      </trkpt>
      <trkpt lat="47.23222" lon="4.94654">
        <ele>455</ele>
        <time>2019-11-21T11:33:14Z</time>
      </trkpt>
      <trkpt lat="47.23225" lon="4.94648">
        <ele>455</ele>
        <time>2019-11-21T11:33:18Z</time>
      </trkpt>
      <trkpt lat="47.23232" lon="4.94635">
        <ele>457</ele>
        <time>2019-11-21T11:33:28Z</time>
      </trkpt>
      <trkpt lat="47.23234" lon="4.94628">
        <ele>457</ele>
        <time>2019-11-21T11:33:33Z</time>
      </trkpt>
      <trkpt lat="47.23235" lon="4.94621">
        <ele>458</ele>
        <time>2019-11-21T11:33:38Z</time>
      </trkpt>
      <trkpt lat="47.23238" lon="4.94606">
        <ele>459</ele>
        <time>2019-11-21T11:33:50Z</time>
      </trkpt>
      <trkpt lat="47.2324" lon="4.94599">
        <ele>459</ele>
        <time>2019-11-21T11:33:55Z</time>
      </trkpt>
      <trkpt lat="47.23243" lon="4.94593">
        <ele>459</ele>
        <time>2019-11-21T11:34:00Z</time>
      </trkpt>
      <trkpt lat="47.23247" lon="4.94587">
        <ele>459</ele>
        <time>2019-11-21T11:34:05Z</time>
      </trkpt>
      <trkpt lat="47.23254" lon="4.94578">
        <ele>460</ele>
        <time>2019-11-21T11:34:14Z</time>
      </trkpt>
      <trkpt lat="47.23257" lon="4.94572">
        <ele>459</ele>
        <time>2019-11-21T11:34:19Z</time>
      </trkpt>
      <trkpt lat="47.2326" lon="4.94566">
        <ele>459</ele>
        <time>2019-11-21T11:34:23Z</time>
      </trkpt>
      <trkpt lat="47.23265" lon="4.94554">
        <ele>459</ele>
        <time>2019-11-21T11:34:32Z</time>
      </trkpt>
      <trkpt lat="47.23267" lon="4.94548">
        <ele>460</ele>
        <time>2019-11-21T11:34:37Z</time>
      </trkpt>
      <trkpt lat="47.23265" lon="4.94536">
        <ele>460</ele>
        <time>2019-11-21T11:34:51Z</time>
      </trkpt>
      <trkpt lat="47.23262" lon="4.9453">
        <ele>461</ele>
        <time>2019-11-21T11:34:56Z</time>
      </trkpt>
      <trkpt lat="47.23253" lon="4.94523">
        <ele>462</ele>
        <time>2019-11-21T11:35:05Z</time>
      </trkpt>
      <trkpt lat="47.2325" lon="4.94517">
        <ele>462</ele>
        <time>2019-11-21T11:35:09Z</time>
      </trkpt>
      <trkpt lat="47.23238" lon="4.94505">
        <ele>464</ele>
        <time>2019-11-21T11:35:22Z</time>
      </trkpt>
      <trkpt lat="47.23234" lon="4.94499">
        <ele>465</ele>
        <time>2019-11-21T11:35:27Z</time>
      </trkpt>
      <trkpt lat="47.23227" lon="4.94489">
        <ele>465</ele>
        <time>2019-11-21T11:35:35Z</time>
      </trkpt>
      <trkpt lat="47.23223" lon="4.94485">
        <ele>465</ele>
        <time>2019-11-21T11:35:39Z</time>
      </trkpt>
      <trkpt lat="47.2321" lon="4.94472">
        <ele>465</ele>
        <time>2019-11-21T11:35:51Z</time>
      </trkpt>
      <trkpt lat="47.232" lon="4.94469">
        <ele>466</ele>
        <time>2019-11-21T11:36:01Z</time>
      </trkpt>
      <trkpt lat="47.23195" lon="4.94467">
        <ele>465</ele>
        <time>2019-11-21T11:36:06Z</time>
      </trkpt>
      <trkpt lat="47.23186" lon="4.94458">
        <ele>465</ele>
        <time>2019-11-21T11:36:14Z</time>
      </trkpt>
      <trkpt lat="47.23177" lon="4.94451">
        <ele>465</ele>
        <time>2019-11-21T11:36:22Z</time>
      </trkpt>
      <trkpt lat="47.23172" lon="4.94447">
        <ele>465</ele>
        <time>2019-11-21T11:36:26Z</time>
      </trkpt>
      <trkpt lat="47.23165" lon="4.94437">
        <ele>465</ele>
        <time>2019-11-21T11:36:34Z</time>
      </trkpt>
      <trkpt lat="47.23159" lon="4.94427">
        <ele>466</ele>
        <time>2019-11-21T11:36:43Z</time>
      </trkpt>
      <trkpt lat="47.23156" lon="4.94421">
        <ele>466</ele>
        <time>2019-11-21T11:36:48Z</time>
      </trkpt>
      <trkpt lat="47.23148" lon="4.94411">
        <ele>466</ele>
        <time>2019-11-21T11:36:57Z</time>
      </trkpt>
      <trkpt lat="47.23144" lon="4.94403">
        <ele>466</ele>
        <time>2019-11-21T11:37:06Z</time>
      </trkpt>
      <trkpt lat="47.23141" lon="4.94395">
        <ele>466</ele>
        <time>2019-11-21T11:37:13Z</time>
      </trkpt>
      <trkpt lat="47.23138" lon="4.94389">
        <ele>467</ele>
        <time>2019-11-21T11:37:22Z</time>
      </trkpt>
      <trkpt lat="47.23134" lon="4.9439">
        <ele>468</ele>
        <time>2019-11-21T11:58:27Z</time>
      </trkpt>
      <trkpt lat="47.23134" lon="4.94389">
        <ele>468</ele>
        <time>2019-11-21T12:12:44Z</time>
      </trkpt>
      <trkpt lat="47.23118" lon="4.94357">
        <ele>467</ele>
        <time>2019-11-21T12:17:55Z</time>
      </trkpt>
      <trkpt lat="47.23117" lon="4.94343">
        <ele>468</ele>
        <time>2019-11-21T12:18:05Z</time>
      </trkpt>
      <trkpt lat="47.23115" lon="4.94334">
        <ele>467</ele>
        <time>2019-11-21T12:18:13Z</time>
      </trkpt>
      <trkpt lat="47.23113" lon="4.94328">
        <ele>467</ele>
        <time>2019-11-21T12:18:19Z</time>
      </trkpt>
      <trkpt lat="47.23109" lon="4.94318">
        <ele>466</ele>
        <time>2019-11-21T12:18:30Z</time>
      </trkpt>
      <trkpt lat="47.23105" lon="4.94314">
        <ele>465</ele>
        <time>2019-11-21T12:18:34Z</time>
      </trkpt>
      <trkpt lat="47.23102" lon="4.9431">
        <ele>465</ele>
        <time>2019-11-21T12:18:38Z</time>
      </trkpt>
      <trkpt lat="47.23097" lon="4.94306">
        <ele>465</ele>
        <time>2019-11-21T12:18:43Z</time>
      </trkpt>
      <trkpt lat="47.23093" lon="4.94302">
        <ele>465</ele>
        <time>2019-11-21T12:18:47Z</time>
      </trkpt>
      <trkpt lat="47.23089" lon="4.94297">
        <ele>465</ele>
        <time>2019-11-21T12:18:52Z</time>
      </trkpt>
      <trkpt lat="47.2307" lon="4.94251">
        <ele>466</ele>
        <time>2019-11-21T12:19:24Z</time>
      </trkpt>
      <trkpt lat="47.23067" lon="4.94245">
        <ele>466</ele>
        <time>2019-11-21T12:19:28Z</time>
      </trkpt>
      <trkpt lat="47.23066" lon="4.94239">
        <ele>466</ele>
        <time>2019-11-21T12:19:31Z</time>
      </trkpt>
      <trkpt lat="47.23058" lon="4.94211">
        <ele>467</ele>
        <time>2019-11-21T12:19:49Z</time>
      </trkpt>
      <trkpt lat="47.23054" lon="4.94206">
        <ele>467</ele>
        <time>2019-11-21T12:19:53Z</time>
      </trkpt>
      <trkpt lat="47.23047" lon="4.94203">
        <ele>467</ele>
        <time>2019-11-21T12:20:01Z</time>
      </trkpt>
      <trkpt lat="47.2304" lon="4.94193">
        <ele>466</ele>
        <time>2019-11-21T12:20:15Z</time>
      </trkpt>
      <trkpt lat="47.23036" lon="4.94188">
        <ele>467</ele>
        <time>2019-11-21T12:20:19Z</time>
      </trkpt>
      <trkpt lat="47.23033" lon="4.94183">
        <ele>465</ele>
        <time>2019-11-21T12:20:24Z</time>
      </trkpt>
      <trkpt lat="47.23029" lon="4.94178">
        <ele>465</ele>
        <time>2019-11-21T12:20:28Z</time>
      </trkpt>
      <trkpt lat="47.23026" lon="4.94173">
        <ele>465</ele>
        <time>2019-11-21T12:20:32Z</time>
      </trkpt>
      <trkpt lat="47.23017" lon="4.94156">
        <ele>466</ele>
        <time>2019-11-21T12:20:44Z</time>
      </trkpt>
      <trkpt lat="47.23009" lon="4.94146">
        <ele>465</ele>
        <time>2019-11-21T12:20:52Z</time>
      </trkpt>
      <trkpt lat="47.23005" lon="4.94141">
        <ele>465</ele>
        <time>2019-11-21T12:20:56Z</time>
      </trkpt>
      <trkpt lat="47.22997" lon="4.94132">
        <ele>464</ele>
        <time>2019-11-21T12:21:05Z</time>
      </trkpt>
      <trkpt lat="47.22993" lon="4.94126">
        <ele>463</ele>
        <time>2019-11-21T12:21:10Z</time>
      </trkpt>
      <trkpt lat="47.22989" lon="4.94119">
        <ele>463</ele>
        <time>2019-11-21T12:21:16Z</time>
      </trkpt>
      <trkpt lat="47.22985" lon="4.94114">
        <ele>464</ele>
        <time>2019-11-21T12:21:20Z</time>
      </trkpt>
      <trkpt lat="47.22982" lon="4.94109">
        <ele>464</ele>
        <time>2019-11-21T12:21:24Z</time>
      </trkpt>
      <trkpt lat="47.22967" lon="4.94089">
        <ele>464</ele>
        <time>2019-11-21T12:21:42Z</time>
      </trkpt>
      <trkpt lat="47.22962" lon="4.94082">
        <ele>464</ele>
        <time>2019-11-21T12:21:49Z</time>
      </trkpt>
      <trkpt lat="47.22946" lon="4.94063">
        <ele>464</ele>
        <time>2019-11-21T12:22:07Z</time>
      </trkpt>
      <trkpt lat="47.22941" lon="4.94058">
        <ele>465</ele>
        <time>2019-11-21T12:22:12Z</time>
      </trkpt>
      <trkpt lat="47.22937" lon="4.94054">
        <ele>464</ele>
        <time>2019-11-21T12:22:16Z</time>
      </trkpt>
      <trkpt lat="47.22936" lon="4.94044">
        <ele>464</ele>
        <time>2019-11-21T12:22:24Z</time>
      </trkpt>
      <trkpt lat="47.22939" lon="4.94037">
        <ele>462</ele>
        <time>2019-11-21T12:22:28Z</time>
      </trkpt>
      <trkpt lat="47.22941" lon="4.9403">
        <ele>463</ele>
        <time>2019-11-21T12:22:32Z</time>
      </trkpt>
      <trkpt lat="47.22947" lon="4.94017">
        <ele>461</ele>
        <time>2019-11-21T12:22:42Z</time>
      </trkpt>
      <trkpt lat="47.22951" lon="4.94012">
        <ele>462</ele>
        <time>2019-11-21T12:22:47Z</time>
      </trkpt>
      <trkpt lat="47.22954" lon="4.94007">
        <ele>461</ele>
        <time>2019-11-21T12:22:51Z</time>
      </trkpt>
      <trkpt lat="47.22957" lon="4.94">
        <ele>462</ele>
        <time>2019-11-21T12:22:56Z</time>
      </trkpt>
      <trkpt lat="47.22968" lon="4.93987">
        <ele>461</ele>
        <time>2019-11-21T12:23:11Z</time>
      </trkpt>
      <trkpt lat="47.22972" lon="4.93983">
        <ele>461</ele>
        <time>2019-11-21T12:23:16Z</time>
      </trkpt>
      <trkpt lat="47.22976" lon="4.9398">
        <ele>462</ele>
        <time>2019-11-21T12:23:20Z</time>
      </trkpt>
      <trkpt lat="47.22986" lon="4.93974">
        <ele>462</ele>
        <time>2019-11-21T12:23:29Z</time>
      </trkpt>
      <trkpt lat="47.2299" lon="4.93971">
        <ele>462</ele>
        <time>2019-11-21T12:23:33Z</time>
      </trkpt>
      <trkpt lat="47.23003" lon="4.93959">
        <ele>460</ele>
        <time>2019-11-21T12:23:46Z</time>
      </trkpt>
      <trkpt lat="47.23007" lon="4.93952">
        <ele>460</ele>
        <time>2019-11-21T12:23:51Z</time>
      </trkpt>
      <trkpt lat="47.23011" lon="4.93947">
        <ele>461</ele>
        <time>2019-11-21T12:23:56Z</time>
      </trkpt>
      <trkpt lat="47.23029" lon="4.93934">
        <ele>460</ele>
        <time>2019-11-21T12:24:14Z</time>
      </trkpt>
      <trkpt lat="47.23052" lon="4.93912">
        <ele>462</ele>
        <time>2019-11-21T12:24:37Z</time>
      </trkpt>
      <trkpt lat="47.23057" lon="4.939">
        <ele>463</ele>
        <time>2019-11-21T12:24:47Z</time>
      </trkpt>
      <trkpt lat="47.23064" lon="4.93892">
        <ele>463</ele>
        <time>2019-11-21T12:25:05Z</time>
      </trkpt>
      <trkpt lat="47.23071" lon="4.93904">
        <ele>465</ele>
        <time>2019-11-21T12:25:29Z</time>
      </trkpt>
      <trkpt lat="47.23081" lon="4.93922">
        <ele>466</ele>
        <time>2019-11-21T12:25:51Z</time>
      </trkpt>
      <trkpt lat="47.23092" lon="4.93926">
        <ele>466</ele>
        <time>2019-11-21T12:26:02Z</time>
      </trkpt>
      <trkpt lat="47.23103" lon="4.93949">
        <ele>467</ele>
        <time>2019-11-21T12:26:20Z</time>
      </trkpt>
      <trkpt lat="47.23111" lon="4.93958">
        <ele>468</ele>
        <time>2019-11-21T12:26:29Z</time>
      </trkpt>
      <trkpt lat="47.23121" lon="4.93961">
        <ele>469</ele>
        <time>2019-11-21T12:26:49Z</time>
      </trkpt>
      <trkpt lat="47.23131" lon="4.93954">
        <ele>468</ele>
        <time>2019-11-21T12:26:57Z</time>
      </trkpt>
      <trkpt lat="47.23138" lon="4.93944">
        <ele>469</ele>
        <time>2019-11-21T12:27:06Z</time>
      </trkpt>
      <trkpt lat="47.23144" lon="4.93935">
        <ele>469</ele>
        <time>2019-11-21T12:27:14Z</time>
      </trkpt>
      <trkpt lat="47.23152" lon="4.93925">
        <ele>469</ele>
        <time>2019-11-21T12:27:22Z</time>
      </trkpt>
      <trkpt lat="47.23158" lon="4.93915">
        <ele>470</ele>
        <time>2019-11-21T12:27:31Z</time>
      </trkpt>
      <trkpt lat="47.23166" lon="4.93907">
        <ele>470</ele>
        <time>2019-11-21T12:27:39Z</time>
      </trkpt>
      <trkpt lat="47.23172" lon="4.93897">
        <ele>470</ele>
        <time>2019-11-21T12:27:47Z</time>
      </trkpt>
      <trkpt lat="47.23193" lon="4.93871">
        <ele>471</ele>
        <time>2019-11-21T12:28:11Z</time>
      </trkpt>
      <trkpt lat="47.23199" lon="4.93859">
        <ele>473</ele>
        <time>2019-11-21T12:28:20Z</time>
      </trkpt>
      <trkpt lat="47.23208" lon="4.93852">
        <ele>473</ele>
        <time>2019-11-21T12:28:25Z</time>
      </trkpt>
      <trkpt lat="47.23214" lon="4.93843">
        <ele>474</ele>
        <time>2019-11-21T12:28:33Z</time>
      </trkpt>
      <trkpt lat="47.2323" lon="4.93816">
        <ele>474</ele>
        <time>2019-11-21T12:28:56Z</time>
      </trkpt>
      <trkpt lat="47.23238" lon="4.9381">
        <ele>475</ele>
        <time>2019-11-21T12:29:02Z</time>
      </trkpt>
      <trkpt lat="47.23244" lon="4.938">
        <ele>474</ele>
        <time>2019-11-21T12:29:11Z</time>
      </trkpt>
      <trkpt lat="47.23248" lon="4.93796">
        <ele>474</ele>
        <time>2019-11-21T12:29:15Z</time>
      </trkpt>
      <trkpt lat="47.23252" lon="4.9379">
        <ele>473</ele>
        <time>2019-11-21T12:29:23Z</time>
      </trkpt>
      <trkpt lat="47.23264" lon="4.93773">
        <ele>475</ele>
        <time>2019-11-21T12:29:45Z</time>
      </trkpt>
      <trkpt lat="47.23267" lon="4.93767">
        <ele>475</ele>
        <time>2019-11-21T12:29:53Z</time>
      </trkpt>
      <trkpt lat="47.23269" lon="4.93761">
        <ele>475</ele>
        <time>2019-11-21T12:29:58Z</time>
      </trkpt>
      <trkpt lat="47.23284" lon="4.93744">
        <ele>474</ele>
        <time>2019-11-21T12:30:15Z</time>
      </trkpt>
      <trkpt lat="47.23287" lon="4.93736">
        <ele>474</ele>
        <time>2019-11-21T12:30:23Z</time>
      </trkpt>
      <trkpt lat="47.23292" lon="4.9373">
        <ele>473</ele>
        <time>2019-11-21T12:30:27Z</time>
      </trkpt>
      <trkpt lat="47.23295" lon="4.93726">
        <ele>474</ele>
        <time>2019-11-21T12:30:31Z</time>
      </trkpt>
      <trkpt lat="47.23299" lon="4.93721">
        <ele>473</ele>
        <time>2019-11-21T12:30:35Z</time>
      </trkpt>
      <trkpt lat="47.23302" lon="4.93715">
        <ele>475</ele>
        <time>2019-11-21T12:30:39Z</time>
      </trkpt>
      <trkpt lat="47.23305" lon="4.9371">
        <ele>475</ele>
        <time>2019-11-21T12:30:43Z</time>
      </trkpt>
      <trkpt lat="47.2331" lon="4.93698">
        <ele>476</ele>
        <time>2019-11-21T12:30:52Z</time>
      </trkpt>
      <trkpt lat="47.23313" lon="4.9368">
        <ele>476</ele>
        <time>2019-11-21T12:31:06Z</time>
      </trkpt>
      <trkpt lat="47.23329" lon="4.93628">
        <ele>480</ele>
        <time>2019-11-21T12:31:44Z</time>
      </trkpt>
      <trkpt lat="47.23335" lon="4.9361">
        <ele>481</ele>
        <time>2019-11-21T12:31:59Z</time>
      </trkpt>
      <trkpt lat="47.2334" lon="4.93578">
        <ele>482</ele>
        <time>2019-11-21T12:32:21Z</time>
      </trkpt>
      <trkpt lat="47.23343" lon="4.93566">
        <ele>482</ele>
        <time>2019-11-21T12:32:30Z</time>
      </trkpt>
      <trkpt lat="47.23357" lon="4.93518">
        <ele>485</ele>
        <time>2019-11-21T12:33:05Z</time>
      </trkpt>
      <trkpt lat="47.23361" lon="4.93507">
        <ele>485</ele>
        <time>2019-11-21T12:33:12Z</time>
      </trkpt>
      <trkpt lat="47.23362" lon="4.93493">
        <ele>484</ele>
        <time>2019-11-21T12:33:30Z</time>
      </trkpt>
      <trkpt lat="47.23366" lon="4.93473">
        <ele>485</ele>
        <time>2019-11-21T12:33:45Z</time>
      </trkpt>
      <trkpt lat="47.2337" lon="4.93461">
        <ele>486</ele>
        <time>2019-11-21T12:33:53Z</time>
      </trkpt>
      <trkpt lat="47.23374" lon="4.93448">
        <ele>485</ele>
        <time>2019-11-21T12:34:02Z</time>
      </trkpt>
      <trkpt lat="47.23384" lon="4.93425">
        <ele>487</ele>
        <time>2019-11-21T12:34:21Z</time>
      </trkpt>
      <trkpt lat="47.23386" lon="4.93415">
        <ele>488</ele>
        <time>2019-11-21T12:34:29Z</time>
      </trkpt>
      <trkpt lat="47.23387" lon="4.93407">
        <ele>488</ele>
        <time>2019-11-21T12:34:34Z</time>
      </trkpt>
      <trkpt lat="47.23388" lon="4.934">
        <ele>489</ele>
        <time>2019-11-21T12:34:39Z</time>
      </trkpt>
      <trkpt lat="47.23389" lon="4.93392">
        <ele>490</ele>
        <time>2019-11-21T12:34:44Z</time>
      </trkpt>
      <trkpt lat="47.23392" lon="4.93383">
        <ele>490</ele>
        <time>2019-11-21T12:34:53Z</time>
      </trkpt>
      <trkpt lat="47.23388" lon="4.93378">
        <ele>490</ele>
        <time>2019-11-21T12:34:57Z</time>
      </trkpt>
      <trkpt lat="47.23374" lon="4.93361">
        <ele>491</ele>
        <time>2019-11-21T12:35:16Z</time>
      </trkpt>
      <trkpt lat="47.23365" lon="4.93349">
        <ele>491</ele>
        <time>2019-11-21T12:35:27Z</time>
      </trkpt>
      <trkpt lat="47.23361" lon="4.93343">
        <ele>491</ele>
        <time>2019-11-21T12:35:32Z</time>
      </trkpt>
      <trkpt lat="47.23354" lon="4.93332">
        <ele>491</ele>
        <time>2019-11-21T12:35:41Z</time>
      </trkpt>
      <trkpt lat="47.2335" lon="4.93327">
        <ele>491</ele>
        <time>2019-11-21T12:35:45Z</time>
      </trkpt>
      <trkpt lat="47.23343" lon="4.93316">
        <ele>492</ele>
        <time>2019-11-21T12:35:53Z</time>
      </trkpt>
      <trkpt lat="47.23335" lon="4.93307">
        <ele>492</ele>
        <time>2019-11-21T12:36:02Z</time>
      </trkpt>
      <trkpt lat="47.23328" lon="4.93297">
        <ele>492</ele>
        <time>2019-11-21T12:36:10Z</time>
      </trkpt>
      <trkpt lat="47.23321" lon="4.93288">
        <ele>491</ele>
        <time>2019-11-21T12:36:18Z</time>
      </trkpt>
      <trkpt lat="47.23314" lon="4.93276">
        <ele>491</ele>
        <time>2019-11-21T12:36:26Z</time>
      </trkpt>
      <trkpt lat="47.23309" lon="4.93271">
        <ele>491</ele>
        <time>2019-11-21T12:36:30Z</time>
      </trkpt>
      <trkpt lat="47.23302" lon="4.93261">
        <ele>491</ele>
        <time>2019-11-21T12:36:36Z</time>
      </trkpt>
      <trkpt lat="47.23298" lon="4.93257">
        <ele>491</ele>
        <time>2019-11-21T12:36:40Z</time>
      </trkpt>
      <trkpt lat="47.23291" lon="4.93245">
        <ele>491</ele>
        <time>2019-11-21T12:36:48Z</time>
      </trkpt>
      <trkpt lat="47.23275" lon="4.93225">
        <ele>492</ele>
        <time>2019-11-21T12:37:06Z</time>
      </trkpt>
      <trkpt lat="47.23267" lon="4.93216">
        <ele>492</ele>
        <time>2019-11-21T12:37:15Z</time>
      </trkpt>
      <trkpt lat="47.23264" lon="4.9321">
        <ele>492</ele>
        <time>2019-11-21T12:37:19Z</time>
      </trkpt>
      <trkpt lat="47.23257" lon="4.932">
        <ele>492</ele>
        <time>2019-11-21T12:37:27Z</time>
      </trkpt>
      <trkpt lat="47.23249" lon="4.93191">
        <ele>491</ele>
        <time>2019-11-21T12:37:36Z</time>
      </trkpt>
      <trkpt lat="47.23224" lon="4.93159">
        <ele>491</ele>
        <time>2019-11-21T12:38:04Z</time>
      </trkpt>
      <trkpt lat="47.2322" lon="4.93152">
        <ele>492</ele>
        <time>2019-11-21T12:38:08Z</time>
      </trkpt>
      <trkpt lat="47.23216" lon="4.93147">
        <ele>492</ele>
        <time>2019-11-21T12:38:12Z</time>
      </trkpt>
      <trkpt lat="47.23212" lon="4.93143">
        <ele>492</ele>
        <time>2019-11-21T12:38:16Z</time>
      </trkpt>
      <trkpt lat="47.23199" lon="4.93126">
        <ele>493</ele>
        <time>2019-11-21T12:38:33Z</time>
      </trkpt>
      <trkpt lat="47.23192" lon="4.93117">
        <ele>492</ele>
        <time>2019-11-21T12:38:42Z</time>
      </trkpt>
      <trkpt lat="47.23184" lon="4.93107">
        <ele>492</ele>
        <time>2019-11-21T12:38:50Z</time>
      </trkpt>
      <trkpt lat="47.2318" lon="4.93102">
        <ele>493</ele>
        <time>2019-11-21T12:38:57Z</time>
      </trkpt>
      <trkpt lat="47.23166" lon="4.93081">
        <ele>490</ele>
        <time>2019-11-21T12:39:35Z</time>
      </trkpt>
      <trkpt lat="47.23162" lon="4.93076">
        <ele>486</ele>
        <time>2019-11-21T12:39:47Z</time>
      </trkpt>
      <trkpt lat="47.23165" lon="4.93063">
        <ele>485</ele>
        <time>2019-11-21T12:40:00Z</time>
      </trkpt>
      <trkpt lat="47.2317" lon="4.93056">
        <ele>487</ele>
        <time>2019-11-21T12:40:08Z</time>
      </trkpt>
      <trkpt lat="47.2317" lon="4.93046">
        <ele>484</ele>
        <time>2019-11-21T12:40:20Z</time>
      </trkpt>
      <trkpt lat="47.23182" lon="4.93033">
        <ele>483</ele>
        <time>2019-11-21T12:40:38Z</time>
      </trkpt>
      <trkpt lat="47.23197" lon="4.93009">
        <ele>480</ele>
        <time>2019-11-21T12:40:59Z</time>
      </trkpt>
      <trkpt lat="47.23201" lon="4.92997">
        <ele>479</ele>
        <time>2019-11-21T12:41:07Z</time>
      </trkpt>
      <trkpt lat="47.23211" lon="4.92985">
        <ele>477</ele>
        <time>2019-11-21T12:41:18Z</time>
      </trkpt>
      <trkpt lat="47.23217" lon="4.92975">
        <ele>478</ele>
        <time>2019-11-21T12:41:27Z</time>
      </trkpt>
      <trkpt lat="47.23235" lon="4.92942">
        <ele>477</ele>
        <time>2019-11-21T12:41:54Z</time>
      </trkpt>
      <trkpt lat="47.23239" lon="4.92932">
        <ele>477</ele>
        <time>2019-11-21T12:42:03Z</time>
      </trkpt>
      <trkpt lat="47.23245" lon="4.92919">
        <ele>478</ele>
        <time>2019-11-21T12:42:17Z</time>
      </trkpt>
      <trkpt lat="47.23232" lon="4.92912">
        <ele>480</ele>
        <time>2019-11-21T12:42:49Z</time>
      </trkpt>
      <trkpt lat="47.2322" lon="4.92912">
        <ele>480</ele>
        <time>2019-11-21T12:43:00Z</time>
      </trkpt>
      <trkpt lat="47.23211" lon="4.92919">
        <ele>480</ele>
        <time>2019-11-21T12:43:08Z</time>
      </trkpt>
      <trkpt lat="47.23204" lon="4.92927">
        <ele>479</ele>
        <time>2019-11-21T12:43:17Z</time>
      </trkpt>
      <trkpt lat="47.23196" lon="4.92938">
        <ele>478</ele>
        <time>2019-11-21T12:43:24Z</time>
      </trkpt>
      <trkpt lat="47.2319" lon="4.92949">
        <ele>478</ele>
        <time>2019-11-21T12:43:29Z</time>
      </trkpt>
      <trkpt lat="47.23185" lon="4.92959">
        <ele>477</ele>
        <time>2019-11-21T12:43:37Z</time>
      </trkpt>
      <trkpt lat="47.23177" lon="4.92966">
        <ele>477</ele>
        <time>2019-11-21T12:43:46Z</time>
      </trkpt>
      <trkpt lat="47.23168" lon="4.92974">
        <ele>475</ele>
        <time>2019-11-21T12:43:58Z</time>
      </trkpt>
      <trkpt lat="47.23159" lon="4.92979">
        <ele>475</ele>
        <time>2019-11-21T12:44:06Z</time>
      </trkpt>
      <trkpt lat="47.23148" lon="4.92988">
        <ele>474</ele>
        <time>2019-11-21T12:44:21Z</time>
      </trkpt>
      <trkpt lat="47.23139" lon="4.92991">
        <ele>473</ele>
        <time>2019-11-21T12:44:30Z</time>
      </trkpt>
      <trkpt lat="47.23128" lon="4.92986">
        <ele>474</ele>
        <time>2019-11-21T12:44:41Z</time>
      </trkpt>
      <trkpt lat="47.23119" lon="4.92983">
        <ele>473</ele>
        <time>2019-11-21T12:44:49Z</time>
      </trkpt>
      <trkpt lat="47.23108" lon="4.92981">
        <ele>473</ele>
        <time>2019-11-21T12:44:59Z</time>
      </trkpt>
      <trkpt lat="47.23079" lon="4.92971">
        <ele>470</ele>
        <time>2019-11-21T12:45:23Z</time>
      </trkpt>
      <trkpt lat="47.2307" lon="4.92967">
        <ele>470</ele>
        <time>2019-11-21T12:45:32Z</time>
      </trkpt>
      <trkpt lat="47.23057" lon="4.92969">
        <ele>469</ele>
        <time>2019-11-21T12:45:48Z</time>
      </trkpt>
      <trkpt lat="47.23016" lon="4.92981">
        <ele>468</ele>
        <time>2019-11-21T12:46:29Z</time>
      </trkpt>
      <trkpt lat="47.23008" lon="4.92989">
        <ele>468</ele>
        <time>2019-11-21T12:46:42Z</time>
      </trkpt>
      <trkpt lat="47.23001" lon="4.93001">
        <ele>467</ele>
        <time>2019-11-21T12:46:51Z</time>
      </trkpt>
      <trkpt lat="47.22987" lon="4.93017">
        <ele>465</ele>
        <time>2019-11-21T12:47:07Z</time>
      </trkpt>
      <trkpt lat="47.22978" lon="4.93021">
        <ele>465</ele>
        <time>2019-11-21T12:47:16Z</time>
      </trkpt>
      <trkpt lat="47.22967" lon="4.93018">
        <ele>464</ele>
        <time>2019-11-21T12:47:27Z</time>
      </trkpt>
      <trkpt lat="47.22959" lon="4.93011">
        <ele>464</ele>
        <time>2019-11-21T12:47:36Z</time>
      </trkpt>
      <trkpt lat="47.22949" lon="4.93004">
        <ele>464</ele>
        <time>2019-11-21T12:47:45Z</time>
      </trkpt>
      <trkpt lat="47.22939" lon="4.92999">
        <ele>463</ele>
        <time>2019-11-21T12:47:55Z</time>
      </trkpt>
      <trkpt lat="47.2293" lon="4.92992">
        <ele>463</ele>
        <time>2019-11-21T12:48:03Z</time>
      </trkpt>
      <trkpt lat="47.22921" lon="4.92987">
        <ele>463</ele>
        <time>2019-11-21T12:48:11Z</time>
      </trkpt>
      <trkpt lat="47.2291" lon="4.92985">
        <ele>463</ele>
        <time>2019-11-21T12:48:21Z</time>
      </trkpt>
      <trkpt lat="47.22891" lon="4.92986">
        <ele>462</ele>
        <time>2019-11-21T12:48:37Z</time>
      </trkpt>
      <trkpt lat="47.22875" lon="4.93004">
        <ele>459</ele>
        <time>2019-11-21T12:48:54Z</time>
      </trkpt>
      <trkpt lat="47.22869" lon="4.93014">
        <ele>459</ele>
        <time>2019-11-21T12:49:03Z</time>
      </trkpt>
      <trkpt lat="47.22863" lon="4.93024">
        <ele>458</ele>
        <time>2019-11-21T12:49:13Z</time>
      </trkpt>
      <trkpt lat="47.22855" lon="4.93029">
        <ele>457</ele>
        <time>2019-11-21T12:49:21Z</time>
      </trkpt>
      <trkpt lat="47.2285" lon="4.93031">
        <ele>457</ele>
        <time>2019-11-21T12:49:29Z</time>
      </trkpt>
      <trkpt lat="47.22845" lon="4.93032">
        <ele>457</ele>
        <time>2019-11-21T12:49:35Z</time>
      </trkpt>
      <trkpt lat="47.22825" lon="4.93041">
        <ele>456</ele>
        <time>2019-11-21T12:49:50Z</time>
      </trkpt>
      <trkpt lat="47.2282" lon="4.93039">
        <ele>455</ele>
        <time>2019-11-21T12:49:55Z</time>
      </trkpt>
      <trkpt lat="47.22795" lon="4.93013">
        <ele>454</ele>
        <time>2019-11-21T12:50:20Z</time>
      </trkpt>
      <trkpt lat="47.2276" lon="4.92988">
        <ele>454</ele>
        <time>2019-11-21T12:50:55Z</time>
      </trkpt>
      <trkpt lat="47.22751" lon="4.92982">
        <ele>454</ele>
        <time>2019-11-21T12:51:08Z</time>
      </trkpt>
      <trkpt lat="47.22746" lon="4.92991">
        <ele>451</ele>
        <time>2019-11-21T12:51:51Z</time>
      </trkpt>
      <trkpt lat="47.22742" lon="4.92983">
        <ele>450</ele>
        <time>2019-11-21T12:52:45Z</time>
      </trkpt>
      <trkpt lat="47.22732" lon="4.9297">
        <ele>449</ele>
        <time>2019-11-21T12:53:03Z</time>
      </trkpt>
      <trkpt lat="47.22725" lon="4.92968">
        <ele>449</ele>
        <time>2019-11-21T12:53:15Z</time>
      </trkpt>
      <trkpt lat="47.2272" lon="4.92967">
        <ele>450</ele>
        <time>2019-11-21T12:53:21Z</time>
      </trkpt>
      <trkpt lat="47.22714" lon="4.92957">
        <ele>450</ele>
        <time>2019-11-21T12:53:39Z</time>
      </trkpt>
      <trkpt lat="47.22705" lon="4.92952">
        <ele>453</ele>
        <time>2019-11-21T12:54:09Z</time>
      </trkpt>
      <trkpt lat="47.22697" lon="4.92944">
        <ele>455</ele>
        <time>2019-11-21T12:54:51Z</time>
      </trkpt>
      <trkpt lat="47.22693" lon="4.9294">
        <ele>454</ele>
        <time>2019-11-21T12:55:09Z</time>
      </trkpt>
      <trkpt lat="47.22686" lon="4.92937">
        <ele>455</ele>
        <time>2019-11-21T12:55:21Z</time>
      </trkpt>
      <trkpt lat="47.2268" lon="4.92933">
        <ele>455</ele>
        <time>2019-11-21T12:55:33Z</time>
      </trkpt>
      <trkpt lat="47.22674" lon="4.92932">
        <ele>456</ele>
        <time>2019-11-21T12:55:45Z</time>
      </trkpt>
      <trkpt lat="47.22669" lon="4.92928">
        <ele>456</ele>
        <time>2019-11-21T12:55:57Z</time>
      </trkpt>
      <trkpt lat="47.22664" lon="4.9292">
        <ele>458</ele>
        <time>2019-11-21T12:56:08Z</time>
      </trkpt>
      <trkpt lat="47.22662" lon="4.92913">
        <ele>459</ele>
        <time>2019-11-21T12:56:14Z</time>
      </trkpt>
      <trkpt lat="47.22662" lon="4.92907">
        <ele>460</ele>
        <time>2019-11-21T12:56:20Z</time>
      </trkpt>
      <trkpt lat="47.22662" lon="4.92894">
        <ele>461</ele>
        <time>2019-11-21T12:56:32Z</time>
      </trkpt>
      <trkpt lat="47.22661" lon="4.92875">
        <ele>464</ele>
        <time>2019-11-21T12:56:49Z</time>
      </trkpt>
      <trkpt lat="47.22659" lon="4.92869">
        <ele>465</ele>
        <time>2019-11-21T12:56:57Z</time>
      </trkpt>
      <trkpt lat="47.22651" lon="4.92867">
        <ele>464</ele>
        <time>2019-11-21T12:57:15Z</time>
      </trkpt>
      <trkpt lat="47.22646" lon="4.92872">
        <ele>467</ele>
        <time>2019-11-21T12:57:25Z</time>
      </trkpt>
      <trkpt lat="47.22642" lon="4.92876">
        <ele>467</ele>
        <time>2019-11-21T12:57:31Z</time>
      </trkpt>
      <trkpt lat="47.22637" lon="4.9288">
        <ele>467</ele>
        <time>2019-11-21T12:57:36Z</time>
      </trkpt>
      <trkpt lat="47.22629" lon="4.92887">
        <ele>467</ele>
        <time>2019-11-21T12:57:45Z</time>
      </trkpt>
      <trkpt lat="47.22624" lon="4.92889">
        <ele>467</ele>
        <time>2019-11-21T12:57:50Z</time>
      </trkpt>
      <trkpt lat="47.22613" lon="4.9289">
        <ele>467</ele>
        <time>2019-11-21T12:57:59Z</time>
      </trkpt>
      <trkpt lat="47.22601" lon="4.92888">
        <ele>467</ele>
        <time>2019-11-21T12:58:11Z</time>
      </trkpt>
      <trkpt lat="47.22596" lon="4.92888">
        <ele>467</ele>
        <time>2019-11-21T12:58:15Z</time>
      </trkpt>
      <trkpt lat="47.22587" lon="4.92889">
        <ele>466</ele>
        <time>2019-11-21T12:58:23Z</time>
      </trkpt>
      <trkpt lat="47.22582" lon="4.92889">
        <ele>467</ele>
        <time>2019-11-21T12:58:27Z</time>
      </trkpt>
      <trkpt lat="47.22577" lon="4.92893">
        <ele>468</ele>
        <time>2019-11-21T12:58:32Z</time>
      </trkpt>
      <trkpt lat="47.22573" lon="4.92896">
        <ele>467</ele>
        <time>2019-11-21T12:58:36Z</time>
      </trkpt>
      <trkpt lat="47.22568" lon="4.92899">
        <ele>467</ele>
        <time>2019-11-21T12:58:40Z</time>
      </trkpt>
      <trkpt lat="47.22564" lon="4.92901">
        <ele>468</ele>
        <time>2019-11-21T12:58:45Z</time>
      </trkpt>
      <trkpt lat="47.22559" lon="4.92905">
        <ele>467</ele>
        <time>2019-11-21T12:58:50Z</time>
      </trkpt>
      <trkpt lat="47.2255" lon="4.92913">
        <ele>468</ele>
        <time>2019-11-21T12:58:59Z</time>
      </trkpt>
      <trkpt lat="47.22546" lon="4.92916">
        <ele>467</ele>
        <time>2019-11-21T12:59:04Z</time>
      </trkpt>
      <trkpt lat="47.2253" lon="4.92924">
        <ele>466</ele>
        <time>2019-11-21T12:59:20Z</time>
      </trkpt>
      <trkpt lat="47.22525" lon="4.92925">
        <ele>466</ele>
        <time>2019-11-21T12:59:24Z</time>
      </trkpt>
      <trkpt lat="47.2252" lon="4.92926">
        <ele>466</ele>
        <time>2019-11-21T12:59:28Z</time>
      </trkpt>
      <trkpt lat="47.22515" lon="4.92925">
        <ele>466</ele>
        <time>2019-11-21T12:59:32Z</time>
      </trkpt>
      <trkpt lat="47.2251" lon="4.92923">
        <ele>466</ele>
        <time>2019-11-21T12:59:37Z</time>
      </trkpt>
      <trkpt lat="47.22505" lon="4.92921">
        <ele>465</ele>
        <time>2019-11-21T12:59:41Z</time>
      </trkpt>
      <trkpt lat="47.22478" lon="4.92899">
        <ele>462</ele>
        <time>2019-11-21T13:00:11Z</time>
      </trkpt>
      <trkpt lat="47.22473" lon="4.92896">
        <ele>461</ele>
        <time>2019-11-21T13:00:19Z</time>
      </trkpt>
      <trkpt lat="47.22471" lon="4.9291">
        <ele>461</ele>
        <time>2019-11-21T13:00:31Z</time>
      </trkpt>
      <trkpt lat="47.22472" lon="4.92923">
        <ele>459</ele>
        <time>2019-11-21T13:00:42Z</time>
      </trkpt>
      <trkpt lat="47.22472" lon="4.92932">
        <ele>459</ele>
        <time>2019-11-21T13:00:47Z</time>
      </trkpt>
      <trkpt lat="47.22472" lon="4.92946">
        <ele>458</ele>
        <time>2019-11-21T13:00:56Z</time>
      </trkpt>
      <trkpt lat="47.22469" lon="4.92974">
        <ele>456</ele>
        <time>2019-11-21T13:01:20Z</time>
      </trkpt>
      <trkpt lat="47.22467" lon="4.92981">
        <ele>455</ele>
        <time>2019-11-21T13:01:32Z</time>
      </trkpt>
      <trkpt lat="47.22468" lon="4.92981">
        <ele>455</ele>
        <time>2019-11-21T13:04:49Z</time>
      </trkpt>
      <trkpt lat="47.22468" lon="4.92974">
        <ele>453</ele>
        <time>2019-11-21T13:05:01Z</time>
      </trkpt>
      <trkpt lat="47.22468" lon="4.92965">
        <ele>452</ele>
        <time>2019-11-21T13:06:25Z</time>
      </trkpt>
      <trkpt lat="47.22468" lon="4.92958">
        <ele>453</ele>
        <time>2019-11-21T13:06:31Z</time>
      </trkpt>
      <trkpt lat="47.22469" lon="4.92944">
        <ele>454</ele>
        <time>2019-11-21T13:06:42Z</time>
      </trkpt>
      <trkpt lat="47.22469" lon="4.92926">
        <ele>453</ele>
        <time>2019-11-21T13:06:55Z</time>
      </trkpt>
      <trkpt lat="47.22468" lon="4.92919">
        <ele>453</ele>
        <time>2019-11-21T13:07:00Z</time>
      </trkpt>
      <trkpt lat="47.22471" lon="4.92911">
        <ele>453</ele>
        <time>2019-11-21T13:07:08Z</time>
      </trkpt>
      <trkpt lat="47.22472" lon="4.92903">
        <ele>453</ele>
        <time>2019-11-21T13:07:20Z</time>
      </trkpt>
      <trkpt lat="47.22482" lon="4.92905">
        <ele>455</ele>
        <time>2019-11-21T13:07:32Z</time>
      </trkpt>
      <trkpt lat="47.22486" lon="4.9291">
        <ele>455</ele>
        <time>2019-11-21T13:07:37Z</time>
      </trkpt>
      <trkpt lat="47.22492" lon="4.92915">
        <ele>455</ele>
        <time>2019-11-21T13:07:44Z</time>
      </trkpt>
      <trkpt lat="47.22502" lon="4.92918">
        <ele>457</ele>
        <time>2019-11-21T13:07:53Z</time>
      </trkpt>
      <trkpt lat="47.22511" lon="4.92921">
        <ele>456</ele>
        <time>2019-11-21T13:08:02Z</time>
      </trkpt>
      <trkpt lat="47.22531" lon="4.92923">
        <ele>458</ele>
        <time>2019-11-21T13:08:22Z</time>
      </trkpt>
      <trkpt lat="47.2255" lon="4.92911">
        <ele>460</ele>
        <time>2019-11-21T13:08:44Z</time>
      </trkpt>
      <trkpt lat="47.2258" lon="4.92897">
        <ele>462</ele>
        <time>2019-11-21T13:09:16Z</time>
      </trkpt>
      <trkpt lat="47.22589" lon="4.92897">
        <ele>463</ele>
        <time>2019-11-21T13:09:24Z</time>
      </trkpt>
      <trkpt lat="47.22614" lon="4.929">
        <ele>463</ele>
        <time>2019-11-21T13:09:45Z</time>
      </trkpt>
      <trkpt lat="47.22624" lon="4.92894">
        <ele>463</ele>
        <time>2019-11-21T13:09:55Z</time>
      </trkpt>
      <trkpt lat="47.22631" lon="4.92885">
        <ele>464</ele>
        <time>2019-11-21T13:10:05Z</time>
      </trkpt>
      <trkpt lat="47.22657" lon="4.92867">
        <ele>466</ele>
        <time>2019-11-21T13:10:30Z</time>
      </trkpt>
      <trkpt lat="47.22664" lon="4.92886">
        <ele>468</ele>
        <time>2019-11-21T13:10:48Z</time>
      </trkpt>
      <trkpt lat="47.22661" lon="4.92899">
        <ele>467</ele>
        <time>2019-11-21T13:10:57Z</time>
      </trkpt>
      <trkpt lat="47.22662" lon="4.92919">
        <ele>466</ele>
        <time>2019-11-21T13:11:14Z</time>
      </trkpt>
      <trkpt lat="47.22664" lon="4.92925">
        <ele>466</ele>
        <time>2019-11-21T13:11:20Z</time>
      </trkpt>
      <trkpt lat="47.22677" lon="4.92928">
        <ele>466</ele>
        <time>2019-11-21T13:11:36Z</time>
      </trkpt>
      <trkpt lat="47.22682" lon="4.92934">
        <ele>465</ele>
        <time>2019-11-21T13:11:50Z</time>
      </trkpt>
      <trkpt lat="47.22687" lon="4.9294">
        <ele>464</ele>
        <time>2019-11-21T13:12:08Z</time>
      </trkpt>
      <trkpt lat="47.22692" lon="4.92952">
        <ele>462</ele>
        <time>2019-11-21T13:12:38Z</time>
      </trkpt>
      <trkpt lat="47.22702" lon="4.9296">
        <ele>460</ele>
        <time>2019-11-21T13:13:09Z</time>
      </trkpt>
      <trkpt lat="47.2271" lon="4.92959">
        <ele>457</ele>
        <time>2019-11-21T13:13:39Z</time>
      </trkpt>
      <trkpt lat="47.22716" lon="4.92974">
        <ele>455</ele>
        <time>2019-11-21T13:14:21Z</time>
      </trkpt>
      <trkpt lat="47.22728" lon="4.92974">
        <ele>453</ele>
        <time>2019-11-21T13:14:41Z</time>
      </trkpt>
      <trkpt lat="47.22742" lon="4.92984">
        <ele>451</ele>
        <time>2019-11-21T13:15:08Z</time>
      </trkpt>
      <trkpt lat="47.22734" lon="4.92989">
        <ele>448</ele>
        <time>2019-11-21T13:18:33Z</time>
      </trkpt>
      <trkpt lat="47.22727" lon="4.92992">
        <ele>446</ele>
        <time>2019-11-21T13:18:45Z</time>
      </trkpt>
      <trkpt lat="47.2272" lon="4.92994">
        <ele>447</ele>
        <time>2019-11-21T13:19:03Z</time>
      </trkpt>
      <trkpt lat="47.22715" lon="4.93001">
        <ele>447</ele>
        <time>2019-11-21T13:19:15Z</time>
      </trkpt>
      <trkpt lat="47.22711" lon="4.93004">
        <ele>447</ele>
        <time>2019-11-21T13:19:21Z</time>
      </trkpt>
      <trkpt lat="47.22707" lon="4.9301">
        <ele>448</ele>
        <time>2019-11-21T13:19:27Z</time>
      </trkpt>
      <trkpt lat="47.22703" lon="4.93014">
        <ele>448</ele>
        <time>2019-11-21T13:19:32Z</time>
      </trkpt>
      <trkpt lat="47.227" lon="4.9302">
        <ele>447</ele>
        <time>2019-11-21T13:19:37Z</time>
      </trkpt>
      <trkpt lat="47.22692" lon="4.93033">
        <ele>446</ele>
        <time>2019-11-21T13:19:50Z</time>
      </trkpt>
      <trkpt lat="47.2269" lon="4.93039">
        <ele>445</ele>
        <time>2019-11-21T13:19:55Z</time>
      </trkpt>
      <trkpt lat="47.2268" lon="4.93049">
        <ele>445</ele>
        <time>2019-11-21T13:20:07Z</time>
      </trkpt>
      <trkpt lat="47.22676" lon="4.93053">
        <ele>446</ele>
        <time>2019-11-21T13:20:12Z</time>
      </trkpt>
      <trkpt lat="47.22671" lon="4.93052">
        <ele>446</ele>
        <time>2019-11-21T13:20:17Z</time>
      </trkpt>
      <trkpt lat="47.22662" lon="4.93046">
        <ele>446</ele>
        <time>2019-11-21T13:20:28Z</time>
      </trkpt>
      <trkpt lat="47.22657" lon="4.93044">
        <ele>446</ele>
        <time>2019-11-21T13:20:33Z</time>
      </trkpt>
      <trkpt lat="47.22651" lon="4.93042">
        <ele>446</ele>
        <time>2019-11-21T13:20:38Z</time>
      </trkpt>
      <trkpt lat="47.22642" lon="4.93042">
        <ele>445</ele>
        <time>2019-11-21T13:20:48Z</time>
      </trkpt>
      <trkpt lat="47.22637" lon="4.9304">
        <ele>445</ele>
        <time>2019-11-21T13:20:53Z</time>
      </trkpt>
      <trkpt lat="47.22632" lon="4.93041">
        <ele>444</ele>
        <time>2019-11-21T13:20:58Z</time>
      </trkpt>
      <trkpt lat="47.22628" lon="4.93046">
        <ele>445</ele>
        <time>2019-11-21T13:21:06Z</time>
      </trkpt>
      <trkpt lat="47.22622" lon="4.93044">
        <ele>445</ele>
        <time>2019-11-21T13:21:18Z</time>
      </trkpt>
      <trkpt lat="47.22618" lon="4.93037">
        <ele>443</ele>
        <time>2019-11-21T13:21:36Z</time>
      </trkpt>
      <trkpt lat="47.22611" lon="4.93032">
        <ele>442</ele>
        <time>2019-11-21T13:21:54Z</time>
      </trkpt>
      <trkpt lat="47.22597" lon="4.93036">
        <ele>442</ele>
        <time>2019-11-21T13:22:11Z</time>
      </trkpt>
      <trkpt lat="47.22593" lon="4.93041">
        <ele>441</ele>
        <time>2019-11-21T13:22:16Z</time>
      </trkpt>
      <trkpt lat="47.22588" lon="4.93047">
        <ele>441</ele>
        <time>2019-11-21T13:22:24Z</time>
      </trkpt>
      <trkpt lat="47.22581" lon="4.93052">
        <ele>441</ele>
        <time>2019-11-21T13:22:36Z</time>
      </trkpt>
      <trkpt lat="47.22578" lon="4.93057">
        <ele>441</ele>
        <time>2019-11-21T13:22:41Z</time>
      </trkpt>
      <trkpt lat="47.22573" lon="4.93065">
        <ele>442</ele>
        <time>2019-11-21T13:22:49Z</time>
      </trkpt>
      <trkpt lat="47.22566" lon="4.93073">
        <ele>441</ele>
        <time>2019-11-21T13:23:01Z</time>
      </trkpt>
      <trkpt lat="47.22558" lon="4.93088">
        <ele>440</ele>
        <time>2019-11-21T13:24:25Z</time>
      </trkpt>
      <trkpt lat="47.22551" lon="4.93096">
        <ele>441</ele>
        <time>2019-11-21T13:24:36Z</time>
      </trkpt>
      <trkpt lat="47.22547" lon="4.93107">
        <ele>442</ele>
        <time>2019-11-21T13:24:48Z</time>
      </trkpt>
      <trkpt lat="47.22543" lon="4.9311">
        <ele>441</ele>
        <time>2019-11-21T13:24:53Z</time>
      </trkpt>
      <trkpt lat="47.22538" lon="4.93114">
        <ele>441</ele>
        <time>2019-11-21T13:24:58Z</time>
      </trkpt>
      <trkpt lat="47.22534" lon="4.93118">
        <ele>442</ele>
        <time>2019-11-21T13:25:03Z</time>
      </trkpt>
      <trkpt lat="47.2253" lon="4.93122">
        <ele>442</ele>
        <time>2019-11-21T13:25:08Z</time>
      </trkpt>
      <trkpt lat="47.22524" lon="4.93125">
        <ele>440</ele>
        <time>2019-11-21T13:25:16Z</time>
      </trkpt>
      <trkpt lat="47.2252" lon="4.93127">
        <ele>439</ele>
        <time>2019-11-21T13:25:28Z</time>
      </trkpt>
      <trkpt lat="47.22515" lon="4.93129">
        <ele>439</ele>
        <time>2019-11-21T13:25:34Z</time>
      </trkpt>
      <trkpt lat="47.2251" lon="4.93129">
        <ele>439</ele>
        <time>2019-11-21T13:25:39Z</time>
      </trkpt>
      <trkpt lat="47.22504" lon="4.93132">
        <ele>439</ele>
        <time>2019-11-21T13:25:48Z</time>
      </trkpt>
      <trkpt lat="47.225" lon="4.93137">
        <ele>439</ele>
        <time>2019-11-21T13:25:54Z</time>
      </trkpt>
      <trkpt lat="47.22495" lon="4.93142">
        <ele>440</ele>
        <time>2019-11-21T13:26:06Z</time>
      </trkpt>
      <trkpt lat="47.2249" lon="4.93147">
        <ele>439</ele>
        <time>2019-11-21T13:26:36Z</time>
      </trkpt>
      <trkpt lat="47.22485" lon="4.93153">
        <ele>439</ele>
        <time>2019-11-21T13:26:44Z</time>
      </trkpt>
      <trkpt lat="47.22481" lon="4.93182">
        <ele>443</ele>
        <time>2019-11-21T13:27:38Z</time>
      </trkpt>
      <trkpt lat="47.22479" lon="4.93191">
        <ele>443</ele>
        <time>2019-11-21T13:27:50Z</time>
      </trkpt>
      <trkpt lat="47.22478" lon="4.93199">
        <ele>444</ele>
        <time>2019-11-21T13:28:02Z</time>
      </trkpt>
      <trkpt lat="47.22473" lon="4.9321">
        <ele>445</ele>
        <time>2019-11-21T13:28:26Z</time>
      </trkpt>
      <trkpt lat="47.22468" lon="4.93223">
        <ele>446</ele>
        <time>2019-11-21T13:28:36Z</time>
      </trkpt>
      <trkpt lat="47.22471" lon="4.93231">
        <ele>447</ele>
        <time>2019-11-21T13:28:45Z</time>
      </trkpt>
      <trkpt lat="47.22474" lon="4.9324">
        <ele>448</ele>
        <time>2019-11-21T13:28:57Z</time>
      </trkpt>
      <trkpt lat="47.22471" lon="4.93258">
        <ele>449</ele>
        <time>2019-11-21T13:29:11Z</time>
      </trkpt>
      <trkpt lat="47.22471" lon="4.9327">
        <ele>450</ele>
        <time>2019-11-21T13:29:29Z</time>
      </trkpt>
      <trkpt lat="47.22472" lon="4.93282">
        <ele>452</ele>
        <time>2019-11-21T13:29:41Z</time>
      </trkpt>
      <trkpt lat="47.22474" lon="4.93294">
        <ele>452</ele>
        <time>2019-11-21T13:29:53Z</time>
      </trkpt>
      <trkpt lat="47.22478" lon="4.93298">
        <ele>451</ele>
        <time>2019-11-21T13:29:59Z</time>
      </trkpt>
      <trkpt lat="47.22476" lon="4.9331">
        <ele>451</ele>
        <time>2019-11-21T13:30:17Z</time>
      </trkpt>
      <trkpt lat="47.22472" lon="4.93315">
        <ele>451</ele>
        <time>2019-11-21T13:30:22Z</time>
      </trkpt>
      <trkpt lat="47.22469" lon="4.93319">
        <ele>451</ele>
        <time>2019-11-21T13:30:27Z</time>
      </trkpt>
      <trkpt lat="47.22464" lon="4.93323">
        <ele>451</ele>
        <time>2019-11-21T13:30:35Z</time>
      </trkpt>
      <trkpt lat="47.22458" lon="4.93321">
        <ele>451</ele>
        <time>2019-11-21T13:30:47Z</time>
      </trkpt>
      <trkpt lat="47.22454" lon="4.93323">
        <ele>452</ele>
        <time>2019-11-21T13:30:53Z</time>
      </trkpt>
      <trkpt lat="47.22448" lon="4.93318">
        <ele>451</ele>
        <time>2019-11-21T13:31:11Z</time>
      </trkpt>
      <trkpt lat="47.22444" lon="4.93323">
        <ele>451</ele>
        <time>2019-11-21T13:31:17Z</time>
      </trkpt>
      <trkpt lat="47.2244" lon="4.93335">
        <ele>451</ele>
        <time>2019-11-21T13:31:29Z</time>
      </trkpt>
      <trkpt lat="47.22438" lon="4.93341">
        <ele>451</ele>
        <time>2019-11-21T13:31:35Z</time>
      </trkpt>
      <trkpt lat="47.22435" lon="4.93351">
        <ele>452</ele>
        <time>2019-11-21T13:31:47Z</time>
      </trkpt>
      <trkpt lat="47.22438" lon="4.93359">
        <ele>454</ele>
        <time>2019-11-21T13:31:58Z</time>
      </trkpt>
      <trkpt lat="47.22438" lon="4.93377">
        <ele>456</ele>
        <time>2019-11-21T13:32:16Z</time>
      </trkpt>
      <trkpt lat="47.22443" lon="4.93386">
        <ele>457</ele>
        <time>2019-11-21T13:32:28Z</time>
      </trkpt>
      <trkpt lat="47.22445" lon="4.93392">
        <ele>458</ele>
        <time>2019-11-21T13:32:36Z</time>
      </trkpt>
      <trkpt lat="47.22444" lon="4.93399">
        <ele>459</ele>
        <time>2019-11-21T13:32:42Z</time>
      </trkpt>
      <trkpt lat="47.2244" lon="4.93404">
        <ele>459</ele>
        <time>2019-11-21T13:32:46Z</time>
      </trkpt>
      <trkpt lat="47.22437" lon="4.93421">
        <ele>460</ele>
        <time>2019-11-21T13:33:01Z</time>
      </trkpt>
      <trkpt lat="47.22431" lon="4.93432">
        <ele>460</ele>
        <time>2019-11-21T13:33:13Z</time>
      </trkpt>
      <trkpt lat="47.22429" lon="4.93438">
        <ele>460</ele>
        <time>2019-11-21T13:33:19Z</time>
      </trkpt>
      <trkpt lat="47.22428" lon="4.93451">
        <ele>461</ele>
        <time>2019-11-21T13:33:31Z</time>
      </trkpt>
      <trkpt lat="47.22426" lon="4.93459">
        <ele>461</ele>
        <time>2019-11-21T13:33:37Z</time>
      </trkpt>
      <trkpt lat="47.22425" lon="4.93465">
        <ele>461</ele>
        <time>2019-11-21T13:33:45Z</time>
      </trkpt>
      <trkpt lat="47.22421" lon="4.93474">
        <ele>461</ele>
        <time>2019-11-21T13:33:57Z</time>
      </trkpt>
      <trkpt lat="47.22417" lon="4.93477">
        <ele>461</ele>
        <time>2019-11-21T13:34:02Z</time>
      </trkpt>
      <trkpt lat="47.22412" lon="4.93483">
        <ele>461</ele>
        <time>2019-11-21T13:34:09Z</time>
      </trkpt>
      <trkpt lat="47.22403" lon="4.93494">
        <ele>460</ele>
        <time>2019-11-21T13:34:30Z</time>
      </trkpt>
      <trkpt lat="47.2239" lon="4.93495">
        <ele>457</ele>
        <time>2019-11-21T13:35:06Z</time>
      </trkpt>
      <trkpt lat="47.22387" lon="4.93507">
        <ele>456</ele>
        <time>2019-11-21T13:35:18Z</time>
      </trkpt>
      <trkpt lat="47.22388" lon="4.93517">
        <ele>456</ele>
        <time>2019-11-21T13:35:30Z</time>
      </trkpt>
      <trkpt lat="47.2239" lon="4.93526">
        <ele>457</ele>
        <time>2019-11-21T13:35:42Z</time>
      </trkpt>
      <trkpt lat="47.22389" lon="4.93538">
        <ele>458</ele>
        <time>2019-11-21T13:35:54Z</time>
      </trkpt>
      <trkpt lat="47.22388" lon="4.93545">
        <ele>458</ele>
        <time>2019-11-21T13:36:06Z</time>
      </trkpt>
      <trkpt lat="47.22382" lon="4.93551">
        <ele>457</ele>
        <time>2019-11-21T13:36:18Z</time>
      </trkpt>
      <trkpt lat="47.22377" lon="4.93554">
        <ele>457</ele>
        <time>2019-11-21T13:36:24Z</time>
      </trkpt>
      <trkpt lat="47.22379" lon="4.93562">
        <ele>457</ele>
        <time>2019-11-21T13:36:34Z</time>
      </trkpt>
      <trkpt lat="47.22373" lon="4.93569">
        <ele>456</ele>
        <time>2019-11-21T13:36:46Z</time>
      </trkpt>
      <trkpt lat="47.22369" lon="4.93577">
        <ele>454</ele>
        <time>2019-11-21T13:37:16Z</time>
      </trkpt>
      <trkpt lat="47.22364" lon="4.93578">
        <ele>453</ele>
        <time>2019-11-21T13:37:28Z</time>
      </trkpt>
      <trkpt lat="47.22362" lon="4.93586">
        <ele>452</ele>
        <time>2019-11-21T13:37:40Z</time>
      </trkpt>
      <trkpt lat="47.22362" lon="4.93594">
        <ele>452</ele>
        <time>2019-11-21T13:41:39Z</time>
      </trkpt>
      <trkpt lat="47.22359" lon="4.93603">
        <ele>453</ele>
        <time>2019-11-21T13:42:21Z</time>
      </trkpt>
      <trkpt lat="47.22353" lon="4.93605">
        <ele>451</ele>
        <time>2019-11-21T13:42:27Z</time>
      </trkpt>
      <trkpt lat="47.22348" lon="4.93605">
        <ele>450</ele>
        <time>2019-11-21T13:42:31Z</time>
      </trkpt>
      <trkpt lat="47.22348" lon="4.93614">
        <ele>451</ele>
        <time>2019-11-21T13:43:45Z</time>
      </trkpt>
      <trkpt lat="47.22341" lon="4.93619">
        <ele>451</ele>
        <time>2019-11-21T13:43:57Z</time>
      </trkpt>
      <trkpt lat="47.22341" lon="4.93626">
        <ele>452</ele>
        <time>2019-11-21T13:44:03Z</time>
      </trkpt>
      <trkpt lat="47.22346" lon="4.93631">
        <ele>452</ele>
        <time>2019-11-21T13:44:15Z</time>
      </trkpt>
      <trkpt lat="47.22346" lon="4.93639">
        <ele>453</ele>
        <time>2019-11-21T13:44:21Z</time>
      </trkpt>
      <trkpt lat="47.22345" lon="4.93656">
        <ele>455</ele>
        <time>2019-11-21T13:44:31Z</time>
      </trkpt>
      <trkpt lat="47.22342" lon="4.93662">
        <ele>455</ele>
        <time>2019-11-21T13:44:36Z</time>
      </trkpt>
      <trkpt lat="47.22344" lon="4.93671">
        <ele>456</ele>
        <time>2019-11-21T13:44:50Z</time>
      </trkpt>
      <trkpt lat="47.22349" lon="4.93681">
        <ele>458</ele>
        <time>2019-11-21T13:45:02Z</time>
      </trkpt>
      <trkpt lat="47.22351" lon="4.9369">
        <ele>458</ele>
        <time>2019-11-21T13:45:11Z</time>
      </trkpt>
      <trkpt lat="47.22349" lon="4.93697">
        <ele>459</ele>
        <time>2019-11-21T13:45:16Z</time>
      </trkpt>
      <trkpt lat="47.22349" lon="4.93706">
        <ele>460</ele>
        <time>2019-11-21T13:45:24Z</time>
      </trkpt>
      <trkpt lat="47.22346" lon="4.93713">
        <ele>460</ele>
        <time>2019-11-21T13:45:28Z</time>
      </trkpt>
      <trkpt lat="47.22343" lon="4.93718">
        <ele>460</ele>
        <time>2019-11-21T13:45:32Z</time>
      </trkpt>
      <trkpt lat="47.22339" lon="4.93721">
        <ele>460</ele>
        <time>2019-11-21T13:45:36Z</time>
      </trkpt>
      <trkpt lat="47.22331" lon="4.93734">
        <ele>461</ele>
        <time>2019-11-21T13:45:51Z</time>
      </trkpt>
      <trkpt lat="47.22327" lon="4.93739">
        <ele>462</ele>
        <time>2019-11-21T13:46:09Z</time>
      </trkpt>
      <trkpt lat="47.22315" lon="4.93727">
        <ele>460</ele>
        <time>2019-11-21T13:46:32Z</time>
      </trkpt>
      <trkpt lat="47.22311" lon="4.93733">
        <ele>460</ele>
        <time>2019-11-21T13:46:38Z</time>
      </trkpt>
      <trkpt lat="47.22308" lon="4.9374">
        <ele>460</ele>
        <time>2019-11-21T13:46:42Z</time>
      </trkpt>
      <trkpt lat="47.22301" lon="4.93748">
        <ele>460</ele>
        <time>2019-11-21T13:46:51Z</time>
      </trkpt>
      <trkpt lat="47.22298" lon="4.93753">
        <ele>460</ele>
        <time>2019-11-21T13:46:56Z</time>
      </trkpt>
      <trkpt lat="47.22293" lon="4.93758">
        <ele>460</ele>
        <time>2019-11-21T13:47:01Z</time>
      </trkpt>
      <trkpt lat="47.22292" lon="4.93766">
        <ele>460</ele>
        <time>2019-11-21T13:47:06Z</time>
      </trkpt>
      <trkpt lat="47.22288" lon="4.93771">
        <ele>460</ele>
        <time>2019-11-21T13:47:11Z</time>
      </trkpt>
      <trkpt lat="47.22288" lon="4.93781">
        <ele>460</ele>
        <time>2019-11-21T13:47:19Z</time>
      </trkpt>
      <trkpt lat="47.22284" lon="4.93788">
        <ele>460</ele>
        <time>2019-11-21T13:47:24Z</time>
      </trkpt>
      <trkpt lat="47.2228" lon="4.93793">
        <ele>460</ele>
        <time>2019-11-21T13:47:28Z</time>
      </trkpt>
      <trkpt lat="47.22274" lon="4.93797">
        <ele>460</ele>
        <time>2019-11-21T13:47:35Z</time>
      </trkpt>
      <trkpt lat="47.2227" lon="4.93802">
        <ele>460</ele>
        <time>2019-11-21T13:47:40Z</time>
      </trkpt>
      <trkpt lat="47.22265" lon="4.93805">
        <ele>460</ele>
        <time>2019-11-21T13:47:49Z</time>
      </trkpt>
      <trkpt lat="47.22257" lon="4.93813">
        <ele>459</ele>
        <time>2019-11-21T13:48:00Z</time>
      </trkpt>
      <trkpt lat="47.22252" lon="4.93818">
        <ele>458</ele>
        <time>2019-11-21T13:48:11Z</time>
      </trkpt>
      <trkpt lat="47.22249" lon="4.93825">
        <ele>459</ele>
        <time>2019-11-21T13:48:16Z</time>
      </trkpt>
      <trkpt lat="47.22242" lon="4.93834">
        <ele>458</ele>
        <time>2019-11-21T13:48:25Z</time>
      </trkpt>
      <trkpt lat="47.22237" lon="4.93848">
        <ele>458</ele>
        <time>2019-11-21T13:48:34Z</time>
      </trkpt>
      <trkpt lat="47.22238" lon="4.93854">
        <ele>458</ele>
        <time>2019-11-21T13:48:38Z</time>
      </trkpt>
      <trkpt lat="47.22243" lon="4.93867">
        <ele>459</ele>
        <time>2019-11-21T13:48:47Z</time>
      </trkpt>
      <trkpt lat="47.22241" lon="4.93881">
        <ele>459</ele>
        <time>2019-11-21T13:48:55Z</time>
      </trkpt>
      <trkpt lat="47.22242" lon="4.93888">
        <ele>458</ele>
        <time>2019-11-21T13:49:00Z</time>
      </trkpt>
      <trkpt lat="47.22241" lon="4.93895">
        <ele>458</ele>
        <time>2019-11-21T13:49:04Z</time>
      </trkpt>
      <trkpt lat="47.22242" lon="4.93902">
        <ele>458</ele>
        <time>2019-11-21T13:49:08Z</time>
      </trkpt>
      <trkpt lat="47.22249" lon="4.93921">
        <ele>459</ele>
        <time>2019-11-21T13:49:21Z</time>
      </trkpt>
      <trkpt lat="47.22261" lon="4.93934">
        <ele>458</ele>
        <time>2019-11-21T13:49:33Z</time>
      </trkpt>
      <trkpt lat="47.22264" lon="4.93938">
        <ele>459</ele>
        <time>2019-11-21T13:49:37Z</time>
      </trkpt>
      <trkpt lat="47.22269" lon="4.93941">
        <ele>458</ele>
        <time>2019-11-21T13:49:42Z</time>
      </trkpt>
      <trkpt lat="47.22274" lon="4.93943">
        <ele>458</ele>
        <time>2019-11-21T13:49:46Z</time>
      </trkpt>
      <trkpt lat="47.22277" lon="4.93949">
        <ele>458</ele>
        <time>2019-11-21T13:49:51Z</time>
      </trkpt>
      <trkpt lat="47.22282" lon="4.93957">
        <ele>458</ele>
        <time>2019-11-21T13:50:00Z</time>
      </trkpt>
      <trkpt lat="47.22292" lon="4.93961">
        <ele>458</ele>
        <time>2019-11-21T13:50:08Z</time>
      </trkpt>
      <trkpt lat="47.22296" lon="4.93965">
        <ele>459</ele>
        <time>2019-11-21T13:50:12Z</time>
      </trkpt>
      <trkpt lat="47.223" lon="4.9397">
        <ele>459</ele>
        <time>2019-11-21T13:50:17Z</time>
      </trkpt>
      <trkpt lat="47.22305" lon="4.93972">
        <ele>458</ele>
        <time>2019-11-21T13:50:22Z</time>
      </trkpt>
      <trkpt lat="47.22312" lon="4.93975">
        <ele>459</ele>
        <time>2019-11-21T13:50:28Z</time>
      </trkpt>
      <trkpt lat="47.22316" lon="4.93979">
        <ele>459</ele>
        <time>2019-11-21T13:50:32Z</time>
      </trkpt>
      <trkpt lat="47.22323" lon="4.93988">
        <ele>459</ele>
        <time>2019-11-21T13:50:40Z</time>
      </trkpt>
      <trkpt lat="47.22328" lon="4.93991">
        <ele>459</ele>
        <time>2019-11-21T13:50:44Z</time>
      </trkpt>
      <trkpt lat="47.22332" lon="4.93995">
        <ele>458</ele>
        <time>2019-11-21T13:50:49Z</time>
      </trkpt>
      <trkpt lat="47.22341" lon="4.93999">
        <ele>458</ele>
        <time>2019-11-21T13:50:56Z</time>
      </trkpt>
      <trkpt lat="47.22346" lon="4.93999">
        <ele>457</ele>
        <time>2019-11-21T13:51:00Z</time>
      </trkpt>
      <trkpt lat="47.22357" lon="4.94005">
        <ele>459</ele>
        <time>2019-11-21T13:51:13Z</time>
      </trkpt>
      <trkpt lat="47.22361" lon="4.94009">
        <ele>459</ele>
        <time>2019-11-21T13:51:18Z</time>
      </trkpt>
      <trkpt lat="47.22366" lon="4.94013">
        <ele>459</ele>
        <time>2019-11-21T13:51:22Z</time>
      </trkpt>
      <trkpt lat="47.22368" lon="4.94021">
        <ele>459</ele>
        <time>2019-11-21T13:51:27Z</time>
      </trkpt>
      <trkpt lat="47.22368" lon="4.94029">
        <ele>459</ele>
        <time>2019-11-21T13:51:32Z</time>
      </trkpt>
      <trkpt lat="47.22373" lon="4.9405">
        <ele>458</ele>
        <time>2019-11-21T13:51:45Z</time>
      </trkpt>
      <trkpt lat="47.22373" lon="4.94063">
        <ele>458</ele>
        <time>2019-11-21T13:51:53Z</time>
      </trkpt>
      <trkpt lat="47.22376" lon="4.94093">
        <ele>458</ele>
        <time>2019-11-21T13:52:12Z</time>
      </trkpt>
      <trkpt lat="47.22376" lon="4.94101">
        <ele>458</ele>
        <time>2019-11-21T13:52:17Z</time>
      </trkpt>
      <trkpt lat="47.22374" lon="4.94116">
        <ele>457</ele>
        <time>2019-11-21T13:52:25Z</time>
      </trkpt>
      <trkpt lat="47.22374" lon="4.94123">
        <ele>457</ele>
        <time>2019-11-21T13:52:30Z</time>
      </trkpt>
      <trkpt lat="47.22376" lon="4.9413">
        <ele>457</ele>
        <time>2019-11-21T13:52:35Z</time>
      </trkpt>
      <trkpt lat="47.22375" lon="4.94138">
        <ele>457</ele>
        <time>2019-11-21T13:52:40Z</time>
      </trkpt>
      <trkpt lat="47.22374" lon="4.94145">
        <ele>456</ele>
        <time>2019-11-21T13:52:45Z</time>
      </trkpt>
      <trkpt lat="47.22373" lon="4.94153">
        <ele>456</ele>
        <time>2019-11-21T13:52:49Z</time>
      </trkpt>
      <trkpt lat="47.22374" lon="4.9417">
        <ele>455</ele>
        <time>2019-11-21T13:53:02Z</time>
      </trkpt>
      <trkpt lat="47.22372" lon="4.94177">
        <ele>455</ele>
        <time>2019-11-21T13:53:07Z</time>
      </trkpt>
      <trkpt lat="47.22369" lon="4.94185">
        <ele>453</ele>
        <time>2019-11-21T13:53:17Z</time>
      </trkpt>
      <trkpt lat="47.22366" lon="4.94191">
        <ele>451</ele>
        <time>2019-11-21T13:53:28Z</time>
      </trkpt>
      <trkpt lat="47.22354" lon="4.94209">
        <ele>450</ele>
        <time>2019-11-21T13:53:47Z</time>
      </trkpt>
      <trkpt lat="47.22347" lon="4.9422">
        <ele>450</ele>
        <time>2019-11-21T13:54:01Z</time>
      </trkpt>
      <trkpt lat="47.22343" lon="4.94227">
        <ele>450</ele>
        <time>2019-11-21T13:54:08Z</time>
      </trkpt>
      <trkpt lat="47.2234" lon="4.94232">
        <ele>449</ele>
        <time>2019-11-21T13:54:13Z</time>
      </trkpt>
      <trkpt lat="47.22335" lon="4.9424">
        <ele>448</ele>
        <time>2019-11-21T13:54:23Z</time>
      </trkpt>
      <trkpt lat="47.22331" lon="4.94245">
        <ele>448</ele>
        <time>2019-11-21T13:54:27Z</time>
      </trkpt>
      <trkpt lat="47.22323" lon="4.94257">
        <ele>446</ele>
        <time>2019-11-21T13:54:35Z</time>
      </trkpt>
      <trkpt lat="47.2232" lon="4.94263">
        <ele>445</ele>
        <time>2019-11-21T13:54:40Z</time>
      </trkpt>
      <trkpt lat="47.22317" lon="4.94268">
        <ele>445</ele>
        <time>2019-11-21T13:54:45Z</time>
      </trkpt>
      <trkpt lat="47.22292" lon="4.943">
        <ele>437</ele>
        <time>2019-11-21T13:55:20Z</time>
      </trkpt>
      <trkpt lat="47.22284" lon="4.94314">
        <ele>434</ele>
        <time>2019-11-21T13:55:36Z</time>
      </trkpt>
      <trkpt lat="47.22275" lon="4.94331">
        <ele>432</ele>
        <time>2019-11-21T13:55:51Z</time>
      </trkpt>
      <trkpt lat="47.22268" lon="4.94341">
        <ele>425</ele>
        <time>2019-11-21T13:59:23Z</time>
      </trkpt>
      <trkpt lat="47.22263" lon="4.94349">
        <ele>422</ele>
        <time>2019-11-21T14:00:34Z</time>
      </trkpt>
      <trkpt lat="47.2226" lon="4.94355">
        <ele>422</ele>
        <time>2019-11-21T14:00:40Z</time>
      </trkpt>
      <trkpt lat="47.22256" lon="4.94362">
        <ele>422</ele>
        <time>2019-11-21T14:00:52Z</time>
      </trkpt>
      <trkpt lat="47.22252" lon="4.94366">
        <ele>420</ele>
        <time>2019-11-21T14:01:10Z</time>
      </trkpt>
      <trkpt lat="47.22253" lon="4.94373">
        <ele>419</ele>
        <time>2019-11-21T14:01:40Z</time>
      </trkpt>
      <trkpt lat="47.22247" lon="4.94379">
        <ele>415</ele>
        <time>2019-11-21T14:02:34Z</time>
      </trkpt>
      <trkpt lat="47.22238" lon="4.94396">
        <ele>411</ele>
        <time>2019-11-21T14:04:52Z</time>
      </trkpt>
      <trkpt lat="47.22233" lon="4.944">
        <ele>409</ele>
        <time>2019-11-21T14:05:10Z</time>
      </trkpt>
      <trkpt lat="47.22227" lon="4.94406">
        <ele>407</ele>
        <time>2019-11-21T14:05:22Z</time>
      </trkpt>
      <trkpt lat="47.22217" lon="4.94394">
        <ele>402</ele>
        <time>2019-11-21T14:05:46Z</time>
      </trkpt>
      <trkpt lat="47.2221" lon="4.94391">
        <ele>400</ele>
        <time>2019-11-21T14:05:58Z</time>
      </trkpt>
      <trkpt lat="47.22213" lon="4.94397">
        <ele>402</ele>
        <time>2019-11-21T14:09:03Z</time>
      </trkpt>
      <trkpt lat="47.22219" lon="4.94399">
        <ele>403</ele>
        <time>2019-11-21T14:09:15Z</time>
      </trkpt>
      <trkpt lat="47.22223" lon="4.94407">
        <ele>406</ele>
        <time>2019-11-21T14:09:27Z</time>
      </trkpt>
      <trkpt lat="47.22222" lon="4.94417">
        <ele>406</ele>
        <time>2019-11-21T14:09:38Z</time>
      </trkpt>
      <trkpt lat="47.2223" lon="4.94424">
        <ele>406</ele>
        <time>2019-11-21T14:09:52Z</time>
      </trkpt>
      <trkpt lat="47.22233" lon="4.94437">
        <ele>406</ele>
        <time>2019-11-21T14:10:02Z</time>
      </trkpt>
      <trkpt lat="47.22237" lon="4.94442">
        <ele>406</ele>
        <time>2019-11-21T14:10:06Z</time>
      </trkpt>
      <trkpt lat="47.22241" lon="4.94447">
        <ele>406</ele>
        <time>2019-11-21T14:10:15Z</time>
      </trkpt>
      <trkpt lat="47.22241" lon="4.94454">
        <ele>406</ele>
        <time>2019-11-21T14:10:39Z</time>
      </trkpt>
      <trkpt lat="47.22239" lon="4.94469">
        <ele>405</ele>
        <time>2019-11-21T14:10:49Z</time>
      </trkpt>
      <trkpt lat="47.2224" lon="4.94477">
        <ele>405</ele>
        <time>2019-11-21T14:10:53Z</time>
      </trkpt>
      <trkpt lat="47.22243" lon="4.94481">
        <ele>405</ele>
        <time>2019-11-21T14:10:58Z</time>
      </trkpt>
      <trkpt lat="47.22242" lon="4.94489">
        <ele>406</ele>
        <time>2019-11-21T14:11:05Z</time>
      </trkpt>
      <trkpt lat="47.22244" lon="4.94497">
        <ele>406</ele>
        <time>2019-11-21T14:11:13Z</time>
      </trkpt>
      <trkpt lat="47.22247" lon="4.94505">
        <ele>406</ele>
        <time>2019-11-21T14:11:49Z</time>
      </trkpt>
      <trkpt lat="47.22249" lon="4.94512">
        <ele>404</ele>
        <time>2019-11-21T14:12:13Z</time>
      </trkpt>
      <trkpt lat="47.22248" lon="4.94523">
        <ele>403</ele>
        <time>2019-11-21T14:12:24Z</time>
      </trkpt>
      <trkpt lat="47.22256" lon="4.94541">
        <ele>403</ele>
        <time>2019-11-21T14:12:38Z</time>
      </trkpt>
      <trkpt lat="47.2226" lon="4.94547">
        <ele>402</ele>
        <time>2019-11-21T14:12:45Z</time>
      </trkpt>
      <trkpt lat="47.22262" lon="4.94553">
        <ele>403</ele>
        <time>2019-11-21T14:13:01Z</time>
      </trkpt>
      <trkpt lat="47.22266" lon="4.94557">
        <ele>402</ele>
        <time>2019-11-21T14:13:25Z</time>
      </trkpt>
      <trkpt lat="47.22272" lon="4.94566">
        <ele>401</ele>
        <time>2019-11-21T14:13:37Z</time>
      </trkpt>
      <trkpt lat="47.22279" lon="4.94567">
        <ele>401</ele>
        <time>2019-11-21T14:13:49Z</time>
      </trkpt>
      <trkpt lat="47.22285" lon="4.94565">
        <ele>400</ele>
        <time>2019-11-21T14:14:01Z</time>
      </trkpt>
      <trkpt lat="47.2229" lon="4.94567">
        <ele>404</ele>
        <time>2019-11-21T14:14:19Z</time>
      </trkpt>
      <trkpt lat="47.22295" lon="4.94573">
        <ele>404</ele>
        <time>2019-11-21T14:14:31Z</time>
      </trkpt>
      <trkpt lat="47.22299" lon="4.94585">
        <ele>405</ele>
        <time>2019-11-21T14:14:43Z</time>
      </trkpt>
      <trkpt lat="47.22306" lon="4.94599">
        <ele>405</ele>
        <time>2019-11-21T14:14:55Z</time>
      </trkpt>
      <trkpt lat="47.22307" lon="4.94607">
        <ele>405</ele>
        <time>2019-11-21T14:15:00Z</time>
      </trkpt>
      <trkpt lat="47.22311" lon="4.9461">
        <ele>405</ele>
        <time>2019-11-21T14:15:05Z</time>
      </trkpt>
      <trkpt lat="47.22316" lon="4.94616">
        <ele>406</ele>
        <time>2019-11-21T14:15:12Z</time>
      </trkpt>
      <trkpt lat="47.22328" lon="4.94609">
        <ele>407</ele>
        <time>2019-11-21T14:15:28Z</time>
      </trkpt>
      <trkpt lat="47.22338" lon="4.94603">
        <ele>409</ele>
        <time>2019-11-21T14:15:50Z</time>
      </trkpt>
      <trkpt lat="47.22351" lon="4.94627">
        <ele>410</ele>
        <time>2019-11-21T14:16:11Z</time>
      </trkpt>
      <trkpt lat="47.22357" lon="4.94641">
        <ele>410</ele>
        <time>2019-11-21T14:16:25Z</time>
      </trkpt>
      <trkpt lat="47.22355" lon="4.94647">
        <ele>410</ele>
        <time>2019-11-21T14:16:30Z</time>
      </trkpt>
      <trkpt lat="47.22351" lon="4.94655">
        <ele>409</ele>
        <time>2019-11-21T14:16:40Z</time>
      </trkpt>
      <trkpt lat="47.22346" lon="4.94664">
        <ele>408</ele>
        <time>2019-11-21T14:16:52Z</time>
      </trkpt>
      <trkpt lat="47.22345" lon="4.94686">
        <ele>409</ele>
        <time>2019-11-21T14:17:11Z</time>
      </trkpt>
      <trkpt lat="47.22344" lon="4.94693">
        <ele>409</ele>
        <time>2019-11-21T14:17:16Z</time>
      </trkpt>
      <trkpt lat="47.22345" lon="4.94702">
        <ele>408</ele>
        <time>2019-11-21T14:17:25Z</time>
      </trkpt>
      <trkpt lat="47.22347" lon="4.94709">
        <ele>407</ele>
        <time>2019-11-21T14:17:31Z</time>
      </trkpt>
      <trkpt lat="47.22351" lon="4.94714">
        <ele>407</ele>
        <time>2019-11-21T14:17:39Z</time>
      </trkpt>
      <trkpt lat="47.22357" lon="4.94726">
        <ele>407</ele>
        <time>2019-11-21T14:17:50Z</time>
      </trkpt>
      <trkpt lat="47.22357" lon="4.94736">
        <ele>407</ele>
        <time>2019-11-21T14:17:58Z</time>
      </trkpt>
      <trkpt lat="47.22358" lon="4.94743">
        <ele>407</ele>
        <time>2019-11-21T14:18:03Z</time>
      </trkpt>
      <trkpt lat="47.22361" lon="4.94764">
        <ele>405</ele>
        <time>2019-11-21T14:18:20Z</time>
      </trkpt>
      <trkpt lat="47.22357" lon="4.94773">
        <ele>403</ele>
        <time>2019-11-21T14:18:32Z</time>
      </trkpt>
      <trkpt lat="47.22362" lon="4.94778">
        <ele>404</ele>
        <time>2019-11-21T14:18:49Z</time>
      </trkpt>
      <trkpt lat="47.22364" lon="4.94783">
        <ele>403</ele>
        <time>2019-11-21T14:18:57Z</time>
      </trkpt>
      <trkpt lat="47.22361" lon="4.94792">
        <ele>401</ele>
        <time>2019-11-21T14:19:15Z</time>
      </trkpt>
      <trkpt lat="47.2236" lon="4.94799">
        <ele>400</ele>
        <time>2019-11-21T14:19:21Z</time>
      </trkpt>
      <trkpt lat="47.22366" lon="4.94808">
        <ele>399</ele>
        <time>2019-11-21T14:19:31Z</time>
      </trkpt>
      <trkpt lat="47.22371" lon="4.9481">
        <ele>399</ele>
        <time>2019-11-21T14:19:36Z</time>
      </trkpt>
      <trkpt lat="47.22375" lon="4.94815">
        <ele>398</ele>
        <time>2019-11-21T14:19:41Z</time>
      </trkpt>
      <trkpt lat="47.2238" lon="4.94814">
        <ele>399</ele>
        <time>2019-11-21T14:19:49Z</time>
      </trkpt>
      <trkpt lat="47.22382" lon="4.94821">
        <ele>398</ele>
        <time>2019-11-21T14:19:55Z</time>
      </trkpt>
      <trkpt lat="47.22387" lon="4.94835">
        <ele>397</ele>
        <time>2019-11-21T14:20:06Z</time>
      </trkpt>
      <trkpt lat="47.22388" lon="4.94841">
        <ele>398</ele>
        <time>2019-11-21T14:20:11Z</time>
      </trkpt>
      <trkpt lat="47.22389" lon="4.94857">
        <ele>398</ele>
        <time>2019-11-21T14:20:24Z</time>
      </trkpt>
      <trkpt lat="47.22392" lon="4.94862">
        <ele>397</ele>
        <time>2019-11-21T14:20:29Z</time>
      </trkpt>
      <trkpt lat="47.22396" lon="4.94874">
        <ele>397</ele>
        <time>2019-11-21T14:20:40Z</time>
      </trkpt>
      <trkpt lat="47.22396" lon="4.94883">
        <ele>396</ele>
        <time>2019-11-21T14:20:52Z</time>
      </trkpt>
      <trkpt lat="47.22392" lon="4.94894">
        <ele>395</ele>
        <time>2019-11-21T14:21:04Z</time>
      </trkpt>
      <trkpt lat="47.22397" lon="4.94901">
        <ele>395</ele>
        <time>2019-11-21T14:21:16Z</time>
      </trkpt>
      <trkpt lat="47.224" lon="4.94911">
        <ele>395</ele>
        <time>2019-11-21T14:21:25Z</time>
      </trkpt>
      <trkpt lat="47.22402" lon="4.94932">
        <ele>392</ele>
        <time>2019-11-21T14:21:41Z</time>
      </trkpt>
      <trkpt lat="47.22404" lon="4.94938">
        <ele>392</ele>
        <time>2019-11-21T14:21:49Z</time>
      </trkpt>
      <trkpt lat="47.22402" lon="4.94948">
        <ele>389</ele>
        <time>2019-11-21T14:22:36Z</time>
      </trkpt>
      <trkpt lat="47.224" lon="4.94959">
        <ele>388</ele>
        <time>2019-11-21T14:22:48Z</time>
      </trkpt>
      <trkpt lat="47.22401" lon="4.94966">
        <ele>387</ele>
        <time>2019-11-21T14:22:54Z</time>
      </trkpt>
      <trkpt lat="47.22402" lon="4.94973">
        <ele>387</ele>
        <time>2019-11-21T14:23:00Z</time>
      </trkpt>
      <trkpt lat="47.2241" lon="4.94977">
        <ele>386</ele>
        <time>2019-11-21T14:23:12Z</time>
      </trkpt>
      <trkpt lat="47.22411" lon="4.94984">
        <ele>386</ele>
        <time>2019-11-21T14:23:17Z</time>
      </trkpt>
      <trkpt lat="47.22415" lon="4.94992">
        <ele>387</ele>
        <time>2019-11-21T14:23:26Z</time>
      </trkpt>
      <trkpt lat="47.22419" lon="4.94999">
        <ele>386</ele>
        <time>2019-11-21T14:23:34Z</time>
      </trkpt>
      <trkpt lat="47.22417" lon="4.95004">
        <ele>386</ele>
        <time>2019-11-21T14:23:46Z</time>
      </trkpt>
      <trkpt lat="47.22416" lon="4.95014">
        <ele>387</ele>
        <time>2019-11-21T14:24:16Z</time>
      </trkpt>
      <trkpt lat="47.22421" lon="4.95017">
        <ele>386</ele>
        <time>2019-11-21T14:24:21Z</time>
      </trkpt>
      <trkpt lat="47.22425" lon="4.95022">
        <ele>386</ele>
        <time>2019-11-21T14:24:32Z</time>
      </trkpt>
      <trkpt lat="47.22427" lon="4.95029">
        <ele>386</ele>
        <time>2019-11-21T14:25:26Z</time>
      </trkpt>
      <trkpt lat="47.22431" lon="4.95033">
        <ele>384</ele>
        <time>2019-11-21T14:25:38Z</time>
      </trkpt>
      <trkpt lat="47.22432" lon="4.95043">
        <ele>384</ele>
        <time>2019-11-21T14:25:50Z</time>
      </trkpt>
      <trkpt lat="47.22432" lon="4.9505">
        <ele>385</ele>
        <time>2019-11-21T14:26:08Z</time>
      </trkpt>
      <trkpt lat="47.22436" lon="4.95052">
        <ele>384</ele>
        <time>2019-11-21T14:26:37Z</time>
      </trkpt>
      <trkpt lat="47.22442" lon="4.95055">
        <ele>384</ele>
        <time>2019-11-21T14:27:01Z</time>
      </trkpt>
      <trkpt lat="47.22446" lon="4.95057">
        <ele>383</ele>
        <time>2019-11-21T14:27:13Z</time>
      </trkpt>
      <trkpt lat="47.22451" lon="4.95076">
        <ele>381</ele>
        <time>2019-11-21T14:27:54Z</time>
      </trkpt>
      <trkpt lat="47.22447" lon="4.95082">
        <ele>380</ele>
        <time>2019-11-21T14:28:02Z</time>
      </trkpt>
      <trkpt lat="47.22449" lon="4.95092">
        <ele>380</ele>
        <time>2019-11-21T14:28:20Z</time>
      </trkpt>
      <trkpt lat="47.22446" lon="4.95096">
        <ele>376</ele>
        <time>2019-11-21T14:29:14Z</time>
      </trkpt>
      <trkpt lat="47.22441" lon="4.95094">
        <ele>376</ele>
        <time>2019-11-21T14:29:25Z</time>
      </trkpt>
      <trkpt lat="47.22436" lon="4.9509">
        <ele>375</ele>
        <time>2019-11-21T14:29:43Z</time>
      </trkpt>
      <trkpt lat="47.22427" lon="4.95081">
        <ele>375</ele>
        <time>2019-11-21T14:30:07Z</time>
      </trkpt>
      <trkpt lat="47.22421" lon="4.95081">
        <ele>373</ele>
        <time>2019-11-21T14:30:25Z</time>
      </trkpt>
      <trkpt lat="47.22408" lon="4.95101">
        <ele>368</ele>
        <time>2019-11-21T14:31:12Z</time>
      </trkpt>
      <trkpt lat="47.22405" lon="4.95109">
        <ele>366</ele>
        <time>2019-11-21T14:31:30Z</time>
      </trkpt>
      <trkpt lat="47.22404" lon="4.95118">
        <ele>365</ele>
        <time>2019-11-21T14:31:42Z</time>
      </trkpt>
      <trkpt lat="47.224" lon="4.95121">
        <ele>361</ele>
        <time>2019-11-21T14:31:54Z</time>
      </trkpt>
      <trkpt lat="47.22403" lon="4.95139">
        <ele>358</ele>
        <time>2019-11-21T14:32:12Z</time>
      </trkpt>
      <trkpt lat="47.224" lon="4.95137">
        <ele>353</ele>
        <time>2019-11-21T14:33:54Z</time>
      </trkpt>
      <trkpt lat="47.22388" lon="4.95138">
        <ele>353</ele>
        <time>2019-11-21T14:34:23Z</time>
      </trkpt>
      <trkpt lat="47.22381" lon="4.95148">
        <ele>350</ele>
        <time>2019-11-21T14:34:47Z</time>
      </trkpt>
      <trkpt lat="47.22377" lon="4.95157">
        <ele>346</ele>
        <time>2019-11-21T14:35:11Z</time>
      </trkpt>
      <trkpt lat="47.22374" lon="4.95163">
        <ele>344</ele>
        <time>2019-11-21T14:35:23Z</time>
      </trkpt>
      <trkpt lat="47.2237" lon="4.9517">
        <ele>341</ele>
        <time>2019-11-21T14:35:41Z</time>
      </trkpt>
      <trkpt lat="47.22367" lon="4.95178">
        <ele>339</ele>
        <time>2019-11-21T14:35:53Z</time>
      </trkpt>
      <trkpt lat="47.22363" lon="4.95184">
        <ele>337</ele>
        <time>2019-11-21T14:36:11Z</time>
      </trkpt>
      <trkpt lat="47.22358" lon="4.95196">
        <ele>333</ele>
        <time>2019-11-21T14:36:46Z</time>
      </trkpt>
      <trkpt lat="47.22354" lon="4.95203">
        <ele>329</ele>
        <time>2019-11-21T14:37:10Z</time>
      </trkpt>
      <trkpt lat="47.22349" lon="4.95207">
        <ele>326</ele>
        <time>2019-11-21T14:37:28Z</time>
      </trkpt>
      <trkpt lat="47.22346" lon="4.95213">
        <ele>325</ele>
        <time>2019-11-21T14:37:46Z</time>
      </trkpt>
      <trkpt lat="47.22336" lon="4.95229">
        <ele>320</ele>
        <time>2019-11-21T14:38:11Z</time>
      </trkpt>
      <trkpt lat="47.22336" lon="4.95207">
        <ele>321</ele>
        <time>2019-11-21T14:38:42Z</time>
      </trkpt>
      <trkpt lat="47.22335" lon="4.952">
        <ele>322</ele>
        <time>2019-11-21T14:38:46Z</time>
      </trkpt>
      <trkpt lat="47.22335" lon="4.95192">
        <ele>321</ele>
        <time>2019-11-21T14:38:50Z</time>
      </trkpt>
      <trkpt lat="47.22326" lon="4.95152">
        <ele>321</ele>
        <time>2019-11-21T14:39:17Z</time>
      </trkpt>
      <trkpt lat="47.22319" lon="4.95142">
        <ele>321</ele>
        <time>2019-11-21T14:39:23Z</time>
      </trkpt>
      <trkpt lat="47.22318" lon="4.95128">
        <ele>320</ele>
        <time>2019-11-21T14:39:33Z</time>
      </trkpt>
      <trkpt lat="47.22318" lon="4.95112">
        <ele>320</ele>
        <time>2019-11-21T14:39:44Z</time>
      </trkpt>
      <trkpt lat="47.22312" lon="4.95098">
        <ele>320</ele>
        <time>2019-11-21T14:39:52Z</time>
      </trkpt>
      <trkpt lat="47.22308" lon="4.95086">
        <ele>320</ele>
        <time>2019-11-21T14:40:01Z</time>
      </trkpt>
      <trkpt lat="47.22298" lon="4.95083">
        <ele>318</ele>
        <time>2019-11-21T14:40:08Z</time>
      </trkpt>
      <trkpt lat="47.22294" lon="4.95072">
        <ele>318</ele>
        <time>2019-11-21T14:40:19Z</time>
      </trkpt>
      <trkpt lat="47.22293" lon="4.95052">
        <ele>318</ele>
        <time>2019-11-21T14:40:41Z</time>
      </trkpt>
      <trkpt lat="47.22292" lon="4.95028">
        <ele>320</ele>
        <time>2019-11-21T14:40:58Z</time>
      </trkpt>
      <trkpt lat="47.22286" lon="4.95017">
        <ele>320</ele>
        <time>2019-11-21T14:41:04Z</time>
      </trkpt>
      <trkpt lat="47.22285" lon="4.95002">
        <ele>320</ele>
        <time>2019-11-21T14:41:21Z</time>
      </trkpt>
      <trkpt lat="47.22273" lon="4.94996">
        <ele>320</ele>
        <time>2019-11-21T14:41:37Z</time>
      </trkpt>
    </trkseg>
  </trk>
</gpx>